[[{"header":{"parameterUnit":"m.s-1","parameterCategory":1,"la1":30.6,"la2":29.2853,"lo1":-89.7004,"lo2":-87.6739,"dy":0.0162,"dx":0.0183,"nx":112,"ny":82,"refTime":"2023-09-03T12:00:00:Z","depth":0,"parameterNumber":2,"parameterNumberName":"U-component_of_WINDS"},"data":[0.0,0.0,0.0,0.0,0.0,0.0,0.0,0.0,0.0,0.0,0.0,0.0,0.0,0.0,0.0,0.0,0.0,0.0,0.0,0.0,0.0,0.0,0.0,0.0,0.0,0.0,0.0,0.0,0.0,0.0,0.0,0.0,0.0,0.0,0.0,0.0,0.0,0.0,0.0,0.0,0.0,0.0,0.0,0.0,0.0,0.0,0.0,0.0,0.0,0.0,0.0,0.0,0.0,0.0,0.0,0.0,0.0,0.0,0.0,0.0,0.0,0.0,0.0,0.0,0.0,0.0,0.0,0.0,0.0,0.0,0.0,0.0,0.0,0.0,0.0,0.0,0.0,0.0,0.0,0.0,0.0,0.0,0.0,0.0,0.0,0.0,0.0,0.0,0.0,0.0,0.0,-4.0512,-4.0496,-4.0496,-4.0496,-4.0496,-4.0364,-4.0042,0.0,0.0,0.0,0.0,0.0,0.0,0.0,0.0,0.0,0.0,0.0,0.0,0.0,0.0,0.0,0.0,0.0,0.0,0.0,0.0,0.0,0.0,0.0,0.0,0.0,0.0,0.0,0.0,0.0,0.0,0.0,0.0,0.0,0.0,0.0,0.0,0.0,0.0,0.0,0.0,0.0,0.0,0.0,0.0,0.0,0.0,0.0,0.0,0.0,0.0,0.0,0.0,0.0,0.0,0.0,0.0,0.0,0.0,0.0,0.0,0.0,0.0,0.0,0.0,0.0,0.0,0.0,0.0,0.0,0.0,0.0,0.0,0.0,0.0,0.0,0.0,0.0,0.0,0.0,0.0,0.0,0.0,0.0,0.0,0.0,0.0,0.0,0.0,0.0,0.0,0.0,0.0,0.0,0.0,0.0,0.0,0.0,0.0,0.0,0.0,0.0,0.0,0.0,0.0,-4.0527,-4.0496,-4.0496,-4.0496,-4.0496,-4.0496,-4.0266,-3.9712,0.0,0.0,0.0,0.0,0.0,0.0,0.0,0.0,0.0,0.0,0.0,0.0,0.0,0.0,0.0,0.0,0.0,0.0,0.0,0.0,0.0,0.0,0.0,0.0,0.0,0.0,0.0,0.0,0.0,0.0,0.0,0.0,0.0,0.0,0.0,0.0,0.0,0.0,0.0,0.0,0.0,0.0,0.0,0.0,0.0,0.0,0.0,0.0,0.0,0.0,0.0,0.0,0.0,0.0,0.0,0.0,0.0,0.0,0.0,0.0,0.0,0.0,0.0,0.0,0.0,0.0,0.0,0.0,0.0,0.0,0.0,0.0,0.0,0.0,0.0,0.0,0.0,0.0,0.0,0.0,0.0,0.0,0.0,0.0,0.0,0.0,0.0,0.0,0.0,0.0,0.0,0.0,0.0,0.0,0.0,0.0,0.0,0.0,0.0,0.0,0.0,0.0,0.0,-4.053,-4.0496,-4.0496,-4.0496,-4.0496,-4.0496,-4.0364,-4.0082,-3.9634,-3.9426,0.0,0.0,0.0,0.0,0.0,0.0,0.0,0.0,0.0,0.0,0.0,0.0,0.0,0.0,0.0,0.0,0.0,0.0,0.0,0.0,0.0,0.0,0.0,0.0,0.0,0.0,0.0,0.0,0.0,0.0,0.0,0.0,0.0,0.0,0.0,0.0,0.0,0.0,0.0,0.0,0.0,0.0,0.0,0.0,0.0,0.0,0.0,0.0,0.0,0.0,0.0,0.0,0.0,0.0,0.0,0.0,0.0,0.0,0.0,0.0,0.0,0.0,0.0,0.0,0.0,0.0,0.0,0.0,0.0,0.0,0.0,0.0,0.0,0.0,0.0,0.0,0.0,0.0,0.0,0.0,0.0,0.0,0.0,0.0,0.0,0.0,0.0,0.0,0.0,0.0,0.0,0.0,0.0,0.0,0.0,0.0,0.0,0.0,0.0,0.0,0.0,0.0,-4.0496,-4.0496,-4.0496,-4.0496,-4.0473,-4.0406,-4.0213,-3.9922,-3.9517,-3.9238,0.0,0.0,0.0,0.0,0.0,0.0,0.0,0.0,0.0,0.0,0.0,0.0,0.0,0.0,0.0,0.0,0.0,0.0,0.0,0.0,0.0,0.0,0.0,0.0,0.0,0.0,0.0,0.0,0.0,0.0,0.0,0.0,0.0,0.0,0.0,0.0,0.0,0.0,0.0,0.0,0.0,0.0,0.0,0.0,0.0,0.0,0.0,0.0,0.0,0.0,0.0,0.0,0.0,0.0,0.0,0.0,0.0,0.0,0.0,0.0,0.0,0.0,0.0,0.0,0.0,0.0,0.0,0.0,0.0,0.0,0.0,0.0,0.0,0.0,0.0,0.0,0.0,0.0,0.0,0.0,0.0,0.0,0.0,0.0,0.0,0.0,0.0,0.0,0.0,0.0,0.0,0.0,0.0,0.0,0.0,0.0,0.0,0.0,0.0,0.0,0.0,0.0,-4.0496,-4.0496,-4.0496,-4.0496,-4.0397,-4.0148,-4.011,-3.9819,-3.9192,-3.9125,0.0,0.0,0.0,0.0,0.0,0.0,0.0,0.0,0.0,0.0,0.0,0.0,0.0,0.0,0.0,0.0,0.0,0.0,0.0,0.0,0.0,0.0,0.0,0.0,0.0,0.0,0.0,0.0,0.0,0.0,0.0,0.0,0.0,0.0,0.0,0.0,0.0,0.0,0.0,0.0,0.0,0.0,0.0,0.0,0.0,0.0,0.0,0.0,0.0,0.0,0.0,0.0,0.0,0.0,0.0,0.0,0.0,0.0,0.0,0.0,0.0,0.0,0.0,0.0,0.0,0.0,0.0,0.0,0.0,0.0,0.0,0.0,0.0,0.0,0.0,0.0,0.0,0.0,0.0,0.0,0.0,0.0,0.0,0.0,0.0,0.0,0.0,0.0,0.0,0.0,0.0,0.0,0.0,0.0,0.0,0.0,0.0,0.0,0.0,0.0,0.0,0.0,-4.0496,-4.0496,0.0,-4.0496,-4.0389,-4.012,-3.9912,-3.9599,-3.9139,0.0,0.0,0.0,0.0,0.0,0.0,0.0,0.0,0.0,0.0,0.0,0.0,0.0,0.0,0.0,0.0,0.0,0.0,0.0,0.0,0.0,0.0,0.0,0.0,0.0,0.0,0.0,0.0,0.0,0.0,0.0,0.0,0.0,0.0,0.0,0.0,0.0,0.0,0.0,0.0,0.0,0.0,0.0,0.0,0.0,0.0,0.0,0.0,0.0,0.0,0.0,0.0,0.0,0.0,0.0,0.0,0.0,0.0,0.0,0.0,0.0,0.0,0.0,0.0,0.0,0.0,0.0,0.0,0.0,0.0,0.0,0.0,0.0,0.0,0.0,0.0,0.0,0.0,0.0,0.0,0.0,0.0,0.0,0.0,0.0,0.0,0.0,0.0,0.0,0.0,0.0,0.0,0.0,0.0,0.0,0.0,0.0,0.0,0.0,0.0,0.0,0.0,-4.0496,-4.0496,-4.0496,0.0,-4.0496,-4.0356,-3.9963,-3.9742,-3.942,-3.8999,0.0,0.0,0.0,0.0,0.0,0.0,0.0,0.0,0.0,0.0,0.0,0.0,0.0,0.0,0.0,0.0,0.0,0.0,0.0,0.0,0.0,0.0,0.0,0.0,0.0,0.0,0.0,0.0,0.0,0.0,0.0,0.0,0.0,0.0,0.0,0.0,0.0,0.0,0.0,0.0,0.0,0.0,0.0,0.0,0.0,0.0,0.0,0.0,0.0,0.0,0.0,0.0,0.0,0.0,0.0,0.0,0.0,0.0,0.0,0.0,0.0,0.0,0.0,0.0,0.0,0.0,0.0,0.0,0.0,0.0,0.0,0.0,0.0,0.0,0.0,0.0,0.0,0.0,0.0,0.0,0.0,0.0,0.0,0.0,0.0,0.0,0.0,0.0,0.0,0.0,0.0,0.0,0.0,0.0,0.0,0.0,0.0,0.0,0.0,0.0,0.0,0.0,-4.0496,-4.0496,-4.0496,-4.0496,-4.0496,-4.0257,-3.9656,-3.9599,-3.9339,0.0,0.0,0.0,0.0,0.0,0.0,0.0,0.0,0.0,0.0,0.0,0.0,0.0,0.0,0.0,0.0,0.0,0.0,0.0,0.0,0.0,0.0,0.0,0.0,0.0,0.0,0.0,0.0,0.0,0.0,0.0,0.0,0.0,0.0,0.0,0.0,0.0,0.0,0.0,0.0,0.0,0.0,0.0,0.0,0.0,0.0,0.0,0.0,0.0,0.0,0.0,0.0,0.0,0.0,0.0,0.0,0.0,0.0,0.0,0.0,0.0,0.0,0.0,0.0,0.0,0.0,0.0,0.0,0.0,0.0,0.0,0.0,0.0,0.0,0.0,0.0,0.0,0.0,0.0,0.0,0.0,0.0,0.0,0.0,0.0,0.0,0.0,0.0,0.0,0.0,0.0,0.0,0.0,0.0,0.0,0.0,0.0,0.0,0.0,0.0,0.0,0.0,0.0,-4.0496,-4.0496,-4.0496,-4.0496,-4.0339,-4.0043,-3.9634,-3.9377,-3.9095,-3.8719,0.0,0.0,0.0,0.0,0.0,0.0,0.0,0.0,0.0,0.0,0.0,0.0,0.0,0.0,0.0,0.0,0.0,0.0,0.0,0.0,0.0,0.0,0.0,0.0,0.0,0.0,0.0,0.0,0.0,0.0,0.0,0.0,0.0,0.0,0.0,0.0,0.0,0.0,0.0,0.0,0.0,0.0,0.0,0.0,0.0,0.0,0.0,0.0,0.0,0.0,0.0,0.0,0.0,0.0,0.0,0.0,0.0,0.0,0.0,0.0,0.0,0.0,0.0,0.0,0.0,0.0,0.0,0.0,0.0,0.0,0.0,0.0,0.0,0.0,0.0,0.0,0.0,0.0,0.0,0.0,0.0,0.0,0.0,0.0,0.0,0.0,0.0,0.0,0.0,0.0,0.0,0.0,0.0,0.0,0.0,0.0,0.0,0.0,0.0,0.0,0.0,0.0,-4.0496,-4.0496,-4.0496,-4.0496,-4.025,-3.9953,-3.9634,-3.9289,-3.8985,-3.8719,0.0,0.0,0.0,0.0,0.0,0.0,0.0,0.0,0.0,0.0,0.0,0.0,0.0,0.0,0.0,0.0,0.0,0.0,0.0,0.0,0.0,0.0,0.0,0.0,0.0,0.0,0.0,0.0,0.0,0.0,0.0,0.0,0.0,0.0,0.0,0.0,0.0,0.0,0.0,0.0,0.0,0.0,0.0,0.0,0.0,0.0,0.0,0.0,0.0,0.0,0.0,0.0,0.0,0.0,0.0,0.0,0.0,0.0,0.0,0.0,0.0,0.0,0.0,0.0,0.0,0.0,0.0,0.0,0.0,0.0,0.0,0.0,0.0,0.0,0.0,0.0,0.0,0.0,0.0,0.0,0.0,0.0,0.0,0.0,0.0,0.0,0.0,0.0,0.0,0.0,0.0,0.0,0.0,0.0,0.0,0.0,0.0,0.0,0.0,0.0,0.0,0.0,-4.0496,-4.0496,-4.0496,-4.0496,-4.0232,-3.9922,-3.9622,-3.9269,-3.8961,-3.8723,0.0,0.0,0.0,0.0,0.0,0.0,0.0,0.0,0.0,0.0,0.0,0.0,0.0,0.0,0.0,0.0,0.0,0.0,0.0,0.0,0.0,0.0,0.0,0.0,0.0,0.0,0.0,0.0,0.0,0.0,0.0,0.0,0.0,0.0,0.0,0.0,0.0,0.0,0.0,0.0,0.0,0.0,0.0,0.0,0.0,0.0,0.0,0.0,0.0,0.0,0.0,0.0,0.0,0.0,0.0,0.0,0.0,0.0,0.0,0.0,-4.5594,0.0,0.0,0.0,0.0,0.0,0.0,0.0,0.0,0.0,0.0,0.0,0.0,0.0,0.0,0.0,0.0,0.0,0.0,0.0,0.0,0.0,0.0,0.0,0.0,0.0,0.0,0.0,0.0,0.0,0.0,0.0,0.0,0.0,0.0,0.0,0.0,0.0,0.0,0.0,0.0,0.0,-4.0496,-4.0496,-4.0496,-4.0496,-4.0024,-3.9668,-3.9611,-3.91,-3.8762,-3.8707,-3.8707,0.0,0.0,0.0,0.0,0.0,0.0,0.0,0.0,0.0,0.0,0.0,0.0,0.0,0.0,0.0,0.0,0.0,0.0,0.0,0.0,0.0,0.0,0.0,0.0,0.0,0.0,0.0,0.0,0.0,0.0,0.0,0.0,0.0,0.0,0.0,0.0,0.0,0.0,0.0,0.0,0.0,0.0,0.0,0.0,0.0,0.0,0.0,0.0,0.0,0.0,0.0,0.0,0.0,0.0,0.0,0.0,0.0,0.0,0.0,0.0,-4.5364,0.0,0.0,0.0,0.0,0.0,0.0,0.0,0.0,0.0,0.0,0.0,0.0,0.0,0.0,0.0,0.0,0.0,0.0,0.0,0.0,0.0,0.0,0.0,0.0,0.0,0.0,0.0,0.0,0.0,0.0,0.0,0.0,0.0,0.0,0.0,0.0,0.0,0.0,0.0,0.0,-4.0496,-4.0496,-4.0496,-4.0496,-3.9955,-3.9599,-3.9599,-3.905,-3.8707,-3.8707,-3.8707,0.0,0.0,0.0,0.0,0.0,0.0,0.0,0.0,0.0,0.0,0.0,0.0,0.0,0.0,0.0,0.0,0.0,0.0,0.0,0.0,0.0,0.0,0.0,0.0,0.0,0.0,0.0,0.0,0.0,0.0,0.0,0.0,0.0,0.0,0.0,0.0,0.0,0.0,0.0,0.0,0.0,0.0,0.0,0.0,0.0,0.0,0.0,0.0,0.0,0.0,0.0,0.0,0.0,-4.5594,-4.5594,-4.5594,-4.5594,-4.5594,-4.5594,-4.5594,-4.519,-4.4566,0.0,0.0,0.0,0.0,0.0,0.0,0.0,0.0,0.0,0.0,0.0,0.0,0.0,0.0,0.0,0.0,0.0,0.0,0.0,0.0,0.0,0.0,0.0,0.0,0.0,-4.1191,-4.1191,0.0,0.0,0.0,0.0,0.0,0.0,0.0,0.0,0.0,0.0,0.0,0.0,-4.0496,-4.0496,-4.0481,-4.0441,-3.9925,-3.9576,-3.9529,-3.9008,-3.8707,-3.8707,-3.8707,-3.8707,0.0,0.0,0.0,0.0,0.0,0.0,0.0,0.0,0.0,0.0,0.0,0.0,0.0,0.0,0.0,0.0,0.0,0.0,0.0,0.0,0.0,0.0,0.0,0.0,0.0,0.0,0.0,0.0,0.0,0.0,0.0,0.0,-4.2451,-4.2451,0.0,0.0,0.0,0.0,0.0,0.0,0.0,0.0,0.0,0.0,0.0,0.0,0.0,0.0,-4.5768,-4.5671,-4.5594,-4.5594,-4.5594,-4.5594,-4.5594,-4.5594,-4.5594,-4.5594,-4.5594,0.0,-4.5383,-4.4739,0.0,0.0,0.0,0.0,0.0,0.0,0.0,0.0,0.0,0.0,0.0,0.0,0.0,0.0,0.0,0.0,0.0,0.0,0.0,0.0,0.0,0.0,-4.1191,-4.1191,-4.1191,-4.1191,0.0,-4.1083,-4.0942,-4.0742,0.0,0.0,0.0,0.0,0.0,0.0,0.0,0.0,-4.0496,-4.0496,-4.0406,-4.0177,-3.9819,-3.9474,-3.9186,-3.8869,-3.8707,-3.8707,-3.8707,-3.8707,-3.8707,-3.8707,0.0,0.0,0.0,0.0,0.0,0.0,0.0,0.0,0.0,0.0,0.0,0.0,0.0,0.0,0.0,0.0,0.0,0.0,0.0,0.0,0.0,0.0,0.0,0.0,0.0,0.0,0.0,0.0,0.0,-4.1479,-4.1974,-4.2873,-4.2892,-4.3002,0.0,0.0,0.0,0.0,0.0,0.0,0.0,0.0,0.0,-4.539,-4.5522,-4.5594,-4.5594,-4.5594,-4.5594,-4.5594,-4.5594,-4.5594,-4.5594,-4.5594,-4.5594,-4.5594,-4.5594,-4.5594,-4.5575,-4.519,-4.4739,-4.4259,0.0,0.0,0.0,0.0,0.0,-4.1162,-4.0669,-4.0496,0.0,0.0,0.0,0.0,0.0,0.0,0.0,0.0,0.0,0.0,0.0,0.0,0.0,-4.1191,-4.1191,-4.1191,-4.1191,-4.1083,-4.095,0.0,-4.0735,-4.0668,-4.0527,0.0,0.0,0.0,0.0,0.0,-4.0496,-4.0496,-4.0389,-4.0129,-3.9797,-3.945,-3.9139,-3.884,-3.8707,-3.8707,-3.8707,-3.8707,-3.8707,-3.8707,-3.8707,0.0,0.0,0.0,0.0,0.0,0.0,0.0,0.0,0.0,0.0,0.0,0.0,0.0,0.0,0.0,0.0,0.0,0.0,0.0,0.0,0.0,0.0,0.0,0.0,0.0,0.0,0.0,0.0,-4.1038,-4.124,-4.245,-4.2415,-4.2543,0.0,0.0,0.0,0.0,0.0,0.0,-4.3912,-4.4908,-4.5476,-4.5476,-4.5559,-4.5594,-4.5594,-4.5594,-4.5594,-4.5594,-4.5594,-4.5594,-4.5594,-4.5594,-4.5594,-4.5594,-4.5594,-4.5594,-4.5575,-4.5364,-4.4902,-4.4278,-4.4066,-4.3989,-4.3835,-4.2585,-4.2143,-4.2008,-4.1123,-4.0835,-4.0804,-4.0573,0.0,-4.0696,-4.0696,0.0,0.0,0.0,0.0,-4.1191,-4.1191,0.0,-4.1191,-4.1191,-4.1191,-4.1191,-4.1191,-4.1076,-4.0917,0.0,-4.0762,-4.0668,-4.0527,0.0,0.0,0.0,0.0,-4.0496,-4.0496,-4.0496,-4.0389,-4.0129,-3.988,-3.9599,-3.9269,-3.898,-3.8803,-3.8803,-3.875,-3.8707,-3.8707,-3.8707,-3.8707,-3.8707,0.0,0.0,0.0,0.0,0.0,0.0,0.0,0.0,0.0,0.0,0.0,0.0,0.0,0.0,0.0,0.0,0.0,0.0,0.0,0.0,0.0,0.0,0.0,0.0,0.0,0.0,0.0,0.0,0.0,-4.0065,-4.1387,0.0,0.0,0.0,0.0,-4.3475,-4.3778,-4.3972,-4.4002,-4.4707,-4.5137,-4.5137,-4.5429,-4.5594,-4.5594,-4.5594,-4.5594,-4.5594,-4.5594,-4.5594,-4.5594,-4.5594,-4.5594,-4.5594,-4.5594,-4.5594,-4.5537,-4.4701,-4.4335,-4.422,-4.3451,-4.3162,-4.3143,-4.3066,-4.3028,-4.2912,-4.2047,-4.1731,-4.1604,-4.0766,-4.0593,-4.0696,-4.0696,-4.0839,0.0,0.0,-4.1103,-4.1191,-4.1191,-4.1191,-4.1191,-4.1191,-4.1191,-4.1191,-4.1191,-4.0994,-4.0805,0.0,-4.0762,-4.0668,-4.0527,0.0,-4.0496,-4.0496,-4.0496,-4.0496,-4.0496,-4.0496,-4.0389,-4.0129,-4.0091,-3.9932,-3.9599,-3.9264,-3.9085,-3.9085,-3.8844,-3.8707,-3.8707,-3.8707,-3.8707,-3.8707,-3.8707,0.0,0.0,0.0,0.0,0.0,0.0,0.0,0.0,0.0,0.0,0.0,0.0,0.0,0.0,0.0,0.0,0.0,0.0,0.0,0.0,0.0,0.0,0.0,0.0,0.0,0.0,0.0,0.0,-4.1258,-4.1497,0.0,-4.2965,-4.2855,-4.2727,-4.2727,-4.3039,-4.323,-4.323,-4.4212,-4.4788,-4.4788,-4.5107,-4.5292,-4.5292,-4.5495,-4.5594,-4.5594,-4.5594,-4.5594,-4.5594,-4.5594,-4.5594,-4.5594,-4.5594,-4.5594,-4.5575,-4.5267,-4.5152,-4.5114,-4.4825,-4.471,-4.4643,-4.4085,-4.3874,-4.3758,-4.2912,-4.2277,-4.1662,-4.0785,-4.0535,-4.0593,-4.0677,-4.0784,-4.0896,-4.0972,-4.1102,-4.1191,-4.1191,-4.1191,-4.1191,-4.1191,-4.1191,-4.1191,-4.1191,-4.1054,-4.0908,-4.0813,-4.0688,-4.0559,-4.0504,-4.0496,-4.0496,-4.0496,-4.0496,-4.0496,-4.0496,-4.0496,-4.0389,-4.0129,-4.0101,-3.9953,-3.9634,-3.9289,-3.8888,-3.8367,-3.8079,-3.7698,-3.7184,-3.7165,-3.7165,-3.7165,-3.7165,-3.7165,0.0,0.0,0.0,0.0,0.0,0.0,0.0,0.0,0.0,0.0,0.0,0.0,0.0,0.0,0.0,0.0,0.0,0.0,0.0,0.0,0.0,0.0,0.0,0.0,0.0,0.0,-3.9191,-4.1242,-4.1258,-4.1627,-4.2965,-4.2855,-4.269,-4.269,-4.2915,-4.3095,-4.3211,-4.3962,-4.446,-4.4612,-4.4825,-4.4931,-4.4931,-4.515,-4.5263,-4.5263,-4.539,-4.5429,-4.5429,-4.5559,-4.5594,-4.5594,-4.5594,-4.5594,-4.5594,-4.5594,-4.5594,-4.5594,-4.5594,-4.5594,-4.5537,-4.496,-4.4547,-4.4143,-4.3047,-4.2085,-4.1277,-4.0689,-4.0496,-4.0516,-4.0612,-4.0715,-4.0822,-4.0917,-4.1055,-4.1191,-4.1191,-4.1191,-4.1191,-4.1191,-4.1191,-4.1191,-4.1191,-4.1083,-4.0881,-4.0473,-4.0494,-4.0552,-4.0504,-4.0496,-4.0419,-4.015,-4.0092,-3.9996,-3.9688,-3.9669,-3.9588,-3.9418,-3.9318,-3.9166,-3.8944,-3.8527,-3.805,-3.7528,-3.7248,-3.6868,-3.6321,-3.6303,-3.6303,-3.6303,-3.6303,-3.6303,-3.6303,0.0,0.0,0.0,0.0,0.0,0.0,0.0,0.0,0.0,0.0,0.0,0.0,0.0,0.0,0.0,0.0,0.0,0.0,0.0,0.0,0.0,0.0,0.0,-3.7807,-3.7876,-3.8372,-3.9745,-4.06,-4.1409,-4.2268,-4.3039,-4.3515,-4.3515,-4.3515,-4.3646,-4.3971,-4.3967,-4.4161,-4.4553,-4.4567,-4.458,-4.458,-4.4593,-4.4593,-4.4593,-4.4931,-4.5085,-4.5107,-4.5429,-4.5577,-4.5577,-4.5577,-4.5577,-4.5586,-4.5566,-4.5547,-4.5556,-4.5594,-4.5575,-4.5556,-4.5556,-4.5017,-4.4028,-4.2374,-4.1258,-4.0535,-4.0516,-4.0496,-4.0496,-4.0496,-4.0643,-4.0797,-4.0797,-4.0992,-4.1191,-4.1191,-4.1191,-4.1191,-4.1191,-4.1191,-4.1191,-4.1172,-4.1063,-4.0691,-3.9744,-4.0131,-4.0578,-4.045,-4.0419,-4.0169,-3.9381,-3.9265,0.0,-3.8104,-3.8007,-3.8007,-3.7981,-3.7751,-3.7611,-3.7583,-3.7051,-3.6702,-3.6665,-3.6403,-3.6248,-3.6211,-3.6211,-3.6211,-3.6211,-3.6211,-3.6211,-3.6211,0.0,0.0,0.0,0.0,0.0,0.0,0.0,0.0,0.0,0.0,0.0,0.0,0.0,0.0,0.0,0.0,0.0,0.0,0.0,0.0,0.0,0.0,-3.6357,-3.7267,-3.7396,-3.8079,-3.9966,-4.0381,-4.123,-4.3003,-4.3369,-4.3515,-4.3515,-4.3515,-4.3548,-4.3629,-4.3629,-4.3695,-4.3791,-4.4031,-4.4161,-4.4161,-4.446,-4.4593,-4.4593,-4.4682,-4.4872,-4.5096,-4.4943,-4.5,-4.5222,-4.4977,-4.5011,-4.5194,-4.4553,-4.4442,-4.472,-4.5344,-4.521,-4.4662,-4.4662,-4.4143,-4.3269,-4.2173,-4.1646,-4.133,-4.0719,-4.0496,-4.0496,-4.0496,-4.0643,-4.0797,-4.0797,-4.0992,-4.1191,-4.1191,-4.1191,-4.1191,-4.1191,-4.1191,-4.1035,-4.0391,-4.0233,-3.9908,-3.8854,-3.8817,-3.8899,-3.8719,-3.8681,-3.8604,-3.8392,-3.8354,0.0,-3.8027,-3.8007,-3.7936,-3.7734,-3.7646,-3.7528,-3.7335,-3.6937,-3.6441,-3.5869,-3.5531,-3.5096,-3.4504,-3.4486,-3.4486,-3.4486,-3.4486,-3.4486,0.0,0.0,0.0,0.0,0.0,0.0,0.0,0.0,0.0,0.0,0.0,0.0,0.0,0.0,0.0,0.0,0.0,0.0,0.0,0.0,0.0,0.0,-3.56,-3.581,-3.644,-3.6724,-3.7577,-3.9554,-4.0095,-4.0998,-4.2821,-4.3313,-4.3515,-4.3515,-4.3515,-4.3515,-4.3515,-4.3515,-4.3515,-4.3515,-4.3677,-4.3788,-4.3788,-4.402,-4.414,-4.414,-4.428,-4.4455,-4.4619,-4.4222,-4.4159,0.0,-4.3787,-4.3658,-4.38,-4.3306,-4.3282,0.0,0.0,0.0,0.0,0.0,-4.2972,-4.2426,-4.1558,-4.1269,-4.1165,-4.0662,-4.0496,-4.0496,-4.0496,-4.0628,-4.0754,-4.0797,-4.0955,-4.1128,-4.1191,-4.1191,-4.1113,-4.0742,-4.0664,-4.043,-3.9531,-3.9355,-3.9059,-3.8039,0.0,0.0,-3.7088,-3.7557,-3.7873,-3.7507,-3.7469,-3.7334,-3.7007,-3.6949,-3.6887,-3.6733,-3.6623,-3.6499,-3.634,-3.6034,0.0,0.0,0.0,-3.4394,-3.3807,-3.3807,0.0,0.0,0.0,-3.3807,-3.3807,0.0,0.0,0.0,-3.6597,-3.7364,0.0,0.0,0.0,0.0,0.0,0.0,0.0,0.0,0.0,0.0,0.0,0.0,0.0,0.0,0.0,0.0,-3.56,-3.56,-3.56,-3.6028,-3.6946,-3.8725,-3.9626,-4.0619,-4.1948,-4.2783,-4.3222,-4.3222,-4.3222,-4.3222,-4.3222,0.0,0.0,0.0,0.0,-4.3222,-4.3222,-4.3222,-4.3222,-4.3239,-4.3526,-4.3691,-4.37,-4.3262,-4.3082,-4.3083,-4.231,-4.2013,-4.2037,-4.1988,-4.2113,-4.2396,-4.2799,-4.2953,-4.2857,-4.1975,-4.1649,0.0,0.0,0.0,0.0,-4.0496,-4.0496,-4.0496,-4.0496,-4.0589,-4.0707,-4.077,-4.0899,-4.1005,-4.1032,-4.1035,-4.082,-3.9961,-3.9746,-3.9512,-3.8633,-3.8457,-3.8182,-3.724,-3.696,-3.6607,-3.5752,-3.6774,-3.7469,-3.6673,-3.6558,-3.6308,-3.5596,-3.55,-3.5493,-3.5453,0.0,0.0,-3.5008,-3.4784,-3.4632,-3.4601,-3.4311,-3.4056,-3.3802,-3.3807,-3.3807,-3.3807,-3.3807,-3.3807,-3.3807,-3.4619,-3.5059,-3.5169,-3.6028,-3.7202,0.0,0.0,0.0,0.0,0.0,0.0,0.0,0.0,0.0,0.0,0.0,0.0,0.0,0.0,0.0,-3.56,-3.56,-3.56,-3.56,-3.5694,-3.6285,-3.7734,-3.8406,-3.9277,-4.0564,-4.1223,-4.157,-4.157,-4.157,-4.157,-4.157,-4.157,0.0,-4.157,-4.157,-4.157,-4.157,-4.157,-4.157,-4.157,0.0,0.0,-4.2056,-4.1693,-4.1661,-4.1908,-4.1482,-4.1456,-4.1678,-4.1293,-4.1037,-4.0989,-4.1753,-4.2041,-4.1942,-4.1066,-4.0758,-4.0739,-4.0554,-4.0496,-4.0496,-4.0496,-4.0496,-4.0496,-4.0496,-4.0589,0.0,-4.0713,-4.0848,-4.0842,-4.0168,-4.0071,-3.9922,-3.9062,-3.8848,-3.8613,-3.7734,-3.7559,-3.7264,-3.6321,-3.6128,-3.6008,-3.565,-3.581,-3.5923,-3.575,-3.5731,-3.5673,-3.5519,-3.55,-3.5424,-3.5198,-3.513,-3.4907,-3.4416,-3.4334,-3.4195,-3.3992,-3.3915,-3.3855,-3.3788,-3.3807,-3.3807,-3.3807,-3.3807,-3.3807,-3.3807,-3.4619,-3.5353,-3.6064,-3.6905,-3.7437,0.0,0.0,0.0,0.0,0.0,0.0,0.0,0.0,0.0,0.0,0.0,-3.371,0.0,0.0,-3.4704,-3.5052,-3.5098,-3.5207,-3.5538,-3.56,-3.5963,-3.6894,-3.7592,-3.8443,-3.959,-4.0308,-4.0823,-4.1079,-4.1095,-4.1095,-4.1095,-4.1095,-4.1095,-4.1095,-4.1095,-4.1095,-4.1095,-4.1095,-4.1095,-4.1095,-4.1095,-4.1188,-4.1336,-4.0749,-4.0596,-4.0722,-4.016,-3.9986,-4.0133,-3.99,-3.9712,-3.9671,-4.0399,-4.0872,-4.1104,-4.0669,-4.0496,-4.0496,-4.0496,-4.0496,-4.0496,-4.0496,-4.0496,-4.0496,-4.0496,-4.0545,-4.052,-4.0144,-4.0172,-4.0115,-3.9271,-3.9151,-3.9023,-3.8164,-3.7949,-3.7715,-3.6836,-3.6641,-3.6503,-3.6048,-3.5917,-3.5867,-3.5775,-3.5641,-3.5547,-3.5514,-3.55,-3.55,-3.55,-3.55,-3.5446,-3.5312,-3.5297,-3.5179,-3.4888,-3.4841,-3.4676,-3.4291,-3.4255,-3.4111,-3.3802,-3.3807,-3.3807,-3.3807,-3.3807,-3.3807,-3.3807,-3.5055,-3.5881,-3.6321,-3.7533,-3.8102,0.0,0.0,0.0,0.0,0.0,0.0,0.0,0.0,-3.1668,-3.2272,-3.2492,-3.2776,-3.3313,-3.3505,-3.3786,-3.4333,-3.4503,-3.4783,-3.5339,-3.5515,-3.5761,-3.6203,-3.6911,-3.7676,-3.8508,-3.9265,-3.9878,-4.0298,-4.0417,-4.0485,-4.0485,-4.0586,-4.0618,-4.0618,-4.0618,-4.0618,-4.0618,-4.0618,-4.0618,-4.0618,-4.0618,-4.0618,-4.06,-3.9955,-3.9662,-3.9625,-3.8982,-3.8707,-3.8707,-3.8707,-3.8698,-3.8744,-3.9327,-3.9861,-4.0336,-4.04,-4.0417,-4.0441,-4.0481,-4.0496,-4.0496,-4.0496,-4.0496,-4.0477,-4.0304,-4.0265,-4.0103,-3.9335,-3.9218,-3.9136,-3.8332,-3.8226,-3.8105,-3.7246,-3.7051,-3.6855,-3.6152,-3.5996,-3.5996,-3.5996,-3.595,-3.5911,-3.5903,-3.5775,-3.5631,-3.5528,-3.5501,-3.55,-3.55,-3.55,-3.55,-3.55,-3.55,-3.5486,-3.5432,-3.5376,-3.5147,-3.4724,-3.4694,-3.4483,-3.3992,-3.3967,-3.3941,-3.3876,-3.3876,-3.3855,-3.3807,-3.5312,-3.6046,-3.6083,-3.7716,-3.856,-2.9129,-2.916,-2.9348,-3.0238,-3.0419,-3.0614,0.0,0.0,-3.1524,-3.1611,-3.2132,-3.2614,-3.2695,-3.3182,-3.3608,-3.371,-3.4211,-3.4624,-3.4712,-3.523,-3.5622,-3.5672,-3.6187,-3.6579,-3.6684,-3.7212,-3.757,-3.7626,-3.8025,-3.8268,-3.8268,-3.8704,-3.8982,-3.8982,-3.8982,-3.8982,-3.8982,-3.8982,-3.8982,-3.8982,-3.8982,-3.8982,-3.8982,-3.8891,-3.8836,-3.8836,-3.8744,-3.8707,-3.8707,-3.8707,-3.87,-3.8738,-3.9176,-3.9483,-3.9742,-4.0027,-4.0138,-4.0177,-4.0425,-4.0496,-4.0496,-4.0496,-4.0496,-4.0362,-3.965,-3.9438,-3.9265,-3.8402,-3.8253,-3.8171,-3.7366,-3.7255,-3.7149,-3.6347,-3.6152,-3.6113,-3.6016,-3.5996,-3.5996,-3.5996,-3.5996,-3.5973,-3.5908,-3.5873,-3.5803,-3.5626,-3.554,-3.55,-3.55,-3.55,-3.55,-3.55,-3.55,-3.5391,-3.5155,-3.4926,-3.4754,-3.4694,-3.4694,-3.4663,-3.4601,-3.4601,-3.4464,-3.4171,-3.4159,-3.4043,-3.3807,-3.4711,-3.5151,-3.5188,-3.6853,-3.801,-2.8117,-2.862,-2.9097,0.0,-2.9535,-2.9766,-3.0614,-3.0807,-3.0925,-3.1409,-3.1754,-3.1951,-3.1951,-3.2188,-3.2516,0.0,-3.3235,-3.371,-3.4479,-3.483,-3.5144,-3.5538,-3.5805,-3.6071,-3.6354,-3.6603,-3.6845,-3.719,-3.7378,-3.7488,-3.7488,-3.7946,-3.8232,-3.8232,-3.8546,-3.8707,-3.8707,-3.8707,-3.8707,-3.8707,-3.8707,-3.8707,-3.8707,-3.8707,-3.8707,-3.8707,-3.8707,-3.8707,-3.8707,-3.8707,-3.8707,-3.8726,-3.8888,-3.9007,-3.9146,-3.964,-3.9929,-4.011,-4.0223,-4.0364,-4.0496,-4.0496,-4.0189,-3.9746,-3.94,-3.8957,-3.8354,-3.7488,-3.7347,-3.7253,-3.6391,-3.6313,-3.6357,-3.6021,-3.5973,-3.5996,-3.5996,-3.5996,-3.5996,-3.5996,-3.5996,-3.5996,-3.5952,-3.5938,-3.5869,-3.5791,-3.566,-3.5556,-3.5556,-3.5528,-3.55,-3.55,-3.55,-3.5453,-3.5327,-3.5223,-3.5096,-3.4944,-3.4935,-3.4851,-3.4723,-3.4694,-3.4643,-3.4478,-3.4311,-3.4242,-3.4307,-3.4784,-3.5096,-3.5314,-3.6329,-3.7221,-2.7196,-2.7835,0.0,-2.8588,-2.8652,-2.8876,-2.9735,-3.0133,-3.0464,-3.1058,-3.1351,-3.1511,-3.1511,-3.1511,-3.1653,-3.2216,-3.2465,-3.2949,-3.3912,-3.4358,-3.4783,-3.527,-3.5492,-3.5761,-3.6139,-3.6182,-3.6333,-3.6726,-3.6902,-3.698,-3.698,-3.7451,-3.7755,-3.7911,-3.8283,-3.8546,-3.8707,-3.8707,-3.8707,-3.8707,-3.8707,-3.8707,-3.8707,-3.8707,-3.8707,-3.8707,-3.8707,-3.8707,-3.8707,-3.8707,-3.8707,-3.8707,-3.8707,-3.8707,-3.875,-3.9189,-3.9559,-3.9848,-3.9922,-3.9995,-4.0035,-4.0035,-3.9538,-3.8892,-3.8661,-3.8142,-3.7469,-3.6615,-3.644,-3.6369,-3.5755,-3.5718,-3.5824,-3.5896,-3.5942,-3.5975,-3.5996,-3.5996,-3.5996,-3.5996,-3.5996,-3.5996,-3.5996,-3.5951,-3.5938,-3.5938,-3.5759,-3.5611,-3.5596,-3.5534,-3.55,-3.55,-3.55,-3.55,-3.55,-3.55,-3.5424,-3.5223,-3.5207,-3.5122,-3.4935,-3.4926,-3.4841,-3.4694,-3.4456,-3.4386,-3.4461,-3.4596,-3.4792,-3.5051,-3.5657,-3.6248,-2.6521,-2.6555,-2.6748,-2.7537,-2.7736,-2.7953,-2.8844,-2.969,-3.0299,-3.0329,-3.097,-3.1511,-3.1511,-3.1511,-3.1511,-3.1524,-3.2148,-3.2614,-3.2641,-3.3786,-3.46,-3.4624,-3.5207,-3.56,0.0,-3.5605,-3.5644,-3.5667,-3.6139,-3.6416,-3.6416,-3.6941,-3.7433,-3.7894,-3.7929,-3.8183,-3.8692,-3.8707,-3.8707,-3.8707,-3.8707,-3.8707,-3.8707,-3.8707,-3.8707,-3.8707,-3.8707,-3.8707,-3.8707,-3.8707,-3.8707,-3.8707,-3.8707,-3.8707,-3.8707,-3.8719,-3.8898,-3.9192,-3.9498,-3.9288,-3.8852,-3.8852,-3.8478,-3.7873,-3.7038,-3.675,-3.6577,-3.5769,-3.5545,-3.5547,-3.5593,-3.5596,-3.5663,-3.5858,-3.5903,-3.5916,-3.5995,-3.5996,-3.5996,-3.5996,-3.5996,-3.5996,-3.5996,-3.5996,-3.5996,-3.5996,-3.5834,-3.5667,-3.5606,-3.5534,-3.55,-3.55,-3.55,-3.55,-3.55,-3.55,-3.55,-3.5493,-3.5493,-3.5486,-3.5486,-3.5486,-3.5223,-3.4704,-3.4684,-3.4398,-3.3815,-3.3839,-3.3844,-3.3875,-3.4669,-3.5059,-2.4505,-2.4992,-2.5581,-2.5824,-2.6402,-2.7129,-2.7953,-2.8363,-2.8748,-2.9317,-3.0103,-3.0703,-3.0703,-3.1161,-3.1511,-3.1511,-3.1726,-3.2035,-3.2532,-3.2986,-3.3582,-3.4479,-3.4783,0.0,0.0,0.0,0.0,-3.56,-3.5761,-3.5876,-3.5876,-3.6374,-3.6744,-3.6904,-3.7248,-3.7506,-3.7703,-3.7698,-3.7856,-3.8169,-3.853,-3.8707,-3.8707,-3.8707,-3.8707,-3.8707,-3.8707,-3.8707,-3.8707,-3.8707,-3.8707,-3.8652,-3.8102,-3.7915,-3.7826,-3.7294,-3.7161,-3.735,-3.8195,-3.8143,-3.7772,-3.7947,-3.7493,-3.6859,-3.6733,-3.6327,-3.5846,-3.5577,-3.55,-3.5514,-3.5534,-3.5574,-3.5611,-3.5674,-3.5723,-3.5772,-3.5795,-3.5866,-3.5922,-3.5922,-3.5973,-3.5996,-3.5996,-3.5996,-3.5996,-3.5996,-3.5836,-3.5663,-3.5546,-3.5521,-3.55,-3.55,-3.55,-3.55,-3.55,-3.55,-3.55,-3.55,-3.55,-3.55,-3.55,-3.55,-3.5424,-3.5231,-3.5062,-3.4944,-3.4925,-3.4572,-3.4405,-3.4405,-3.4444,-3.4663,-2.3514,-2.3963,-2.4445,-2.4445,-2.5217,-2.6117,-2.6616,-2.7224,-2.7855,-2.8427,-2.9223,-2.9919,-3.0238,-3.0718,-3.1161,-3.1438,-3.1511,-3.1668,-3.2148,-3.2437,-3.2922,-3.3786,-3.4309,-3.4759,0.0,0.0,0.0,-3.56,-3.56,-3.56,-3.56,-3.592,-3.6203,-3.6395,-3.6724,-3.7018,-3.7209,-3.7202,-3.7342,-3.765,-3.8348,-3.8693,-3.8699,-3.871,-3.87,-3.8631,-3.7462,-3.7288,-3.7836,-3.7634,-3.7683,-3.779,-3.7272,-3.707,-3.7015,-3.6486,-3.6101,-3.5983,-3.6985,-3.7001,-3.6618,-3.6789,-3.6349,-3.5759,-3.5927,-3.5616,-3.5231,-3.532,-3.5361,-3.5376,-3.5486,-3.5528,-3.5566,-3.5595,-3.5635,-3.5663,-3.5696,-3.5766,-3.5743,-3.5488,-3.5473,-3.5407,-3.5117,-3.5078,-3.5058,-3.5035,-3.4938,-3.5012,-3.5516,-3.5558,-3.5534,-3.5507,-3.55,-3.55,-3.55,-3.55,-3.55,-3.55,-3.55,-3.55,-3.55,-3.55,-3.5453,-3.5361,-3.519,-3.513,-3.5215,-3.4879,-3.4694,-3.4684,-3.4486,-3.4563,-2.3331,-2.3368,-2.3404,-2.3404,-2.4192,-2.4933,-2.4981,-2.6343,-2.7571,-2.7637,-2.833,-2.9192,0.0,0.0,-3.0554,-3.1307,-3.1467,-3.1511,-3.1511,-3.2092,-3.2574,0.0,0.0,0.0,0.0,0.0,0.0,-3.5554,0.0,-3.56,-3.56,-3.56,-3.5832,-3.6333,-3.6354,-3.6603,-3.7097,-3.7147,-3.7111,-3.7064,-3.8051,-3.8528,-3.8543,-3.846,-3.8474,-3.8359,-3.5181,-3.4663,-3.6075,-3.5648,-3.5795,-3.6256,-3.6219,-3.6215,-3.6229,-3.6193,-3.5661,-3.5059,-3.5899,-3.5826,-3.5423,-3.5417,-3.5087,-3.4674,-3.4684,-3.4694,-3.4744,-3.4999,-3.5088,-3.5166,-3.5398,-3.5493,-3.5502,-3.553,-3.5523,-3.5539,-3.5554,-3.556,-3.5353,-3.4653,-3.453,-3.4293,-3.3534,-3.3398,-3.3377,-3.3311,-3.3305,-3.3854,-3.5383,-3.5517,-3.5447,-3.5386,-3.5424,-3.5437,-3.5437,-3.5488,-3.55,-3.55,-3.55,-3.55,-3.55,-3.55,-3.5376,-3.5122,-3.5122,-3.499,-3.4734,-3.4734,-3.4724,-3.4714,-3.4714,-3.4704,-2.1346,-2.1859,-2.2366,-2.2366,-2.3147,-2.4072,-2.4826,-2.5358,-2.5906,-2.6633,-2.7451,-2.8117,0.0,0.0,0.0,-3.0584,-3.1117,0.0,-3.1511,-3.1668,0.0,-3.2532,0.0,-3.3313,-3.3811,-3.4012,0.0,0.0,-3.5316,-3.56,-3.56,-3.56,-3.565,-3.5805,-3.5788,-3.5876,-3.6011,-3.6405,-3.6035,-3.496,-3.5741,-3.6193,-3.6345,-3.5243,-3.5332,-3.629,-3.4498,-3.3615,-3.3557,-3.4613,-3.5341,-3.5717,-3.5121,-3.5067,-3.5261,-3.4669,-3.4302,-3.4137,-3.4357,-3.4352,-3.4268,-3.4469,-3.4433,-3.4379,-3.4614,-3.4694,-3.4704,-3.4774,-3.4944,-3.5113,-3.519,-3.5354,-3.5341,-3.4719,-3.4558,-3.4377,-3.3743,-3.3689,-3.3708,-3.3518,-3.3568,-3.3569,-3.3363,-3.3376,-3.3398,-3.3377,-3.3376,-3.3499,-3.3803,-3.3821,-3.381,-3.3781,-3.4279,-3.4607,-3.4607,-3.5162,-3.55,-3.55,-3.55,-3.55,-3.55,-3.55,-3.5479,-3.5391,-3.5391,-3.5369,-3.5297,-3.5297,-3.5198,-3.499,-3.499,-3.4898,-2.0605,-2.0972,-2.1375,-2.1375,-2.2113,-2.2999,-2.3551,-2.4373,-2.5158,-2.5734,-2.6552,-2.7297,-2.7637,-2.8492,0.0,0.0,0.0,0.0,-3.1438,-3.1511,-3.1668,0.0,-3.241,0.0,-3.3103,-3.3443,-3.3761,0.0,-3.4776,-3.5276,-3.5577,-3.56,-3.56,-3.56,-3.56,-3.5436,-3.5133,-3.5406,-3.4984,-3.385,-3.4017,-3.4174,-3.4265,-3.3011,-3.2879,-3.3648,0.0,-3.2739,-3.2406,-3.3422,-3.3996,-3.4193,-3.3729,-3.371,-3.384,-3.3403,-3.3361,-3.3536,-3.3536,-3.3648,-3.3815,-3.3974,-3.4018,-3.4056,-3.4255,-3.4314,-3.4318,-3.4453,-3.4321,-3.4235,-3.4482,-3.4381,-3.4129,-3.3724,-3.3622,-3.3506,-3.3006,-3.2951,-3.2917,-3.259,-3.2305,-3.211,-3.211,-3.2167,-3.2222,-3.2222,-3.2265,-3.2282,-3.2207,-3.2801,-3.3237,-3.32,-3.3573,-3.3826,-3.3826,-3.4179,-3.4576,-3.4949,-3.4944,-3.5103,-3.5481,-3.55,-3.55,-3.55,-3.55,-3.55,-3.55,-3.55,-3.5424,-3.5281,-3.5281,-3.5198,-2.0605,-2.0605,-2.0605,-2.0605,-2.1221,-2.1849,-2.1952,-2.3441,-2.4826,-2.4969,-2.5804,-2.6714,-2.7417,-2.7637,-2.8182,-2.969,0.0,-3.0554,-3.1248,-3.1438,-3.1511,-3.1511,-3.2064,-3.2465,-3.2465,-3.2986,-3.3349,-3.3469,-3.4012,-3.4664,-3.5447,-3.547,-3.5464,-3.5447,-3.5442,-3.5099,-3.4354,-3.4342,-3.3989,-3.3241,-3.2831,-3.26,-3.2479,-3.1596,-3.12,-3.1225,0.0,0.0,-3.2004,-3.223,-3.235,-3.2417,-3.2417,-3.2451,-3.2501,-3.2501,-3.2745,-3.3124,-3.3124,-3.3332,-3.3648,-3.3762,-3.3807,-3.377,-3.3678,-3.3642,-3.3671,-3.3796,-3.3345,-3.2943,-3.341,-3.3078,-3.2611,-3.2645,-3.2673,-3.2667,-3.2532,-3.2551,-3.2376,-3.1748,-3.1068,-3.0587,-3.0587,-3.0631,-3.0687,-3.0687,-3.0789,-3.0858,-3.0878,-3.2101,-3.2962,-3.2906,-3.2986,-3.3038,-3.3038,-3.3028,-3.335,-3.41,-3.4079,-3.4385,-3.5149,-3.5264,-3.5327,-3.5327,-3.5442,-3.55,-3.55,-3.55,-3.55,-3.55,-3.5385,-3.5327,-2.0605,-2.0605,-2.0605,-2.0605,-2.0712,-2.1039,-2.1811,-2.2925,0.0,0.0,-2.5804,-2.6521,-2.6692,-2.7263,-2.7802,-2.8117,-2.9348,-3.0359,-3.0494,-3.1087,-3.1511,0.0,0.0,0.0,0.0,0.0,0.0,0.0,0.0,-3.3495,-3.4712,-3.4759,-3.4745,-3.4687,-3.4689,-3.4331,-3.3602,-3.3591,-3.322,-3.2477,-3.2405,-3.2053,-3.1438,-3.128,-3.1202,-3.1213,0.0,0.0,-3.1372,-3.1408,-3.162,-3.1915,-3.1915,-3.2161,-3.2501,-3.2501,-3.255,-3.2616,-3.2616,-3.2665,-3.284,-3.3578,-3.3807,-3.3678,-3.3005,-3.2803,-3.2669,-3.2065,-3.1943,-3.2037,-3.2125,-3.2372,-3.2389,-3.152,-3.1466,-3.1389,-3.0655,-3.0676,-3.0794,-3.067,-3.0559,-3.0528,-3.0528,-3.0571,-3.0625,-3.0625,-3.0633,-3.0661,-3.0739,-3.1073,-3.1307,-3.1304,-3.1848,-3.2212,-3.2212,-3.2794,-3.323,-3.3386,-3.3286,-3.3271,-3.3425,-3.407,-3.443,-3.443,-3.5135,-3.55,-3.55,-3.55,-3.55,-3.5481,-3.4757,-3.443,-2.0605,-2.0605,-2.0605,-2.0605,-2.0605,-2.0712,-2.1155,0.0,0.0,-2.4,-2.5028,-2.5886,-2.6383,-2.6816,0.0,-2.7637,-2.8395,-2.9254,-3.0178,-3.0614,0.0,-3.1438,0.0,0.0,0.0,0.0,0.0,0.0,0.0,0.0,-3.4012,-3.4038,-3.3997,-3.3965,-3.3629,-3.3252,-3.2836,-3.253,-3.2156,-3.1735,-3.1741,-3.1529,-3.119,-3.119,-3.119,-3.119,-3.119,0.0,-3.119,-3.119,-3.1312,-3.1488,-3.1488,-3.1638,-3.1823,-3.1823,-3.1707,-3.1566,-3.1566,-3.1469,-3.1424,-3.1833,-3.2371,-3.2757,-3.2159,-3.1971,-3.1898,-3.1513,-3.1175,-3.1006,-3.1131,-3.1061,-3.0836,-3.042,-3.0404,-3.0379,-3.0079,-3.0096,-3.0222,-3.0367,-3.0428,-3.0456,-3.0456,-3.0503,-3.0556,-3.0556,-3.0578,-3.0617,-3.0633,-3.0696,-3.0783,-3.0898,-3.1227,-3.1436,-3.1436,-3.1716,-3.2092,-3.2555,-3.2483,-3.2625,-3.3087,-3.3465,-3.3684,-3.3684,-3.4022,-3.4189,-3.4189,-3.4154,-3.416,-3.4141,-3.3718,-3.3526,-2.0527,-2.0605,-2.0605,-2.0605,-2.0605,-2.0605,-2.0605,-2.1336,0.0,-2.3036,-2.4156,-2.5229,-2.6025,-2.6349,-2.6714,0.0,-2.7571,-2.8182,-2.9535,-2.9889,-3.0329,0.0,0.0,0.0,0.0,0.0,0.0,0.0,0.0,0.0,-3.3091,-3.3121,-3.3019,-3.287,-3.2359,-3.1954,-3.1674,-3.1224,-3.0905,-3.0818,-3.0818,-3.0949,-3.119,-3.1066,-3.0978,-3.0945,-3.1134,0.0,0.0,-3.1151,-3.119,-3.119,-3.119,-3.1106,-3.0954,-3.0954,-3.0694,-3.0334,-3.0334,-3.0193,-3.0011,-2.9929,-3.068,-3.1571,-3.1144,-3.0953,-3.089,-3.0888,-3.0363,-2.988,-3.018,-2.9826,-2.9434,-2.9598,-2.9644,-2.9678,-2.9837,-2.9908,-3.0003,-3.0215,-3.0286,-3.0311,-3.0311,-3.0406,-3.0482,-3.0482,-3.0517,-3.0554,-3.0575,-3.0578,-3.063,-3.0811,-3.0857,-3.0878,-3.0898,-3.0794,-3.1036,-3.1714,-3.169,-3.1944,-3.2641,-3.2837,-3.2924,-3.2924,-3.3005,-3.3034,-3.3034,-3.2971,-3.2921,-3.2921,-3.273,-3.2641,-2.0323,-2.0605,-2.0605,-2.0605,-2.0605,-2.0605,-2.0605,0.0,-2.2027,-2.2103,-2.3661,-2.5052,-2.5123,-2.5873,-2.6521,0.0,-2.7229,-2.7769,-2.792,-2.862,-2.9442,-3.0299,0.0,0.0,0.0,0.0,0.0,0.0,0.0,0.0,0.0,-3.1785,-3.1467,-3.0791,-3.0729,-3.0364,-2.9663,-2.9611,-2.9579,-2.9563,-2.9563,-3.0147,-3.1166,-3.0621,-3.0269,-3.0133,0.0,0.0,0.0,-3.0975,-3.119,-3.119,-3.119,-3.0784,-3.019,-3.019,-2.9756,-2.9167,-2.9167,-2.9134,-2.9055,-2.8677,-2.9439,-3.0359,-2.9909,-2.9551,-2.9297,-2.9235,-2.8913,-2.8661,-2.9062,-2.9269,-2.9394,-2.9414,-2.9424,-2.9424,-2.9454,-2.9598,-2.972,-2.9765,-2.9908,-3.0047,-3.0047,-3.0241,-3.0408,-3.0408,-3.0419,-3.0436,-3.0503,-3.0516,-3.0541,-3.0617,-3.0677,-3.0769,-3.0898,-3.0898,-3.0918,-3.0996,-3.0883,-3.0845,-3.0923,-3.1629,-3.2017,-3.2017,-3.2781,-3.3183,-3.3183,-3.3058,-3.2996,-3.2977,-3.2181,-3.1814,-1.952,-2.0128,-2.0605,-2.0605,-2.0605,-2.0605,-2.0605,0.0,-2.1336,-2.1876,-2.311,-2.4264,-2.4898,-2.5804,-2.6499,-2.6499,-2.6782,-2.7162,-2.7637,-2.7986,-2.8524,0.0,0.0,0.0,0.0,0.0,0.0,0.0,0.0,0.0,0.0,-3.0145,-3.0188,-2.9908,-2.9506,-2.9324,-2.939,-2.9031,-2.9046,-2.9406,-2.9406,-2.9643,-3.0114,-2.9864,-2.9707,-2.9658,0.0,0.0,0.0,-3.0016,-3.033,-3.0608,-3.0159,-2.9846,-2.9605,-2.949,-2.8775,-2.7901,-2.8192,-2.7994,-2.7588,-2.7436,-2.772,-2.8183,-2.85,-2.8482,-2.8372,-2.8345,-2.8228,-2.8183,-2.854,-2.8904,-2.9167,-2.9167,-2.9167,-2.9192,-2.9372,-2.9464,-2.957,-2.9678,-2.9754,-2.9821,-2.9821,-3.0011,-3.0157,-3.0157,-3.0299,-3.0408,-3.0449,-3.0436,-3.0472,-3.0533,-3.0606,-3.0657,-3.0718,-3.0761,-3.0771,-3.0771,-3.0801,-3.0816,-3.0816,-3.1139,-3.1307,-3.1307,-3.1554,-3.1694,-3.1694,-3.1599,-3.1553,-3.1553,-3.1204,-3.1032,-1.843,-1.9274,-2.0128,-2.0128,-2.0362,-2.0605,0.0,0.0,-2.0789,-2.1441,-2.2366,-2.3257,-2.3963,-2.5182,-2.606,-2.606,-2.6314,-2.6679,-2.7263,-2.7351,-2.767,0.0,0.0,0.0,0.0,0.0,0.0,0.0,0.0,0.0,0.0,-2.8712,-2.8936,-2.8921,-2.8481,-2.8442,-2.8869,-2.845,-2.8434,-2.8857,-2.8857,-2.8973,-2.9134,-2.9134,-2.9134,-2.9134,0.0,0.0,0.0,-2.9115,-2.935,-2.9672,-2.8952,-2.8563,-2.8414,-2.8419,-2.7731,-2.6844,-2.7295,-2.7131,-2.6691,-2.6691,-2.6691,-2.6808,-2.7363,-2.7562,-2.7589,-2.784,-2.7897,-2.7936,-2.8197,-2.8545,-2.8803,-2.87,-2.8737,-2.8845,-2.8936,-2.8952,-2.9023,-2.9262,-2.9381,-2.9476,-2.9588,-2.9771,-2.9916,-2.9916,-3.0073,-3.0195,-3.0195,-3.0241,-3.0297,-3.0353,-3.0479,-3.0567,-3.06,-3.0631,-3.0675,-3.0675,-3.0788,-3.0838,-3.0838,-3.0879,-3.0898,-3.0898,-3.0814,-3.0768,-3.0768,-3.0667,-3.0638,-3.0636,-3.0614,-3.0603,-1.7009,-1.8149,-1.9036,-1.9036,-1.9795,-2.0605,-2.0605,-2.0605,-2.0605,-2.0605,-2.1375,-2.2027,-2.2027,-2.3672,-2.5016,-2.5016,-2.5838,-2.6499,-2.6499,-2.6499,0.0,0.0,0.0,0.0,0.0,0.0,0.0,0.0,0.0,0.0,0.0,-2.7615,-2.7615,-2.7615,-2.761,-2.761,-2.7615,-2.76,-2.7625,-2.7625,-2.7625,-2.7919,-2.8511,-2.8511,-2.8511,0.0,0.0,0.0,0.0,-2.8434,-2.8415,-2.8362,-2.7676,-2.6965,-2.639,-2.6913,-2.6656,-2.6067,-2.6539,-2.6725,-2.6691,-2.6691,-2.6691,-2.6691,-2.6708,-2.6708,-2.6873,-2.7681,-2.7897,-2.7897,-2.7911,-2.8156,-2.8329,-2.7996,-2.817,-2.8329,-2.7996,-2.7926,-2.8006,-2.8355,-2.8621,-2.8935,-2.9324,-2.957,-2.9705,-2.9705,-2.9705,-2.9713,-2.9713,-2.9885,-3.0006,-3.0006,-3.0235,-3.0467,-3.0591,-3.0606,-3.0606,-3.0606,-3.0669,-3.0696,-3.0696,-3.0836,-3.0898,-3.0898,-3.0898,-3.0898,-3.0898,-3.0769,-3.0695,-3.0693,-3.0638,-3.0603,-1.7009,-1.8149,-1.9195,-1.9923,-2.0362,-2.0605,-2.0605,-2.0605,-2.0605,-2.0605,-2.1336,-2.1989,-2.1989,-2.3073,-2.3963,-2.3963,-2.4814,-2.5476,0.0,0.0,0.0,0.0,0.0,0.0,0.0,0.0,0.0,0.0,0.0,0.0,0.0,-2.6097,-2.6556,-2.756,-2.76,-2.76,-2.76,-2.76,-2.76,-2.76,-2.76,-2.7685,-2.787,-2.787,0.0,0.0,0.0,0.0,0.0,-2.7184,-2.7148,-2.7036,-2.6302,-2.5932,-2.5748,-2.5792,-2.5413,-2.4973,-2.5505,-2.5672,-2.5672,-2.5672,-2.5926,-2.6227,-2.6227,-2.6436,-2.6758,-2.7003,-2.7288,-2.7485,-2.7485,-2.7779,-2.8034,-2.7926,-2.7982,-2.802,-2.7926,-2.7897,-2.794,-2.8034,-2.8306,-2.856,-2.8688,-2.9151,-2.9494,-2.9494,-2.9616,-2.9705,-2.9705,-2.9765,-2.9845,-2.9991,-3.0075,-3.0228,-3.0447,-3.0507,-3.0533,-3.0533,-3.06,-3.0641,-3.0641,-3.0678,-3.0723,-3.0768,-3.0769,-3.0814,-3.0898,-3.0858,-3.0837,-3.0837,-3.0812,-3.0759,-1.6396,-1.7496,-1.863,-1.9717,-2.0284,0.0,-2.0605,-2.0605,-2.0605,-2.0605,-2.1039,-2.1479,-2.1479,-2.2253,-2.2925,-2.2925,-2.3781,0.0,0.0,0.0,0.0,0.0,0.0,0.0,0.0,0.0,0.0,0.0,0.0,0.0,0.0,0.0,-2.5816,-2.6745,-2.7036,-2.731,-2.76,-2.76,-2.76,-2.76,-2.76,-2.76,-2.76,-2.76,0.0,0.0,0.0,0.0,0.0,-2.6048,-2.5817,-2.5693,-2.5013,-2.4759,-2.4804,-2.4869,-2.4692,-2.4491,-2.5012,-2.5202,-2.5202,-2.5202,-2.543,-2.5689,-2.5689,-2.6175,-2.6691,-2.6691,-2.6873,-2.7067,-2.7067,-2.7363,-2.7651,-2.7485,-2.756,-2.7619,-2.747,-2.7457,-2.7485,-2.7634,-2.7833,-2.8029,-2.8197,-2.8652,-2.9027,-2.9027,-2.9256,-2.9446,-2.9446,-2.9523,-2.9625,-2.9754,-2.9845,-2.9988,-3.0235,-3.0384,-3.0467,-3.0467,-3.0521,-3.0558,-3.0558,-3.0587,-3.0628,-3.0667,-3.0667,-3.0711,-3.0816,-3.0878,-3.0898,-3.0898,-3.0898,-3.0858,0.0,-1.6478,-1.7577,-1.8718,-1.9805,-2.0605,-2.0605,-2.0605,0.0,-2.0605,-2.0605,-2.0605,-2.0605,-2.1298,-2.1886,-2.1886,-2.2739,0.0,0.0,0.0,0.0,0.0,0.0,0.0,0.0,0.0,0.0,0.0,0.0,0.0,0.0,0.0,-2.5273,-2.5328,-2.5995,-2.6694,-2.7434,-2.7429,-2.7444,-2.7429,-2.7444,-2.7458,-2.7524,-2.7458,0.0,0.0,0.0,0.0,0.0,-2.5113,-2.4575,-2.447,-2.3849,-2.3595,-2.3659,-2.4158,-2.4348,-2.441,-2.4914,-2.5086,-2.5105,-2.5125,-2.5144,-2.5163,-2.5182,-2.5855,-2.659,-2.659,-2.659,-2.659,-2.6641,-2.6922,-2.7131,-2.6774,-2.6988,-2.7162,-2.6791,-2.6691,-2.6808,-2.7194,-2.7288,-2.7409,-2.7779,-2.8143,-2.835,-2.835,-2.867,-2.8917,-2.8917,-2.9171,-2.9332,-2.9353,-2.9551,-2.9754,-2.9962,-3.0215,-3.0373,-3.0404,-3.0457,-3.0485,-3.0485,-3.0544,-3.0591,-3.0597,-3.06,-3.0638,-3.069,-3.0816,-3.0898,-3.0898,-3.0898,-3.0898,-1.5421,0.0,-1.7577,-1.8718,-1.9805,-2.0605,0.0,-2.0605,-2.0605,-2.0605,-2.0605,-2.0605,-2.0605,-2.0789,-2.0934,-2.0934,0.0,0.0,0.0,0.0,0.0,0.0,0.0,0.0,0.0,0.0,0.0,0.0,0.0,0.0,0.0,0.0,-2.3913,-2.4541,-2.4721,-2.5173,-2.5908,-2.5916,-2.5914,-2.5928,-2.5928,-2.6215,-2.6747,-2.6162,0.0,0.0,0.0,0.0,-2.4387,-2.4527,-2.4291,-2.3819,-2.367,-2.3595,-2.3616,-2.3745,-2.3794,-2.3794,-2.3927,-2.397,-2.4032,-2.445,-2.4592,-2.4657,-2.5086,-2.5373,-2.5561,-2.5561,-2.5561,-2.5654,-2.605,-2.6228,-2.6385,-2.6641,-2.6775,-2.6825,-2.6725,-2.6691,-2.6725,-2.6824,-2.7083,-2.7317,-2.7424,-2.7765,-2.8024,-2.8024,-2.8106,-2.8161,-2.8161,-2.8446,-2.8706,-2.8931,-2.9266,-2.9542,-2.9746,-2.9981,-3.0189,-3.0398,-3.0419,-3.0422,-3.0422,-3.043,-3.0463,-3.0517,-3.0571,-3.0614,-3.0611,-3.0708,-3.0745,-3.0746,-3.0858,-3.0898,-1.4817,-1.5745,-1.6968,-1.859,-1.9441,-2.0001,-2.0489,-2.0605,-2.0605,-2.0605,-2.0605,-2.0605,-2.0605,-2.0605,0.0,0.0,0.0,0.0,0.0,0.0,0.0,0.0,0.0,0.0,0.0,0.0,0.0,0.0,0.0,0.0,0.0,0.0,-2.3304,-2.3734,-2.3734,-2.4262,-2.5397,-2.5391,-2.5405,-2.5398,-2.5412,-2.5618,-2.5973,-2.5285,0.0,0.0,0.0,0.0,-2.3244,-2.3267,-2.3051,-2.2764,-2.3076,-2.3201,-2.3209,-2.3508,-2.3595,-2.3595,-2.3595,-2.3595,-2.3659,-2.3927,-2.4032,-2.4095,-2.4369,-2.4471,-2.4572,-2.5067,-2.5202,-2.5278,-2.5559,-2.5633,-2.5707,-2.5946,-2.6016,-2.6016,-2.6016,-2.621,-2.6384,-2.6384,-2.6724,-2.7019,-2.7019,-2.7348,-2.7619,-2.7619,-2.7783,-2.7897,-2.7897,-2.8061,-2.8345,-2.8835,-2.9253,-2.9717,-3.0302,-3.064,-3.0823,-3.0815,-3.1167,-3.1411,-3.1538,-3.1538,-3.1561,-3.1606,-3.1304,-3.1146,-3.1146,-3.0823,-3.0642,-3.0663,-3.0765,-3.0814,-1.4088,-1.4776,-1.5951,-1.798,-1.8638,-1.8997,-1.9883,-2.0235,-2.0362,-2.0362,-2.0489,-2.0605,-2.0605,-2.0605,0.0,0.0,0.0,0.0,0.0,0.0,0.0,0.0,0.0,0.0,0.0,0.0,0.0,0.0,0.0,0.0,0.0,0.0,0.0,-2.2713,-2.2701,-2.3417,-2.4857,-2.5,-2.5054,-2.5035,-2.5046,-2.5065,-2.5066,-2.445,-2.4135,0.0,0.0,0.0,-2.2372,-2.1907,-2.1697,-2.1758,-2.2323,-2.2558,-2.2612,-2.3106,-2.3319,-2.3319,-2.3443,-2.3465,-2.3465,-2.3465,-2.353,-2.3573,-2.3486,-2.353,-2.3794,-2.4712,-2.4969,-2.4973,-2.5067,-2.5086,-2.5105,-2.5182,-2.5202,-2.5202,-2.5202,-2.5559,-2.587,-2.587,-2.6279,-2.659,-2.659,-2.6938,-2.721,-2.721,-2.75,-2.776,-2.7883,-2.7944,-2.8256,-2.8999,-2.9437,-3.0048,-3.0974,-3.1537,-3.1763,-3.1564,-3.2107,-3.2562,-3.282,-3.2878,-3.2891,-3.2891,-3.2287,-3.1976,-3.1976,-3.1181,-3.0779,-3.0782,-3.072,-3.0686,-1.4088,-1.4208,-1.4657,-1.5902,-1.6887,-1.7585,-1.7779,-1.855,-1.9244,-1.9244,-1.9962,-2.0605,-2.0605,-2.0605,-2.0605,0.0,0.0,0.0,0.0,0.0,0.0,0.0,0.0,0.0,0.0,0.0,0.0,0.0,0.0,0.0,0.0,0.0,0.0,-2.0985,-2.0985,-2.1462,-2.2413,-2.3108,-2.3449,-2.3433,-2.3467,-2.3525,-2.3681,-2.2969,-2.2483,0.0,0.0,-2.1503,-2.1113,-2.1537,-2.1697,-2.1697,-2.1805,-2.1852,-2.1875,-2.1969,-2.1979,-2.2063,-2.2634,-2.2844,-2.2844,-2.2844,-2.3187,-2.3508,-2.2987,-2.3187,-2.3638,-2.3794,-2.3858,-2.3948,-2.441,-2.4532,-2.4652,-2.5105,-2.5202,-2.5202,-2.5202,-2.5259,-2.5316,-2.5316,-2.5744,-2.612,-2.612,-2.6487,-2.6791,-2.6791,-2.6841,-2.7112,-2.7743,-2.8111,-2.8599,-2.9345,-2.9771,-3.0255,-3.0802,-3.1532,-3.2188,-3.2705,-3.2371,-3.2275,-3.2554,-3.2786,-3.2891,-3.2891,-3.2781,-3.2736,-3.2736,-3.1971,-3.1629,-3.159,-3.0934,-3.0623,-1.4088,-1.4088,-1.4208,-1.4692,-1.5628,-1.6601,-1.718,-1.7706,-1.8069,-1.8069,-1.847,-1.8997,0.0,0.0,-1.9923,0.0,0.0,0.0,0.0,0.0,0.0,0.0,0.0,0.0,0.0,0.0,0.0,0.0,0.0,0.0,0.0,0.0,0.0,0.0,-2.0583,-2.0776,-2.1192,-2.1549,-2.2201,-2.3108,-2.3108,-2.3006,-2.2796,-2.217,-2.164,-2.1172,0.0,-2.0489,-2.027,-2.057,-2.0682,-2.0706,-2.1075,-2.1197,-2.1245,-2.1592,-2.1697,-2.1744,-2.2053,-2.2146,-2.2146,-2.2146,-2.2354,-2.2523,-2.2239,-2.2354,-2.2583,-2.2583,-2.3069,-2.3659,-2.3885,-2.397,-2.4032,-2.4266,-2.4328,-2.4328,-2.4328,-2.4572,-2.4756,-2.4756,-2.5202,-2.5577,-2.5577,-2.6052,-2.6554,-2.6879,-2.7213,-2.7688,-2.8364,-2.8611,-2.9006,-2.974,-3.0179,-3.0671,-3.1291,-3.192,-3.2658,-3.3594,-3.3558,-3.3554,-3.3676,-3.3811,-3.3939,-3.4094,-3.3623,-3.3393,-3.3374,-3.2723,-3.2104,-3.1533,-3.1337,-3.0998,-1.4088,-1.4088,-1.4088,-1.4088,-1.4734,-1.5545,-1.6363,-1.6723,-1.6927,-1.6927,-1.7139,0.0,0.0,-1.8598,0.0,0.0,0.0,0.0,0.0,0.0,0.0,0.0,0.0,0.0,0.0,0.0,0.0,0.0,0.0,0.0,0.0,0.0,0.0,0.0,-1.9977,-2.0074,-2.0282,-2.0301,-2.1052,-2.2537,-2.2733,-2.2459,-2.1802,-2.1581,-2.1121,-2.0465,-1.9987,-1.9798,-1.9798,-1.9798,-1.9798,-1.985,-2.0371,-2.0572,-2.0622,-2.1086,-2.1256,-2.128,-2.1424,-2.1496,-2.1496,-2.1496,-2.1592,-2.1673,-2.152,-2.1592,-2.1697,-2.1697,-2.2409,-2.3172,-2.3172,-2.3275,-2.3399,-2.3399,-2.3508,-2.3595,-2.3595,-2.3921,-2.4204,-2.4204,-2.4757,-2.5262,-2.5262,-2.5911,-2.6591,-2.7062,-2.7558,-2.8122,-2.8748,-2.8839,-2.9161,-3.0048,-3.0413,-3.0933,-3.1737,-3.223,-3.2911,-3.39,-3.4357,-3.4572,-3.4572,-3.4663,-3.4812,-3.4999,-3.4352,-3.401,-3.401,-3.3333,-3.2592,-3.1798,-3.1911,-3.1504,-1.4088,-1.4088,-1.4088,-1.4088,-1.4166,-1.425,-1.4292,-1.5103,-1.582,-1.582,-1.6601,0.0,0.0,-1.7415,0.0,0.0,0.0,0.0,0.0,0.0,0.0,0.0,0.0,0.0,0.0,0.0,0.0,0.0,0.0,0.0,0.0,0.0,0.0,0.0,0.0,-1.8573,-1.9386,-1.9383,-1.9863,-2.0782,-2.1612,-2.1415,-2.038,-2.1144,-2.0903,-1.9861,-1.9823,-1.9798,-1.9798,-1.9798,-1.9798,-1.9798,-1.985,-1.9875,-1.9875,-1.9927,-1.994,-2.0016,-2.0646,-2.087,-2.087,-2.087,-2.1245,-2.1592,-2.1028,-2.1245,-2.1697,-2.1697,-2.1767,-2.1838,-2.1838,-2.23,-2.2762,-2.2762,-2.3187,-2.3595,-2.3595,-2.3638,-2.3659,-2.3659,-2.4594,-2.5402,-2.5402,-2.6367,-2.7142,-2.7184,-2.7216,-2.7529,-2.8255,-2.8356,-2.8844,-3.0145,-3.0315,-3.0744,-3.1717,-3.223,-3.2729,-3.324,-3.388,-3.4253,-3.4253,-3.454,-3.4704,-3.4724,-3.4668,-3.4649,-3.463,-3.377,-3.3327,-3.3241,-3.2708,-3.202,-1.4088,-1.4088,-1.4088,-1.4088,-1.4088,-1.4088,-1.4088,-1.4412,-1.4692,-1.4692,-1.5026,0.0,0.0,0.0,0.0,0.0,0.0,0.0,0.0,0.0,0.0,0.0,0.0,0.0,0.0,0.0,0.0,0.0,0.0,0.0,0.0,0.0,0.0,0.0,0.0,-1.8168,-1.8496,-1.8494,-1.8654,-1.9011,-2.0103,-2.0247,-1.9533,-1.9589,-1.9195,-1.8428,-1.8428,-1.8699,-1.9123,-1.9123,-1.9397,-1.9798,-1.9798,-1.9527,-1.9123,-1.9123,-1.9123,-1.9137,-1.9399,-1.9799,-2.0182,-2.0182,-2.0333,-2.0471,-2.0245,-2.0333,-2.0521,-2.0521,-2.0521,-2.0706,-2.1482,-2.1899,-2.2077,-2.2077,-2.2248,-2.2409,-2.2409,-2.3074,-2.3653,-2.3653,-2.4664,-2.5531,-2.5531,-2.6237,-2.6964,-2.7317,-2.7753,-2.8227,-2.8908,-2.8984,-2.9169,-2.9685,-3.0081,-3.0605,-3.1355,-3.1824,-3.2144,-3.2315,-3.3127,-3.3688,-3.3935,-3.4074,-3.4213,-3.4379,-3.439,-3.439,-3.439,-3.4281,-3.3847,-3.3149,-3.31,-3.2608,-1.4088,-1.4088,-1.4088,-1.4088,-1.4088,-1.4088,-1.4088,-1.4088,-1.4088,-1.4088,-1.4088,-1.4328,-1.5054,0.0,0.0,0.0,0.0,0.0,0.0,0.0,0.0,0.0,0.0,0.0,0.0,0.0,0.0,0.0,0.0,0.0,0.0,0.0,0.0,0.0,0.0,-1.8008,-1.8008,-1.8008,-1.8008,-1.8008,-1.8593,-1.8826,-1.8681,-1.8572,-1.8168,-1.7587,-1.7607,-1.7872,-1.8356,-1.8352,-1.8661,-1.9097,-1.9097,-1.8794,-1.8355,-1.8355,-1.8355,-1.8355,-1.8355,-1.8688,-1.9097,-1.9097,-1.9097,-1.9097,-1.9097,-1.9097,-1.9097,-1.9097,-1.9281,-1.9658,-2.0518,-2.1073,-2.1414,-2.1414,-2.1719,-2.1976,-2.1976,-2.2838,-2.3605,-2.3605,-2.4475,-2.5218,-2.5218,-2.5972,-2.6723,-2.7128,-2.7771,-2.8367,-2.8764,-2.8834,-2.8904,-2.9104,-2.9651,-3.0187,-3.0597,-3.0878,-3.1176,-3.1498,-3.2126,-3.2737,-3.3357,-3.339,-3.3482,-3.3655,-3.381,-3.3893,-3.3893,-3.4242,-3.4004,-3.3247,-3.3534,-3.3202,-1.4088,-1.4088,-1.4088,-1.4088,-1.4088,-1.4088,-1.4088,-1.4088,-1.4088,-1.4088,-1.4088,-1.4088,-1.4088,0.0,0.0,0.0,0.0,0.0,0.0,0.0,0.0,0.0,0.0,0.0,0.0,0.0,0.0,0.0,0.0,0.0,0.0,0.0,0.0,0.0,0.0,0.0,-1.8008,-1.8008,-1.8008,-1.7998,-1.7116,-1.7092,-1.7809,-1.825,-1.8146,-1.7583,-1.7584,-1.7589,-1.7606,-1.7617,-1.7605,-1.7605,-1.7605,-1.7605,-1.7578,-1.7578,-1.7578,-1.7578,-1.7578,-1.7594,-1.7605,-1.7605,-1.7605,-1.7605,-1.7605,-1.7605,-1.7605,-1.7605,-1.8124,-1.8688,-1.87,-1.9735,-2.0784,-2.0809,-2.1707,-2.2589,-2.2589,-2.3006,-2.3406,-2.3406,-2.3939,-2.4405,-2.4405,-2.5563,-2.6484,-2.6484,-2.7111,-2.7575,-2.76,-2.76,-2.7835,-2.8415,-2.9019,-2.9384,-2.9406,-2.9406,-2.9827,-3.0822,-3.0898,-3.1373,-3.2467,-3.2501,-3.2501,-3.2501,-3.2968,-3.3199,-3.3199,-3.3592,-3.3788,-3.3788,-3.408,-3.3766,-1.4088,-1.4088,-1.4088,-1.4088,-1.4088,-1.4088,-1.4088,-1.4088,-1.4088,-1.4088,-1.4088,-1.4088,-1.4088,0.0,0.0,0.0,0.0,0.0,0.0,0.0,0.0,0.0,0.0,0.0,0.0,0.0,0.0,0.0,0.0,0.0,0.0,0.0,0.0,0.0,0.0,0.0,-1.8008,-1.8008,-1.8008,-1.8008,-1.7451,-1.7117,-1.7002,-1.6557,-1.6218,-1.605,-1.6046,-1.6341,-1.6859,-1.739,-1.7605,-1.7605,-1.7605,-1.7274,-1.6838,-1.6838,-1.6838,-1.6838,-1.6838,-1.7174,-1.7605,-1.7605,-1.7605,-1.7605,-1.7605,-1.7605,-1.7605,-1.7605,-1.777,-1.8014,-1.8339,-1.8737,-1.9332,-2.0468,-2.1298,-2.1832,-2.1832,-2.2668,-2.3392,-2.3392,-2.4313,-2.5094,-2.5094,-2.5438,-2.5728,-2.5728,-2.5919,-2.6242,-2.6774,-2.6826,-2.7251,-2.8367,-2.8677,-2.8943,-2.9361,-2.9406,-2.9524,-2.9827,-2.9848,-3.0637,-3.2434,-3.2501,-3.2501,-3.2501,-3.2632,-3.2697,-3.2713,-3.3151,-3.3375,-3.3375,-3.3752,-3.3786,-1.4088,-1.4088,-1.4088,-1.4088,-1.4088,-1.4088,-1.4088,0.0,0.0,0.0,-1.4088,-1.4088,-1.4088,0.0,0.0,0.0,0.0,0.0,0.0,0.0,0.0,0.0,0.0,0.0,0.0,0.0,0.0,0.0,0.0,0.0,0.0,0.0,0.0,0.0,0.0,0.0,-1.6906,-1.6906,-1.7079,-1.7423,-1.7016,-1.676,-1.6691,-1.598,-1.5576,-1.541,-1.541,-1.5654,-1.6093,-1.6552,-1.6715,-1.6715,-1.6715,-1.6443,-1.6065,-1.6065,-1.6065,-1.6065,-1.6065,-1.6368,-1.6715,-1.6715,-1.6715,-1.6715,-1.6715,-1.6715,-1.6758,-1.6949,-1.723,-1.7538,-1.7988,-1.8486,-1.9046,-1.9811,-2.0397,-2.0868,-2.1239,-2.211,-2.2894,-2.3225,-2.3699,-2.4124,-2.4439,-2.4456,-2.4557,-2.4922,-2.5203,-2.5563,-2.6014,-2.6068,-2.6361,-2.7191,-2.7268,-2.753,-2.8194,-2.8242,-2.8473,-2.8996,-2.9042,-2.9702,-3.1221,-3.1499,-3.1753,-3.1968,-3.2144,-3.2213,-3.2213,-3.2697,-3.2921,-3.2937,-3.3166,-3.3284,-1.4088,-1.4088,-1.4088,-1.4088,-1.4088,0.0,-1.4088,-1.3997,-1.3955,-1.4088,0.0,-1.4088,0.0,0.0,0.0,0.0,0.0,0.0,0.0,0.0,0.0,0.0,0.0,0.0,0.0,0.0,0.0,0.0,0.0,0.0,0.0,0.0,0.0,0.0,0.0,0.0,-1.5199,-1.5199,-1.5623,0.0,-1.6052,-1.6092,-1.6631,-1.6258,-1.5849,-1.541,-1.541,-1.541,-1.541,-1.541,-1.541,-1.541,-1.541,-1.541,-1.541,-1.541,-1.541,-1.541,-1.541,-1.541,-1.541,-1.541,-1.541,-1.542,-1.5459,-1.5469,-1.5566,-1.6026,-1.6628,-1.723,-1.7657,-1.8613,-1.9388,-1.8931,-1.9296,-1.9989,-2.0796,-2.1398,-2.2002,-2.272,-2.2279,-2.2002,-2.2763,-2.2809,-2.3072,-2.3946,-2.4654,-2.5134,-2.5287,-2.5287,-2.5315,-2.5398,-2.5398,-2.5673,-2.6336,-2.6457,-2.6979,-2.8134,-2.8295,-2.8551,-2.9102,-2.9832,-3.0477,-3.1035,-3.1397,-3.1571,-3.1571,-3.2057,-3.2298,-3.2366,-3.24,-3.245,-1.4088,-1.4088,-1.4088,-1.4088,-1.4088,-1.4088,-1.4088,-1.3379,-1.2942,-1.3906,-1.4088,0.0,0.0,0.0,0.0,0.0,0.0,0.0,0.0,0.0,0.0,0.0,0.0,0.0,0.0,0.0,0.0,0.0,0.0,0.0,0.0,0.0,0.0,0.0,0.0,-1.5199,-1.5199,-1.5199,-1.5305,0.0,-1.5397,-1.5609,-1.6083,-1.6095,-1.5849,-1.541,-1.541,-1.541,-1.541,-1.541,-1.541,-1.541,-1.541,-1.541,-1.541,-1.541,-1.541,-1.541,-1.541,-1.541,-1.541,-1.541,-1.541,-1.5478,-1.585,-1.5948,-1.6046,-1.6465,-1.6686,-1.69,-1.7377,-1.7676,-1.7936,-1.8154,-1.9328,-2.0454,-2.0656,-2.0799,-2.0942,-2.1101,-2.1005,-2.0942,-2.1101,-2.1121,-2.1393,-2.2286,-2.2561,-2.3122,-2.4366,-2.4538,-2.4766,-2.5342,-2.5398,-2.5453,-2.5618,-2.6176,-2.639,-2.6079,-2.6599,-2.6946,-2.6982,-2.8654,-2.9651,-2.9783,-2.9881,-2.9908,-2.9908,-3.0323,-3.0771,-3.1244,-3.1616,-3.2056,-1.4088,-1.4088,-1.3955,-1.3379,0.0,-1.2431,-1.2431,-1.1949,-1.1643,-1.2297,0.0,0.0,0.0,0.0,0.0,0.0,0.0,0.0,0.0,0.0,0.0,0.0,0.0,0.0,0.0,0.0,0.0,0.0,0.0,0.0,0.0,0.0,0.0,0.0,-1.3804,-1.3803,-1.3803,-1.3803,-1.4027,-1.4494,-1.4494,-1.4755,-1.5255,-1.5819,-1.5644,-1.4839,-1.5226,-1.4954,-1.4271,-1.4684,-1.4839,-1.4839,-1.4839,-1.5071,-1.541,-1.541,-1.5167,-1.4874,-1.5264,-1.5147,-1.4843,-1.501,-1.5046,-1.506,-1.5065,-1.5372,-1.5811,-1.6201,-1.6666,-1.7148,-1.7578,-1.7686,-1.7734,-1.7959,-1.8687,-1.9464,-1.9879,-1.9977,-2.0107,-2.0526,-2.0268,-2.0107,-2.0526,-2.059,-2.0751,-2.1207,-2.127,-2.1573,-2.2415,-2.2537,-2.2827,-2.3644,-2.3719,-2.4024,-2.4809,-2.5231,-2.5425,-2.5398,-2.5755,-2.5945,-2.5874,-2.6913,-2.7914,-2.8856,-2.9216,-2.9406,-2.9406,-2.9614,-2.9869,-3.0182,-3.0442,-3.0723,-1.3864,-1.3646,-1.3258,-1.2242,-1.1295,0.0,-1.0611,-1.0438,-1.0313,0.0,0.0,0.0,0.0,0.0,0.0,0.0,0.0,0.0,0.0,0.0,0.0,0.0,0.0,0.0,0.0,0.0,0.0,0.0,0.0,0.0,0.0,0.0,-1.2305,-1.2305,-1.2305,-1.2305,-1.2305,-1.2305,-1.2696,-1.3455,-1.3637,-1.3887,-1.4286,-1.5357,-1.5191,-1.4085,-1.472,-1.4236,-1.3058,-1.3703,-1.4001,-1.3994,-1.3988,-1.4401,-1.4991,-1.4991,-1.4569,-1.4094,-1.4746,-1.4586,-1.4125,-1.4391,-1.451,-1.4507,-1.4139,-1.4536,-1.5239,-1.5652,-1.6367,-1.7116,-1.7425,-1.751,-1.751,-1.751,-1.751,-1.7774,-1.8657,-1.8824,-1.9046,-1.9759,-1.9453,-1.9299,-2.0042,-2.0139,-2.0204,-2.0365,-2.0365,-2.043,-2.059,-2.059,-2.0878,-2.1596,-2.169,-2.2286,-2.3754,-2.4005,-2.4281,-2.4754,-2.4924,-2.4924,-2.4811,-2.4924,-2.5819,-2.7578,-2.8332,-2.8701,-2.8701,-2.8701,-2.8833,-2.9057,-2.9057,-2.9187,-1.2808,-1.1815,-1.1042,0.0,-1.0697,-1.0611,0.0,0.0,-0.9148,0.0,0.0,0.0,0.0,0.0,0.0,0.0,0.0,0.0,0.0,0.0,0.0,0.0,0.0,0.0,0.0,0.0,0.0,0.0,0.0,0.0,0.0,-1.2305,-1.2305,-1.2305,-1.2305,-1.2305,-1.2305,-1.2305,-1.2372,-1.2482,-1.331,-1.3538,-1.3329,-1.4274,-1.4287,-1.3511,-1.3369,-1.3196,-1.2998,-1.3108,-1.3178,-1.315,-1.3172,-1.3241,-1.3312,-1.3312,-1.3243,-1.3191,-1.3282,-1.3392,-1.3502,-1.3552,-1.3752,-1.4049,-1.4335,-1.451,-1.4687,-1.5156,-1.5406,-1.5528,-1.5579,-1.5552,-1.5552,-1.5552,-1.5552,-1.5834,-1.6766,-1.6973,-1.6973,-1.7101,-1.7687,-1.8202,-1.8337,-1.8337,-1.8586,-1.9365,-1.9464,-1.9759,-2.0494,-2.059,-2.0655,-2.0751,-2.0782,-2.1164,-2.2144,-2.2797,-2.2935,-2.2408,-2.2965,-2.3012,-2.2378,-2.2995,-2.3797,-2.4825,-2.5563,-2.593,-2.593,-2.593,-2.6527,-2.7684,-2.7684,-2.8283,-1.1686,-1.0524,-0.9666,0.0,-0.9139,-0.8659,-0.8659,0.0,0.0,0.0,0.0,0.0,0.0,0.0,0.0,0.0,0.0,0.0,0.0,0.0,0.0,0.0,0.0,0.0,0.0,0.0,0.0,0.0,0.0,0.0,-1.1428,-1.1996,-1.2305,-1.2305,-1.2305,-1.2305,-1.2305,-1.2305,-1.2305,-1.2305,-1.2732,-1.2809,-1.2647,-1.2935,-1.3036,-1.3003,-1.3169,-1.2705,-1.1894,-1.2217,-1.2327,-1.2336,-1.2321,-1.2613,-1.3033,-1.317,-1.2923,-1.2641,-1.3283,-1.33,-1.3041,-1.3194,-1.333,-1.3447,-1.3318,-1.3628,-1.4084,-1.4303,-1.4772,-1.5199,-1.5199,-1.5199,-1.5199,-1.5199,-1.4772,-1.445,-1.4871,-1.5403,-1.5965,-1.6498,-1.6922,-1.7389,-1.7906,-1.8008,-1.8144,-1.8529,-1.8553,-1.8721,-1.9077,-1.9144,-1.9332,-1.9814,-1.9879,-2.0236,-2.1112,-2.1487,-2.1506,-2.1195,-2.1475,-2.1506,-2.1207,-2.1475,-2.2065,-2.2937,-2.4555,-2.5398,-2.5398,-2.5398,-2.57,-2.6277,-2.6277,-2.6828,-1.0826,-0.9531,-0.8452,-0.8452,-0.7753,-0.7095,0.0,0.0,0.0,0.0,0.0,0.0,0.0,0.0,0.0,0.0,0.0,0.0,0.0,0.0,0.0,0.0,0.0,0.0,0.0,0.0,0.0,0.0,0.0,0.0,-1.0415,-1.1354,-1.1909,-1.1927,-1.2174,-1.2305,-1.2305,-1.2305,-1.2305,-1.2305,-1.2305,-1.2305,-1.2298,-1.2094,-1.2235,-1.2613,-1.2812,-1.2204,-1.1118,-1.1544,-1.1699,-1.1707,-1.1686,-1.2064,-1.2625,-1.2811,-1.2515,-1.2127,-1.2969,-1.292,-1.2535,-1.2739,-1.2834,-1.2835,-1.2414,-1.2806,-1.3346,-1.3346,-1.3882,-1.445,-1.445,-1.445,-1.445,-1.445,-1.3882,-1.3419,-1.3637,-1.4271,-1.5092,-1.607,-1.6245,-1.6463,-1.7182,-1.7295,-1.7295,-1.7295,-1.7426,-1.747,-1.7304,-1.7426,-1.7701,-1.821,-1.8479,-1.8969,-1.9836,-2.0128,-2.0268,-2.0268,-2.0268,-2.0268,-2.0268,-2.0268,-2.0687,-2.1553,-2.3293,-2.4385,-2.4809,-2.4809,-2.4922,-2.5119,-2.5119,-2.5508,-1.0611,-0.8921,0.0,-0.7183,-0.7139,-0.7095,0.0,0.0,0.0,0.0,0.0,0.0,0.0,0.0,0.0,0.0,0.0,0.0,0.0,0.0,0.0,0.0,0.0,0.0,0.0,0.0,0.0,0.0,0.0,0.0,-0.9334,-1.034,-1.0865,-1.0862,-1.1803,-1.2305,-1.2305,-1.2305,-1.2305,-1.2305,-1.2305,-1.2305,-1.2305,-1.2298,-1.2301,-1.229,-1.1732,-1.1449,-1.1369,-1.1394,-1.1404,-1.1403,-1.1424,-1.1461,-1.1478,-1.1492,-1.1464,-1.1437,-1.1519,-1.1714,-1.1957,-1.197,-1.2123,-1.2352,-1.2298,-1.2342,-1.2372,-1.2372,-1.2409,-1.2445,-1.2445,-1.2445,-1.2445,-1.2445,-1.2409,-1.2629,-1.3528,-1.3745,-1.4063,-1.5092,-1.5269,-1.5305,-1.534,-1.534,-1.534,-1.534,-1.5822,-1.599,-1.5428,-1.5858,-1.599,-1.5455,-1.621,-1.7092,-1.7962,-1.8859,-1.9365,-1.9365,-1.9365,-1.9365,-1.9365,-1.9365,-1.9792,-2.0655,-2.0771,-2.1624,-2.3215,-2.3215,-2.3619,-2.435,-2.435,-2.4766,-0.9705,0.0,0.0,-0.7095,-0.7095,-0.7095,-0.7095,0.0,0.0,0.0,0.0,0.0,0.0,0.0,0.0,0.0,0.0,0.0,0.0,0.0,0.0,0.0,0.0,0.0,0.0,0.0,0.0,0.0,0.0,0.0,-0.8313,-0.9291,-1.0142,-1.0785,-1.1138,-1.1636,-1.2298,-1.2305,-1.2305,-1.2305,-1.2305,-1.2305,-1.2305,-1.2305,-1.2305,-1.2285,-1.2062,-1.1879,-1.171,-1.1478,-1.1382,-1.1388,-1.1412,-1.1403,-1.1415,-1.1637,-1.171,-1.1737,-1.1924,-1.2058,-1.2144,-1.2144,-1.2218,-1.2305,-1.2305,-1.2305,-1.2305,-1.2305,-1.1842,-1.1354,-1.1354,-1.1354,-1.1502,-1.215,-1.2305,-1.2372,-1.2739,-1.2806,-1.3098,-1.4063,-1.4243,-1.445,-1.5092,-1.5199,-1.533,-1.5716,-1.5945,-1.5892,-1.5286,-1.5374,-1.5453,-1.5234,-1.5124,-1.5843,-1.7787,-1.7735,-1.7804,-1.8428,-1.8462,-1.8462,-1.8462,-1.8462,-1.8877,-1.9759,-1.9759,-2.0611,-2.2322,-2.2322,-2.2738,-2.3543,-2.3543,-2.3653,-0.9666,0.0,0.0,0.0,0.0,-0.7085,-0.7038,0.0,0.0,0.0,0.0,0.0,0.0,0.0,0.0,0.0,0.0,0.0,0.0,0.0,0.0,0.0,0.0,0.0,0.0,0.0,0.0,0.0,0.0,0.0,-0.7288,-0.8237,-0.9405,-1.0746,-1.1137,-1.1625,-1.2298,-1.2305,-1.2305,-1.2298,-1.1848,-1.1848,-1.2268,-1.1589,-1.149,-1.1782,-1.1453,-1.1576,-1.2013,-1.1803,-1.1698,-1.1712,-1.1712,-1.1717,-1.1744,-1.1944,-1.2011,-1.2044,-1.2231,-1.2305,-1.2305,-1.2305,-1.2305,-1.2224,-1.1885,-1.1805,-1.1737,-1.1397,-1.0795,-1.0303,-1.0303,-1.0303,-1.0565,-1.1545,-1.1805,-1.1885,-1.2224,-1.2305,-1.2482,-1.3091,-1.3237,-1.3455,-1.4127,-1.4235,-1.4366,-1.4753,-1.4832,-1.4665,-1.4279,-1.4235,-1.4235,-1.4235,-1.3841,-1.4261,-1.5929,-1.6692,-1.7345,-1.7959,-1.8003,-1.8008,-1.8008,-1.8008,-1.8269,-1.8854,-1.8844,-1.9595,-2.1037,-2.1333,-2.1741,-2.2267,-2.2267,-2.2243,0.0,0.0,0.0,0.0,0.0,0.0,0.0,0.0,0.0,0.0,0.0,0.0,0.0,0.0,0.0,0.0,0.0,0.0,0.0,0.0,0.0,0.0,0.0,0.0,0.0,0.0,0.0,0.0,0.0,-0.63,-0.63,-0.7253,-0.8685,-1.0634,-1.1695,-1.2236,-1.2231,-1.2274,-1.2274,-1.2187,-1.0875,-1.0944,-1.2114,-1.0196,-0.983,-1.0691,-0.9706,-1.0426,-1.2224,-1.2224,-1.2224,-1.2224,-1.2224,-1.2261,-1.2261,-1.2298,-1.2268,-1.2261,-1.2261,-1.2224,-1.2224,-1.2224,-1.2224,-1.204,-1.105,-1.0746,-1.0559,-0.9561,-0.9263,-0.9258,-0.9258,-0.9258,-0.9523,-1.0527,-1.0789,-1.105,-1.2083,-1.2311,-1.2311,-1.2305,-1.2305,-1.2305,-1.2305,-1.2305,-1.2305,-1.2305,-1.2305,-1.2305,-1.2305,-1.2305,-1.2305,-1.2305,-1.2301,-1.2292,-1.2292,-1.57,-1.7871,-1.795,-1.7934,-1.794,-1.7974,-1.7974,-1.7974,-1.8008,-1.8008,-1.8428,-1.9276,-2.0139,-2.059,-2.0634,-2.0602,-2.0602,-1.0611,0.0,0.0,0.0,0.0,0.0,0.0,0.0,0.0,0.0,0.0,0.0,0.0,0.0,0.0,0.0,0.0,0.0,0.0,0.0,0.0,0.0,0.0,0.0,0.0,0.0,0.0,0.0,-0.63,-0.63,-0.63,-0.7253,-0.8046,-0.8609,-0.9609,-1.0353,-1.0859,-1.1821,-1.1571,-1.0126,-0.975,-0.9502,-0.9396,-0.9319,-0.9458,-0.9706,-0.942,-0.9599,-1.0126,-1.0116,-1.0148,-1.0201,-1.0938,-1.1199,-1.1316,-1.2033,-1.1842,-1.1199,-1.1199,-1.0757,-1.0126,-1.0126,-1.0126,-1.0083,-0.9782,-0.9707,-0.9669,-0.9372,-0.877,-0.8199,-0.8199,-0.8199,-0.8585,-1.0095,-1.044,-1.077,-1.2035,-1.2287,-1.2285,-1.2288,-1.2314,-1.2304,-1.2311,-1.2314,-1.2297,-1.2311,-1.2305,-1.2305,-1.2305,-1.2305,-1.2305,-1.2305,-1.2308,-1.2284,-1.2299,-1.3273,-1.4668,-1.6519,-1.6228,-1.6298,-1.6957,-1.6991,-1.732,-1.7974,-1.8008,-1.811,-1.8361,-1.9243,-2.0172,-2.1168,-2.0762,-2.0597,-1.074,-0.9208,0.0,0.0,0.0,0.0,-0.6641,-0.6607,0.0,0.0,0.0,0.0,0.0,0.0,0.0,0.0,0.0,0.0,0.0,0.0,0.0,0.0,0.0,0.0,0.0,0.0,0.0,0.0,-0.63,-0.63,-0.63,-0.6872,-0.7365,-0.7783,-0.8351,-0.8922,-0.9458,-1.0236,-0.9749,-0.8052,-0.8036,-0.7837,-0.7496,-0.7863,-0.8275,-0.8651,-0.8237,-0.8046,-0.805,-0.8068,-0.8556,-0.9372,-0.9927,-1.0153,-1.0265,-1.0832,-1.0683,-1.0153,-1.0153,-0.9782,-0.9296,-0.9296,-0.9296,-0.9221,-0.8803,-0.8694,-0.858,-0.8161,-0.7633,-0.7176,-0.7176,-0.7176,-0.7561,-0.9113,-0.9018,-0.9294,-1.1784,-1.229,-1.2295,-1.2296,-1.2315,-1.204,-1.1192,-1.1733,-1.23,-1.2291,-1.2288,-1.2305,-1.2305,-1.2305,-1.2305,-1.2305,-1.2305,-1.2308,-1.2307,-1.229,-1.2942,-1.4434,-1.495,-1.5446,-1.6,-1.6755,-1.7448,-1.7988,-1.8012,-1.8018,-1.8008,-1.8496,-1.9185,-1.9965,-1.9665,-1.9523,-1.1,-0.9734,-0.8362,0.0,0.0,0.0,-0.6521,-0.6491,-0.6453,0.0,0.0,0.0,0.0,0.0,0.0,0.0,0.0,0.0,0.0,0.0,0.0,0.0,0.0,0.0,0.0,-0.63,-0.63,-0.63,-0.63,-0.63,-0.63,-0.63,-0.6718,-0.7591,-0.7629,-0.7766,-0.8074,-0.8074,-0.7475,-0.6291,-0.6294,-0.6294,-0.6294,-0.63,-0.6795,-0.7595,-0.6683,-0.63,-0.63,-0.63,-0.7365,-0.8998,-0.9074,-0.9145,-0.9145,-0.9258,-0.9221,-0.9145,-0.9145,-0.9069,-0.8955,-0.8955,-0.8955,-0.8803,-0.7897,-0.7629,-0.7442,-0.6567,-0.63,-0.63,-0.63,-0.63,-0.6609,-0.7804,-0.7149,-0.7294,-1.0857,-1.1639,-1.1639,-1.1639,-1.1632,-1.1073,-0.9263,-1.046,-1.1802,-1.2239,-1.2291,-1.2311,-1.2305,-1.2305,-1.2305,-1.2305,-1.2305,-1.2305,-1.2305,-1.2307,-1.2313,-1.2313,-1.3914,-1.4871,-1.489,-1.6466,-1.7478,-1.7678,-1.7871,-1.8012,-1.8008,-1.8008,-1.8008,-1.8008,-1.8008,-1.8008,0.0,0.0,0.0,0.0,0.0,0.0,-0.6375,-0.634,-0.6334,0.0,0.0,0.0,0.0,0.0,0.0,0.0,0.0,0.0,0.0,0.0,0.0,0.0,0.0,0.0,0.0,-0.63,-0.63,-0.63,-0.63,-0.63,-0.63,-0.63,-0.6377,-0.6606,-0.6606,-0.6641,-0.671,-0.671,-0.6549,-0.6311,-0.6282,-0.6318,-0.6311,-0.6289,-0.6412,-0.6567,-0.6377,-0.63,-0.63,-0.63,-0.6528,-0.6984,-0.7783,-0.8084,-0.8199,-0.8993,-0.8808,-0.8084,-0.8084,-0.7553,-0.6868,-0.6868,-0.6868,-0.6834,-0.6644,-0.6606,-0.6567,-0.6338,-0.63,-0.63,-0.63,-0.63,-0.6377,-0.6644,-0.6486,-0.6521,-0.7316,-0.747,-0.747,-0.747,-0.7476,-0.7351,-0.695,-0.7205,-0.8585,-1.1802,-1.2307,-1.2304,-1.2311,-1.2305,-1.2305,-1.2305,-1.2305,-1.2305,-1.2305,-1.2315,-1.2301,-1.2301,-1.2645,-1.2866,-1.2862,-1.323,-1.4153,-1.57,-1.723,-1.8012,-1.8008,-1.8008,-1.8008,-1.8008,-1.8008,-1.8008,0.0,0.0,0.0,-0.8149,0.0,0.0,0.0,-0.63,-0.63,0.0,0.0,0.0,0.0,0.0,0.0,0.0,0.0,0.0,0.0,0.0,0.0,0.0,0.0,0.0,0.0,-0.5983,-0.63,-0.63,-0.63,-0.63,-0.63,-0.63,-0.63,-0.63,-0.63,-0.63,-0.63,-0.63,-0.63,-0.63,-0.63,-0.63,-0.63,-0.63,-0.63,-0.63,-0.63,-0.63,-0.63,-0.63,-0.63,-0.6338,-0.6872,-0.7061,-0.7099,-0.7629,-0.748,-0.7061,-0.7061,-0.6718,-0.63,-0.63,-0.63,-0.63,-0.63,-0.63,-0.63,-0.63,-0.63,-0.63,-0.63,-0.63,-0.63,-0.63,-0.63,-0.63,-0.63,-0.63,-0.63,-0.63,-0.6318,-0.6297,-0.6311,-0.6308,-0.716,-0.9663,-1.0761,-1.1552,-1.2216,-1.2288,-1.2305,-1.2305,-1.2305,-1.2305,-1.2305,-1.2305,-1.2305,-1.2305,-1.2305,-1.2308,-1.2284,-1.2314,-1.2774,-1.3733,-1.6546,-1.8017,-1.8007,-1.8007,-1.7993,-1.8008,-1.8008,-1.8008,0.0,0.0,0.0,0.0,0.0,-0.6606,0.0,0.0,0.0,-0.63,0.0,0.0,0.0,0.0,0.0,0.0,0.0,0.0,0.0,0.0,0.0,0.0,0.0,0.0,0.0,-0.5473,-0.6064,-0.63,-0.6103,-0.6103,-0.63,-0.63,-0.63,-0.63,-0.63,-0.63,-0.63,-0.63,-0.63,-0.63,-0.63,-0.63,-0.63,-0.63,-0.63,-0.63,-0.63,-0.63,-0.63,-0.63,-0.63,-0.63,-0.63,-0.63,-0.63,-0.63,-0.63,-0.63,-0.63,-0.63,-0.63,-0.63,-0.63,-0.63,-0.63,-0.63,-0.63,-0.63,-0.63,-0.63,-0.63,-0.63,-0.63,-0.63,-0.63,-0.63,-0.63,-0.63,-0.63,-0.63,-0.63,-0.63,-0.63,-0.6307,-0.6636,-0.7663,-0.8969,-1.0415,-1.2076,-1.2297,-1.2281,-1.2305,-1.2305,-1.2305,-1.2305,-1.2305,-1.2305,-1.2305,-1.2305,-1.2305,-1.2305,-1.2305,-1.2311,-1.2292,-1.5312,-1.6909,-1.6894,-1.729,-1.7653,-1.8008,-1.8008,-1.8008,0.0,0.0,0.0,0.0,-0.9036,0.0,0.0,0.0,-0.63,-0.63,0.0,0.0,0.0,0.0,0.0,0.0,0.0,0.0,0.0,0.0,0.0,0.0,0.0,0.0,0.0,0.0,-0.5276,-0.6219,-0.5434,-0.5315,-0.6261,-0.63,-0.63,-0.63,-0.63,-0.63,-0.63,-0.63,-0.63,-0.63,-0.63,-0.63,-0.63,-0.63,-0.63,-0.63,-0.63,-0.63,-0.63,-0.63,-0.63,-0.63,-0.63,-0.63,-0.63,-0.63,-0.63,-0.63,-0.63,-0.63,-0.63,-0.63,-0.63,-0.63,-0.63,-0.63,-0.63,-0.63,-0.63,-0.63,-0.63,-0.63,-0.63,-0.63,-0.63,-0.63,-0.63,-0.63,-0.63,-0.63,-0.63,-0.63,-0.63,-0.6293,-0.6637,-0.7629,-0.797,-0.9122,-1.1927,-1.2307,-1.2311,-1.2311,-1.2305,-1.2305,-1.2305,-1.2305,-1.2305,-1.2305,-1.2305,-1.2305,-1.2305,-1.2305,-1.2311,-1.2292,-1.2725,-1.2956,-1.2933,-1.4687,-1.635,-1.8008,-1.8008,-1.8008,0.0,0.0,0.0,0.0,0.0,0.0,-0.8656,0.0,-0.7176,0.0,0.0,0.0,0.0,0.0,0.0,0.0,0.0,0.0,0.0,0.0,0.0,0.0,0.0,0.0,0.0,0.0,0.0,0.0,0.0,-0.5157,-0.6257,-0.63,-0.63,-0.63,-0.63,-0.63,-0.63,-0.63,-0.63,-0.63,-0.63,-0.63,-0.63,-0.63,-0.63,-0.63,-0.63,-0.63,-0.63,-0.6306,-0.631,-0.631,-0.6317,-0.6313,-0.63,-0.63,-0.63,-0.63,-0.63,-0.6306,-0.631,-0.631,-0.6306,-0.63,-0.63,-0.63,-0.63,-0.63,-0.63,-0.63,-0.63,-0.63,-0.63,-0.63,-0.63,-0.63,-0.63,-0.63,-0.63,-0.63,-0.63,-0.63,-0.63,-0.63,-0.6451,-0.6872,-0.7442,-0.847,-1.0315,-1.1571,-1.2287,-1.2311,-1.2305,-1.2305,-1.2305,-1.2305,-1.2305,-1.2305,-1.2305,-1.2305,-1.2305,-1.2305,-1.2315,-1.2298,-1.2298,-1.2297,-1.2305,-1.3129,-1.3915,-1.4735,-1.6975,-1.8003,-1.2543,0.0,0.0,0.0,0.0,0.0,0.0,0.0,0.0,0.0,0.0,0.0,0.0,0.0,0.0,0.0,0.0,0.0,0.0,0.0,0.0,0.0,0.0,0.0,0.0,0.0,0.0,0.0,-0.4688,-0.4727,-0.5786,-0.6141,-0.63,-0.63,-0.63,-0.63,-0.63,-0.63,-0.63,-0.63,-0.63,-0.63,-0.63,-0.63,-0.5983,-0.5467,-0.6025,-0.5948,-0.5473,-0.6038,-0.5964,-0.5404,-0.5413,-0.5407,-0.5512,-0.607,-0.631,-0.631,-0.631,-0.5915,-0.5524,-0.6122,-0.6313,-0.6306,-0.6306,-0.6303,-0.63,-0.63,-0.63,-0.63,-0.63,-0.63,-0.63,-0.63,-0.63,-0.63,-0.63,-0.63,-0.63,-0.63,-0.63,-0.63,-0.63,-0.63,-0.63,-0.63,-0.6907,-0.7744,-0.8765,-1.0391,-1.1702,-1.2227,-1.2318,-1.2305,-1.2305,-1.2305,-1.2305,-1.2305,-1.2305,-1.2305,-1.2305,-1.2305,-1.2305,-1.2305,-1.2305,-1.2295,-1.2303,-1.2303,-1.243,-1.2749,-1.5624,-1.7153,0.0,0.0,0.0,-1.2261,0.0,0.0,0.0,0.0,-0.896,0.0,0.0,0.0,0.0,0.0,-0.6261,-0.6261,0.0,0.0,0.0,0.0,0.0,0.0,0.0,0.0,0.0,0.0,0.0,-0.3124,-0.3163,-0.3632,-0.4686,-0.5747,-0.63,-0.63,-0.63,-0.63,-0.63,-0.63,-0.63,-0.63,-0.63,-0.63,-0.63,-0.63,-0.5154,-0.3311,-0.5401,-0.5126,-0.3357,-0.5455,-0.5057,-0.3202,-0.3202,-0.3202,-0.3437,-0.5533,-0.6295,-0.6295,-0.6295,-0.4937,-0.3556,-0.5613,-0.6288,-0.6317,-0.6317,-0.631,-0.63,-0.63,-0.63,-0.63,-0.63,-0.63,-0.63,-0.63,-0.63,-0.63,-0.63,-0.63,-0.63,-0.63,-0.63,-0.63,-0.63,-0.63,-0.63,-0.63,-0.6338,-0.6718,-0.7706,-0.877,-1.0154,-1.2076,-1.2314,-1.2305,-1.2305,-1.2305,-1.2305,-1.2305,-1.2305,-1.2305,-1.2305,-1.2305,-1.2305,-1.2305,-1.2305,-1.2298,-1.2298,-1.2298,-1.2762,-1.3658,-1.4091,-1.4988,0.0,0.0,-1.2305,-1.2305,0.0,0.0,0.0,0.0,0.0,0.0,0.0,0.0,0.0,0.0,-0.7061,-0.6412,-0.5983,0.0,0.0,0.0,0.0,0.0,0.0,0.0,0.0,0.0,0.0,-0.3007,-0.2501,-0.2542,0.0,-0.3982,-0.4178,-0.4178,-0.4882,-0.4882,-0.4178,-0.4882,-0.4882,-0.4178,-0.4178,-0.4178,-0.4217,-0.4691,-0.4494,-0.3748,-0.2611,-0.1714,-0.1091,-0.1837,-0.1721,-0.1056,-0.1057,-0.1058,-0.1292,-0.3404,-0.4185,-0.4384,-0.5791,-0.5827,-0.4859,-0.2818,-0.2148,-0.265,-0.5452,-0.6288,-0.6285,-0.6285,-0.6317,-0.6313,-0.6313,-0.6306,-0.63,-0.63,-0.63,-0.63,-0.63,-0.63,-0.63,-0.63,-0.63,-0.63,-0.63,-0.63,-0.63,-0.63,-0.63,-0.6679,-0.7668,-0.8084,-0.8813,-1.0154,-1.0919,-1.1564,-1.223,-1.2294,-1.2305,-1.2305,-1.2305,-1.2305,-1.2305,-1.2305,-1.2305,-1.2305,-1.2305,-1.2305,-1.2305,-1.2305,-1.2445,-1.2769,-1.2873,-1.3865,-1.389,-1.3025,0.0,-1.2305,-1.2305,0.0,-1.2305,0.0,0.0,0.0,0.0,0.0,0.0,0.0,0.0,-0.6945,-0.6528,-0.5944,0.0,-0.2893,0.0,0.0,0.0,0.0,0.0,0.0,-0.1293,-0.1955,-0.1761,-0.188,0.0,0.0,-0.3085,-0.3085,-0.3787,-0.3787,-0.3124,-0.3787,-0.3787,-0.3085,-0.3085,-0.3085,-0.3124,-0.3595,-0.3599,-0.3169,-0.1484,-0.0468,0.0,0.0,0.0,0.0,0.0,0.0,-0.0157,-0.1487,-0.1994,-0.219,-0.3577,-0.4049,-0.3606,-0.0901,0.0,-0.0507,-0.3248,-0.4073,-0.4062,-0.4067,-0.4078,-0.4249,-0.4958,-0.5366,-0.555,-0.555,-0.5944,-0.63,-0.63,-0.63,-0.63,-0.63,-0.63,-0.63,-0.63,-0.63,-0.63,-0.63,-0.63,-0.6528,-0.7173,-0.7595,-0.8046,-0.8694,-0.9664,-1.0824,-1.2195,-1.2314,-1.2305,-1.2305,-1.2305,-1.2305,-1.2305,-1.2305,-1.2305,-1.2305,-1.2305,-1.2305,-1.2305,-1.2305,-1.2305,-1.2305,-1.2305,-1.2981]},{"header":{"parameterUnit":"m.s-1","parameterCategory":1,"la1":30.6,"la2":29.2853,"lo1":-89.7004,"lo2":-87.6739,"dy":0.0162,"dx":0.0183,"nx":112,"ny":82,"refTime":"2023-09-03T12:00:00:Z","depth":0,"parameterNumber":3,"parameterNumberName":"V-component_of_WINDS"},"data":[0.0,0.0,0.0,0.0,0.0,0.0,0.0,0.0,0.0,0.0,0.0,0.0,0.0,0.0,0.0,0.0,0.0,0.0,0.0,0.0,0.0,0.0,0.0,0.0,0.0,0.0,0.0,0.0,0.0,0.0,0.0,0.0,0.0,0.0,0.0,0.0,0.0,0.0,0.0,0.0,0.0,0.0,0.0,0.0,0.0,0.0,0.0,0.0,0.0,0.0,0.0,0.0,0.0,0.0,0.0,0.0,0.0,0.0,0.0,0.0,0.0,0.0,0.0,0.0,0.0,0.0,0.0,0.0,0.0,0.0,0.0,0.0,0.0,0.0,0.0,0.0,0.0,0.0,0.0,0.0,0.0,0.0,0.0,0.0,0.0,0.0,0.0,0.0,0.0,0.0,0.0,-0.7007,-0.7095,-0.7095,-0.7095,-0.7095,-0.7709,-0.9061,0.0,0.0,0.0,0.0,0.0,0.0,0.0,0.0,0.0,0.0,0.0,0.0,0.0,0.0,0.0,0.0,0.0,0.0,0.0,0.0,0.0,0.0,0.0,0.0,0.0,0.0,0.0,0.0,0.0,0.0,0.0,0.0,0.0,0.0,0.0,0.0,0.0,0.0,0.0,0.0,0.0,0.0,0.0,0.0,0.0,0.0,0.0,0.0,0.0,0.0,0.0,0.0,0.0,0.0,0.0,0.0,0.0,0.0,0.0,0.0,0.0,0.0,0.0,0.0,0.0,0.0,0.0,0.0,0.0,0.0,0.0,0.0,0.0,0.0,0.0,0.0,0.0,0.0,0.0,0.0,0.0,0.0,0.0,0.0,0.0,0.0,0.0,0.0,0.0,0.0,0.0,0.0,0.0,0.0,0.0,0.0,0.0,0.0,0.0,0.0,0.0,0.0,0.0,0.0,-0.6918,-0.7095,-0.7095,-0.7095,-0.7095,-0.7095,-0.8009,-1.0178,0.0,0.0,0.0,0.0,0.0,0.0,0.0,0.0,0.0,0.0,0.0,0.0,0.0,0.0,0.0,0.0,0.0,0.0,0.0,0.0,0.0,0.0,0.0,0.0,0.0,0.0,0.0,0.0,0.0,0.0,0.0,0.0,0.0,0.0,0.0,0.0,0.0,0.0,0.0,0.0,0.0,0.0,0.0,0.0,0.0,0.0,0.0,0.0,0.0,0.0,0.0,0.0,0.0,0.0,0.0,0.0,0.0,0.0,0.0,0.0,0.0,0.0,0.0,0.0,0.0,0.0,0.0,0.0,0.0,0.0,0.0,0.0,0.0,0.0,0.0,0.0,0.0,0.0,0.0,0.0,0.0,0.0,0.0,0.0,0.0,0.0,0.0,0.0,0.0,0.0,0.0,0.0,0.0,0.0,0.0,0.0,0.0,0.0,0.0,0.0,0.0,0.0,0.0,-0.6782,-0.7095,-0.7095,-0.7095,-0.7095,-0.7095,-0.7709,-0.8794,-1.0481,-1.1166,0.0,0.0,0.0,0.0,0.0,0.0,0.0,0.0,0.0,0.0,0.0,0.0,0.0,0.0,0.0,0.0,0.0,0.0,0.0,0.0,0.0,0.0,0.0,0.0,0.0,0.0,0.0,0.0,0.0,0.0,0.0,0.0,0.0,0.0,0.0,0.0,0.0,0.0,0.0,0.0,0.0,0.0,0.0,0.0,0.0,0.0,0.0,0.0,0.0,0.0,0.0,0.0,0.0,0.0,0.0,0.0,0.0,0.0,0.0,0.0,0.0,0.0,0.0,0.0,0.0,0.0,0.0,0.0,0.0,0.0,0.0,0.0,0.0,0.0,0.0,0.0,0.0,0.0,0.0,0.0,0.0,0.0,0.0,0.0,0.0,0.0,0.0,0.0,0.0,0.0,0.0,0.0,0.0,0.0,0.0,0.0,0.0,0.0,0.0,0.0,0.0,0.0,-0.7095,-0.7095,-0.7095,-0.7095,-0.7228,-0.7489,-0.8364,-0.9492,-1.0913,-1.1809,0.0,0.0,0.0,0.0,0.0,0.0,0.0,0.0,0.0,0.0,0.0,0.0,0.0,0.0,0.0,0.0,0.0,0.0,0.0,0.0,0.0,0.0,0.0,0.0,0.0,0.0,0.0,0.0,0.0,0.0,0.0,0.0,0.0,0.0,0.0,0.0,0.0,0.0,0.0,0.0,0.0,0.0,0.0,0.0,0.0,0.0,0.0,0.0,0.0,0.0,0.0,0.0,0.0,0.0,0.0,0.0,0.0,0.0,0.0,0.0,0.0,0.0,0.0,0.0,0.0,0.0,0.0,0.0,0.0,0.0,0.0,0.0,0.0,0.0,0.0,0.0,0.0,0.0,0.0,0.0,0.0,0.0,0.0,0.0,0.0,0.0,0.0,0.0,0.0,0.0,0.0,0.0,0.0,0.0,0.0,0.0,0.0,0.0,0.0,0.0,0.0,0.0,-0.7095,-0.7095,-0.7095,-0.7095,-0.7533,-0.8671,-0.8846,-0.9836,-1.2029,-1.2242,0.0,0.0,0.0,0.0,0.0,0.0,0.0,0.0,0.0,0.0,0.0,0.0,0.0,0.0,0.0,0.0,0.0,0.0,0.0,0.0,0.0,0.0,0.0,0.0,0.0,0.0,0.0,0.0,0.0,0.0,0.0,0.0,0.0,0.0,0.0,0.0,0.0,0.0,0.0,0.0,0.0,0.0,0.0,0.0,0.0,0.0,0.0,0.0,0.0,0.0,0.0,0.0,0.0,0.0,0.0,0.0,0.0,0.0,0.0,0.0,0.0,0.0,0.0,0.0,0.0,0.0,0.0,0.0,0.0,0.0,0.0,0.0,0.0,0.0,0.0,0.0,0.0,0.0,0.0,0.0,0.0,0.0,0.0,0.0,0.0,0.0,0.0,0.0,0.0,0.0,0.0,0.0,0.0,0.0,0.0,0.0,0.0,0.0,0.0,0.0,0.0,0.0,-0.7095,-0.7095,0.0,-0.7095,-0.7577,-0.8803,-0.9536,-1.0611,-1.22,0.0,0.0,0.0,0.0,0.0,0.0,0.0,0.0,0.0,0.0,0.0,0.0,0.0,0.0,0.0,0.0,0.0,0.0,0.0,0.0,0.0,0.0,0.0,0.0,0.0,0.0,0.0,0.0,0.0,0.0,0.0,0.0,0.0,0.0,0.0,0.0,0.0,0.0,0.0,0.0,0.0,0.0,0.0,0.0,0.0,0.0,0.0,0.0,0.0,0.0,0.0,0.0,0.0,0.0,0.0,0.0,0.0,0.0,0.0,0.0,0.0,0.0,0.0,0.0,0.0,0.0,0.0,0.0,0.0,0.0,0.0,0.0,0.0,0.0,0.0,0.0,0.0,0.0,0.0,0.0,0.0,0.0,0.0,0.0,0.0,0.0,0.0,0.0,0.0,0.0,0.0,0.0,0.0,0.0,0.0,0.0,0.0,0.0,0.0,0.0,0.0,0.0,-0.7095,-0.7095,-0.7095,0.0,-0.7095,-0.7753,-0.9318,-1.0139,-1.1257,-1.2766,0.0,0.0,0.0,0.0,0.0,0.0,0.0,0.0,0.0,0.0,0.0,0.0,0.0,0.0,0.0,0.0,0.0,0.0,0.0,0.0,0.0,0.0,0.0,0.0,0.0,0.0,0.0,0.0,0.0,0.0,0.0,0.0,0.0,0.0,0.0,0.0,0.0,0.0,0.0,0.0,0.0,0.0,0.0,0.0,0.0,0.0,0.0,0.0,0.0,0.0,0.0,0.0,0.0,0.0,0.0,0.0,0.0,0.0,0.0,0.0,0.0,0.0,0.0,0.0,0.0,0.0,0.0,0.0,0.0,0.0,0.0,0.0,0.0,0.0,0.0,0.0,0.0,0.0,0.0,0.0,0.0,0.0,0.0,0.0,0.0,0.0,0.0,0.0,0.0,0.0,0.0,0.0,0.0,0.0,0.0,0.0,0.0,0.0,0.0,0.0,0.0,0.0,-0.7095,-0.7095,-0.7095,-0.7095,-0.7095,-0.8053,-1.0394,-1.0611,-1.1606,0.0,0.0,0.0,0.0,0.0,0.0,0.0,0.0,0.0,0.0,0.0,0.0,0.0,0.0,0.0,0.0,0.0,0.0,0.0,0.0,0.0,0.0,0.0,0.0,0.0,0.0,0.0,0.0,0.0,0.0,0.0,0.0,0.0,0.0,0.0,0.0,0.0,0.0,0.0,0.0,0.0,0.0,0.0,0.0,0.0,0.0,0.0,0.0,0.0,0.0,0.0,0.0,0.0,0.0,0.0,0.0,0.0,0.0,0.0,0.0,0.0,0.0,0.0,0.0,0.0,0.0,0.0,0.0,0.0,0.0,0.0,0.0,0.0,0.0,0.0,0.0,0.0,0.0,0.0,0.0,0.0,0.0,0.0,0.0,0.0,0.0,0.0,0.0,0.0,0.0,0.0,0.0,0.0,0.0,0.0,0.0,0.0,0.0,0.0,0.0,0.0,0.0,0.0,-0.7095,-0.7095,-0.7095,-0.7095,-0.7841,-0.8969,-1.0481,-1.1338,-1.2467,-1.3997,0.0,0.0,0.0,0.0,0.0,0.0,0.0,0.0,0.0,0.0,0.0,0.0,0.0,0.0,0.0,0.0,0.0,0.0,0.0,0.0,0.0,0.0,0.0,0.0,0.0,0.0,0.0,0.0,0.0,0.0,0.0,0.0,0.0,0.0,0.0,0.0,0.0,0.0,0.0,0.0,0.0,0.0,0.0,0.0,0.0,0.0,0.0,0.0,0.0,0.0,0.0,0.0,0.0,0.0,0.0,0.0,0.0,0.0,0.0,0.0,0.0,0.0,0.0,0.0,0.0,0.0,0.0,0.0,0.0,0.0,0.0,0.0,0.0,0.0,0.0,0.0,0.0,0.0,0.0,0.0,0.0,0.0,0.0,0.0,0.0,0.0,0.0,0.0,0.0,0.0,0.0,0.0,0.0,0.0,0.0,0.0,0.0,0.0,0.0,0.0,0.0,0.0,-0.7095,-0.7095,-0.7095,-0.7095,-0.8189,-0.9362,-1.0481,-1.1638,-1.2808,-1.3997,0.0,0.0,0.0,0.0,0.0,0.0,0.0,0.0,0.0,0.0,0.0,0.0,0.0,0.0,0.0,0.0,0.0,0.0,0.0,0.0,0.0,0.0,0.0,0.0,0.0,0.0,0.0,0.0,0.0,0.0,0.0,0.0,0.0,0.0,0.0,0.0,0.0,0.0,0.0,0.0,0.0,0.0,0.0,0.0,0.0,0.0,0.0,0.0,0.0,0.0,0.0,0.0,0.0,0.0,0.0,0.0,0.0,0.0,0.0,0.0,0.0,0.0,0.0,0.0,0.0,0.0,0.0,0.0,0.0,0.0,0.0,0.0,0.0,0.0,0.0,0.0,0.0,0.0,0.0,0.0,0.0,0.0,0.0,0.0,0.0,0.0,0.0,0.0,0.0,0.0,0.0,0.0,0.0,0.0,0.0,0.0,0.0,0.0,0.0,0.0,0.0,0.0,-0.7095,-0.7095,-0.7095,-0.7095,-0.8277,-0.9492,-1.0524,-1.1772,-1.2942,-1.4046,0.0,0.0,0.0,0.0,0.0,0.0,0.0,0.0,0.0,0.0,0.0,0.0,0.0,0.0,0.0,0.0,0.0,0.0,0.0,0.0,0.0,0.0,0.0,0.0,0.0,0.0,0.0,0.0,0.0,0.0,0.0,0.0,0.0,0.0,0.0,0.0,0.0,0.0,0.0,0.0,0.0,0.0,0.0,0.0,0.0,0.0,0.0,0.0,0.0,0.0,0.0,0.0,0.0,0.0,0.0,0.0,0.0,0.0,0.0,0.0,0.7988,0.0,0.0,0.0,0.0,0.0,0.0,0.0,0.0,0.0,0.0,0.0,0.0,0.0,0.0,0.0,0.0,0.0,0.0,0.0,0.0,0.0,0.0,0.0,0.0,0.0,0.0,0.0,0.0,0.0,0.0,0.0,0.0,0.0,0.0,0.0,0.0,0.0,0.0,0.0,0.0,0.0,-0.7095,-0.7095,-0.7095,-0.7095,-0.8965,-1.0351,-1.0567,-1.2516,-1.3822,-1.4088,-1.4088,0.0,0.0,0.0,0.0,0.0,0.0,0.0,0.0,0.0,0.0,0.0,0.0,0.0,0.0,0.0,0.0,0.0,0.0,0.0,0.0,0.0,0.0,0.0,0.0,0.0,0.0,0.0,0.0,0.0,0.0,0.0,0.0,0.0,0.0,0.0,0.0,0.0,0.0,0.0,0.0,0.0,0.0,0.0,0.0,0.0,0.0,0.0,0.0,0.0,0.0,0.0,0.0,0.0,0.0,0.0,0.0,0.0,0.0,0.0,0.0,0.7948,0.0,0.0,0.0,0.0,0.0,0.0,0.0,0.0,0.0,0.0,0.0,0.0,0.0,0.0,0.0,0.0,0.0,0.0,0.0,0.0,0.0,0.0,0.0,0.0,0.0,0.0,0.0,0.0,0.0,0.0,0.0,0.0,0.0,0.0,0.0,0.0,0.0,0.0,0.0,0.0,-0.7095,-0.7095,-0.7095,-0.7095,-0.9179,-1.0611,-1.0611,-1.2735,-1.4088,-1.4088,-1.4088,0.0,0.0,0.0,0.0,0.0,0.0,0.0,0.0,0.0,0.0,0.0,0.0,0.0,0.0,0.0,0.0,0.0,0.0,0.0,0.0,0.0,0.0,0.0,0.0,0.0,0.0,0.0,0.0,0.0,0.0,0.0,0.0,0.0,0.0,0.0,0.0,0.0,0.0,0.0,0.0,0.0,0.0,0.0,0.0,0.0,0.0,0.0,0.0,0.0,0.0,0.0,0.0,0.0,0.7988,0.7988,0.7988,0.7988,0.7988,0.7988,0.7988,0.7917,0.7858,0.0,0.0,0.0,0.0,0.0,0.0,0.0,0.0,0.0,0.0,0.0,0.0,0.0,0.0,0.0,0.0,0.0,0.0,0.0,0.0,0.0,0.0,0.0,0.0,0.0,0.0,0.0,0.0,0.0,0.0,0.0,0.0,0.0,0.0,0.0,0.0,0.0,0.0,0.0,-0.7095,-0.7095,-0.7183,-0.7404,-0.9309,-1.0697,-1.0869,-1.2863,-1.4088,-1.4088,-1.4088,-1.4088,0.0,0.0,0.0,0.0,0.0,0.0,0.0,0.0,0.0,0.0,0.0,0.0,0.0,0.0,0.0,0.0,0.0,0.0,0.0,0.0,0.0,0.0,0.0,0.0,0.0,0.0,0.0,0.0,0.0,0.0,0.0,0.0,1.5451,1.5451,0.0,0.0,0.0,0.0,0.0,0.0,0.0,0.0,0.0,0.0,0.0,0.0,0.0,0.0,0.8019,0.8002,0.7988,0.7988,0.7988,0.7988,0.7988,0.7988,0.7988,0.7988,0.7988,0.0,0.7951,0.7889,0.0,0.0,0.0,0.0,0.0,0.0,0.0,0.0,0.0,0.0,0.0,0.0,0.0,0.0,0.0,0.0,0.0,0.0,0.0,0.0,0.0,0.0,0.0,0.0,0.0,0.0,0.0,-0.0941,-0.2459,-0.4732,0.0,0.0,0.0,0.0,0.0,0.0,0.0,0.0,-0.7095,-0.7095,-0.7489,-0.854,-0.9836,-1.0994,-1.198,-1.3336,-1.4088,-1.4088,-1.4088,-1.4088,-1.4088,-1.4088,0.0,0.0,0.0,0.0,0.0,0.0,0.0,0.0,0.0,0.0,0.0,0.0,0.0,0.0,0.0,0.0,0.0,0.0,0.0,0.0,0.0,0.0,0.0,0.0,0.0,0.0,0.0,0.0,0.0,1.5097,1.5277,1.5605,1.5611,1.5651,0.0,0.0,0.0,0.0,0.0,0.0,0.0,0.0,0.0,0.8874,0.8283,0.7988,0.7988,0.7988,0.7988,0.7988,0.7988,0.7988,0.7988,0.7988,0.7988,0.7988,0.7988,0.7988,0.7985,0.7917,0.7889,0.7804,0.0,0.0,0.0,0.0,0.0,0.7258,0.7125,0.7095,0.0,0.0,0.0,0.0,0.0,0.0,0.0,0.0,0.0,0.0,0.0,0.0,0.0,0.0,0.0,0.0,0.0,-0.0941,-0.2325,0.0,-0.4956,-0.5761,-0.6918,0.0,0.0,0.0,0.0,0.0,-0.7095,-0.7095,-0.7577,-0.8759,-0.9923,-1.108,-1.22,-1.3421,-1.4088,-1.4088,-1.4088,-1.4088,-1.4088,-1.4088,-1.4088,0.0,0.0,0.0,0.0,0.0,0.0,0.0,0.0,0.0,0.0,0.0,0.0,0.0,0.0,0.0,0.0,0.0,0.0,0.0,0.0,0.0,0.0,0.0,0.0,0.0,0.0,0.0,0.0,1.4937,1.501,1.5398,1.5438,1.5484,0.0,0.0,0.0,0.0,0.0,0.0,1.0694,0.929,0.8531,0.8531,0.8187,0.7988,0.7988,0.7988,0.7988,0.7988,0.7988,0.7988,0.7988,0.7988,0.7988,0.7988,0.7988,0.7988,0.7985,0.7948,0.7867,0.7807,0.777,0.7756,0.7729,0.7509,0.7431,0.7407,0.7251,0.72,0.7149,0.7109,0.0,0.7084,0.7084,0.0,0.0,0.0,0.0,0.0,0.0,0.0,0.0,0.0,0.0,0.0,0.0,-0.121,-0.2547,0.0,-0.4554,-0.5761,-0.6918,0.0,0.0,0.0,0.0,-0.7095,-0.7095,-0.7095,-0.7577,-0.8759,-0.9666,-1.0611,-1.1772,-1.2948,-1.3646,-1.3646,-1.3913,-1.4088,-1.4088,-1.4088,-1.4088,-1.4088,0.0,0.0,0.0,0.0,0.0,0.0,0.0,0.0,0.0,0.0,0.0,0.0,0.0,0.0,0.0,0.0,0.0,0.0,0.0,0.0,0.0,0.0,0.0,0.0,0.0,0.0,0.0,0.0,0.0,1.4583,1.5064,0.0,0.0,0.0,0.0,1.5663,1.4489,1.3759,1.3663,1.1302,0.9903,0.9903,0.8676,0.7988,0.7988,0.7988,0.7988,0.7988,0.7988,0.7988,0.7988,0.7988,0.7988,0.7988,0.7988,0.7988,0.7978,0.7882,0.7818,0.7797,0.7662,0.7611,0.7607,0.7594,0.7587,0.7567,0.7414,0.7405,0.7336,0.7142,0.7112,0.7084,0.7084,0.3798,0.0,0.0,0.0897,0.0,0.0,0.0,0.0,0.0,0.0,0.0,0.0,-0.1835,-0.3525,0.0,-0.4554,-0.5761,-0.6918,0.0,-0.7095,-0.7095,-0.7095,-0.7095,-0.7095,-0.7095,-0.7577,-0.8759,-0.8934,-0.9449,-1.0611,-1.1724,-1.237,-1.237,-1.347,-1.4088,-1.4088,-1.4088,-1.4088,-1.4088,-1.4088,0.0,0.0,0.0,0.0,0.0,0.0,0.0,0.0,0.0,0.0,0.0,0.0,0.0,0.0,0.0,0.0,0.0,0.0,0.0,0.0,0.0,0.0,0.0,0.0,0.0,0.0,0.0,0.0,1.5017,1.5104,0.0,1.5638,1.5598,1.5551,1.5551,1.4296,1.3579,1.3579,1.2106,1.1219,1.1219,0.9948,0.9266,0.9266,0.8432,0.7988,0.7988,0.7988,0.7988,0.7988,0.7988,0.7988,0.7988,0.7988,0.7988,0.7985,0.7931,0.7911,0.7904,0.7853,0.7833,0.7872,0.7773,0.7736,0.7716,0.7567,0.7455,0.7346,0.7146,0.7102,0.7112,0.7081,0.4872,0.2233,0.1878,0.0942,0.0,0.0,0.0,0.0,0.0,0.0,0.0,0.0,-0.1299,-0.2681,-0.3436,-0.5176,-0.6605,-0.7051,-0.7095,-0.7095,-0.7095,-0.7095,-0.7095,-0.7095,-0.7095,-0.7577,-0.8759,-0.889,-0.9362,-1.0481,-1.1638,-1.2215,-1.2051,-1.3112,-1.3721,-1.3534,-1.3527,-1.3527,-1.3527,-1.3527,-1.3527,0.0,0.0,0.0,0.0,0.0,0.0,0.0,0.0,0.0,0.0,0.0,0.0,0.0,0.0,0.0,0.0,0.0,0.0,0.0,0.0,0.0,0.0,0.0,0.0,0.0,0.0,1.475,1.5062,1.5017,1.5202,1.5638,1.5598,1.5538,1.5538,1.4725,1.4002,1.3573,1.2918,1.2382,1.1901,1.1072,1.0632,1.0632,0.9752,0.9312,0.9312,0.8874,0.8676,0.8676,0.8187,0.7988,0.7988,0.7988,0.7988,0.7988,0.7988,0.7988,0.7988,0.7988,0.7988,0.7978,0.7877,0.7855,0.7784,0.759,0.7421,0.7278,0.7129,0.7095,0.7098,0.7115,0.527,0.3078,0.2547,0.1254,0.0,0.0,0.0,0.0,0.0,0.0,0.0,0.0,-0.0941,-0.2142,-0.3274,-0.5151,-0.665,-0.7051,-0.7095,-0.7082,-0.7034,-0.7024,-0.7007,-0.6953,-0.695,-0.7292,-0.8064,-0.8447,-0.8952,-0.971,-1.1184,-1.1951,-1.1788,-1.2826,-1.3373,-1.322,-1.3213,-1.3213,-1.3213,-1.3213,-1.3213,-1.3213,0.0,0.0,0.0,0.0,0.0,0.0,0.0,0.0,0.0,0.0,0.0,0.0,0.0,0.0,0.0,0.0,0.0,0.0,0.0,0.0,0.0,0.0,0.0,1.5902,1.5737,1.5455,1.4663,1.4827,1.5174,1.5384,1.5665,1.5784,1.5784,1.5784,1.5242,1.4022,1.3968,1.3343,1.2042,1.1994,1.1945,1.1945,1.1896,1.1896,1.1896,1.0632,1.0047,0.9948,0.8676,0.8088,0.8088,0.8088,0.8088,0.8038,0.8035,0.8031,0.7982,0.7988,0.7985,0.7982,0.7982,0.7887,0.7763,0.7472,0.7275,0.7102,0.7098,0.7095,0.7095,0.7095,0.49,0.2585,0.339,0.1879,0.0,0.0,0.0,0.0,0.0,0.0,0.0,0.0,-0.0941,-0.2044,-0.3084,-0.4395,-0.5703,-0.6905,-0.7082,-0.7038,-0.69,-0.6879,0.0,-0.6719,-0.6702,-0.6702,-0.674,-0.7638,-0.8209,-0.8246,-1.0232,-1.1484,-1.1473,-1.2579,-1.3193,-1.318,-1.318,-1.318,-1.318,-1.318,-1.318,-1.318,0.0,0.0,0.0,0.0,0.0,0.0,0.0,0.0,0.0,0.0,0.0,0.0,0.0,0.0,0.0,0.0,0.0,0.0,0.0,0.0,0.0,0.0,1.9027,1.7131,1.6846,1.6656,1.6097,1.6111,1.6034,1.5705,1.5785,1.5784,1.5784,1.5784,1.5635,1.5289,1.5289,1.5099,1.4758,1.383,1.3343,1.3343,1.2382,1.1896,1.1896,1.1556,1.0877,0.9998,1.0583,1.0337,0.9509,1.0435,1.0288,0.9452,0.9368,0.8739,0.7885,0.7944,0.7921,0.7875,0.7875,0.7784,0.7678,0.7484,0.7437,0.7427,0.718,0.7095,0.7095,0.7095,0.49,0.2585,0.339,0.1879,0.0,0.0,0.0,0.0,0.0,0.0,0.0,0.0,-0.0263,-0.1045,-0.293,-0.3609,-0.4518,-0.6479,-0.682,-0.6807,-0.677,-0.6763,0.0,-0.6705,-0.6702,-0.6988,-0.772,-0.8045,-0.8492,-0.9222,-1.0635,-1.1403,-1.1138,-1.2234,-1.2817,-1.2559,-1.2552,-1.2552,-1.2552,-1.2552,-1.2552,0.0,0.0,0.0,0.0,0.0,0.0,0.0,0.0,0.0,0.0,0.0,0.0,0.0,0.0,0.0,0.0,0.0,0.0,0.0,0.0,0.0,0.0,2.0605,2.0157,1.8868,1.831,1.7622,1.6536,1.6505,1.6357,1.5691,1.5711,1.5784,1.5784,1.5784,1.5784,1.5784,1.5784,1.5784,1.5784,1.5092,1.4704,1.4704,1.3932,1.3547,1.3547,1.3011,1.2328,1.1643,1.1694,1.1317,0.0,1.1273,1.0986,1.0062,0.9948,0.9052,0.0,0.0,0.0,0.0,0.0,0.7674,0.7624,0.7374,0.7323,0.7351,0.717,0.7095,0.7095,0.7095,0.5484,0.3655,0.3614,0.2236,0.0628,0.0135,0.0,0.0,0.0,0.0,0.0,0.0,0.0,-0.0511,-0.2243,0.0,0.0,-0.5543,-0.6327,-0.6678,-0.6614,-0.6607,-0.6583,-0.6525,-0.6515,-0.6753,-0.7348,-0.7784,-0.8259,-0.885,-0.9951,0.0,0.0,0.0,-1.2053,-1.2305,-1.2305,0.0,0.0,0.0,-1.2305,-1.2305,0.0,0.0,0.0,-1.332,-1.3553,0.0,0.0,0.0,0.0,0.0,0.0,0.0,0.0,0.0,0.0,0.0,0.0,0.0,0.0,0.0,0.0,2.0605,2.0605,2.0605,1.9766,1.8521,1.6688,1.6616,1.6411,1.5631,1.5625,1.5732,1.5732,1.5732,1.5732,1.5732,0.0,0.0,0.0,0.0,1.5732,1.5732,1.5732,1.5732,1.5684,1.4564,1.3933,1.3778,1.2456,1.1796,1.1645,1.1585,1.111,1.0384,1.042,0.9288,0.7571,0.7643,0.767,0.7653,0.759,0.7531,0.0,0.0,0.0,0.0,0.7095,0.7095,0.7095,0.7095,0.6293,0.5179,0.4105,0.2815,0.1566,0.0492,0.009,0.0,0.0,0.0,0.0,0.0,0.0,-0.0333,-0.1382,-0.2301,-0.3323,-0.4509,-0.5783,-0.6607,-0.6508,-0.6487,-0.6443,-0.6317,-0.63,-0.6338,-0.6451,0.0,0.0,-0.8122,-0.8955,-0.9523,-0.9636,-1.049,-1.1354,-1.2261,-1.2305,-1.2305,-1.2305,-1.2305,-1.2305,-1.2305,-1.2643,-1.2804,-1.2844,-1.3113,-1.354,0.0,0.0,0.0,0.0,0.0,0.0,0.0,0.0,0.0,0.0,0.0,0.0,0.0,0.0,0.0,2.0605,2.0605,2.0605,2.0605,2.0401,1.9907,1.8865,1.8062,1.7231,1.6441,1.5618,1.513,1.513,1.513,1.513,1.513,1.513,0.0,1.513,1.513,1.513,1.513,1.513,1.513,1.513,0.0,0.0,1.321,1.395,1.3738,1.2763,1.3779,1.342,1.2099,1.2231,1.0279,0.7227,0.7503,0.7555,0.7443,0.7241,0.7187,0.7183,0.7105,0.7095,0.7095,0.7095,0.7095,0.7095,0.7095,0.6293,0.0,0.5134,0.3484,0.1739,0.149,0.0743,0.0,0.0,0.0,0.0,0.0,0.0,-0.0325,-0.1387,-0.1775,-0.2478,-0.4377,-0.5632,-0.6375,-0.6344,-0.634,-0.633,-0.6303,-0.63,-0.6606,-0.7442,-0.7668,-0.8461,-1.0072,-1.0415,-1.0864,-1.1663,-1.1885,-1.2114,-1.2298,-1.2305,-1.2305,-1.2305,-1.2305,-1.2305,-1.2305,-1.2643,-1.2911,-1.3126,-1.3387,-1.358,0.0,0.0,0.0,0.0,0.0,0.0,0.0,0.0,0.0,0.0,0.0,2.3331,0.0,0.0,2.1897,2.1375,2.1298,2.1155,2.0673,2.0605,2.0244,1.9308,1.8845,1.8029,1.65,1.603,1.5569,1.5053,1.5008,1.5008,1.5008,1.5008,1.5008,1.5008,1.5008,1.5008,1.5008,1.5008,1.5008,1.5008,1.5008,1.4636,1.4032,1.453,1.4376,1.3774,1.432,1.4111,1.338,1.3399,1.2331,1.0491,0.9513,0.8362,0.7248,0.7125,0.7095,0.7095,0.7095,0.7095,0.7095,0.7095,0.7095,0.7095,0.7095,0.6694,0.6101,0.5419,0.4001,0.2541,0.1886,0.0854,0.0,0.0,0.0,0.0,0.0,0.0,-0.0159,-0.0708,-0.1215,-0.1919,-0.2973,-0.4455,-0.567,-0.6222,-0.63,-0.63,-0.63,-0.63,-0.649,-0.6984,-0.7061,-0.7437,-0.8456,-0.8566,-0.921,-1.0689,-1.0801,-1.1248,-1.2261,-1.2305,-1.2305,-1.2305,-1.2305,-1.2305,-1.2305,-1.2759,-1.306,-1.322,-1.3661,-1.3868,0.0,0.0,0.0,0.0,0.0,0.0,0.0,0.0,2.628,2.5441,2.5158,2.4755,2.3927,2.3624,2.322,2.2403,2.214,2.1735,2.0972,2.0712,2.0284,1.9402,1.9317,1.8631,1.6844,1.6718,1.6365,1.552,1.5262,1.5137,1.5137,1.4923,1.4834,1.4834,1.4834,1.4834,1.4834,1.4834,1.4834,1.4834,1.4834,1.4834,1.4827,1.4543,1.4436,1.4422,1.4188,1.4088,1.4088,1.4088,1.3942,1.3578,1.1649,0.9662,0.7749,0.7625,0.7536,0.7404,0.7183,0.7095,0.7095,0.7095,0.7095,0.7092,0.7061,0.7055,0.6846,0.5703,0.4642,0.3553,0.2261,0.1126,0.0249,0.0041,0.0,0.0,0.0,0.0,0.0,0.0,-0.0706,-0.1372,-0.1568,-0.2973,-0.4533,-0.5786,-0.618,-0.63,-0.63,-0.63,-0.63,-0.63,-0.63,-0.6377,-0.6567,-0.6756,-0.7591,-0.9183,-0.9296,-1.0051,-1.1663,-1.1737,-1.1811,-1.1996,-1.1996,-1.2114,-1.2305,-1.2852,-1.312,-1.3133,-1.3728,-1.4035,2.8876,2.8844,2.8652,2.7769,2.7571,2.7384,0.0,0.0,2.6452,2.6349,2.5616,2.4969,2.4862,2.4108,2.3478,2.3331,2.259,2.1952,2.1849,2.1116,2.0566,2.044,1.9597,1.894,1.8692,1.7799,1.7171,1.7048,1.6141,1.5607,1.5607,1.4712,1.4188,1.4188,1.4188,1.4188,1.4188,1.4188,1.4188,1.4188,1.4188,1.4188,1.4188,1.4155,1.4135,1.4135,1.4102,1.4088,1.4088,1.4088,1.3467,1.2493,1.2211,1.1322,1.0139,0.9471,0.899,0.854,0.7492,0.7095,0.7095,0.7095,0.7095,0.7071,0.6947,0.691,0.6879,0.6599,0.5674,0.4518,0.3392,0.2279,0.1176,0.0238,0.0,0.0,0.0,0.0,0.0,0.0,-0.0079,-0.0471,-0.145,-0.1802,-0.2621,-0.4572,-0.5709,-0.63,-0.63,-0.63,-0.63,-0.63,-0.63,-0.6679,-0.7553,-0.8466,-0.9069,-0.9296,-0.9296,-0.941,-0.9636,-0.9636,-1.0045,-1.0938,-1.0975,-1.1391,-1.2305,-1.2677,-1.2837,-1.2851,-1.3414,-1.3834,2.9889,2.938,2.8907,0.0,2.846,2.8247,2.7384,2.7196,2.7061,2.6589,2.6176,2.5873,2.5873,2.5546,2.5063,0.0,2.4036,2.3331,2.2178,2.1659,2.1221,2.0673,2.0206,1.9687,1.9076,1.855,1.802,1.7342,1.6887,1.6642,1.6642,1.5621,1.5012,1.5012,1.4412,1.4088,1.4088,1.4088,1.4088,1.4088,1.4088,1.4088,1.4088,1.4088,1.4088,1.4088,1.4088,1.4088,1.4088,1.4088,1.3802,1.3334,1.3343,1.3052,1.2437,1.0761,0.9632,0.8846,0.8321,0.7709,0.7095,0.7095,0.7041,0.6964,0.6903,0.6825,0.6763,0.661,0.579,0.478,0.4267,0.2858,0.1468,0.1022,0.0471,0.0,0.0,0.0,0.0,0.0,0.0,-0.0157,-0.0588,-0.1176,-0.188,-0.2778,-0.43,-0.5354,-0.5354,-0.5906,-0.63,-0.63,-0.63,-0.6451,-0.6907,-0.7326,-0.7821,-0.8389,-0.8428,-0.8689,-0.9263,-0.9296,-0.9485,-0.9927,-1.049,-1.0714,-1.0571,-1.2062,-1.2471,-1.1902,-1.2909,-1.3547,3.0807,3.0178,0.0,2.9411,2.9348,2.9129,2.8279,2.7855,2.755,2.6939,2.6658,2.6499,2.6499,2.6499,2.6267,2.5511,2.5194,2.4492,2.3036,2.2366,2.1735,2.1088,2.075,2.0284,1.952,1.9441,1.9116,1.8261,1.7948,1.7787,1.7787,1.6723,1.6026,1.5703,1.4936,1.4412,1.4088,1.4088,1.4088,1.4088,1.4088,1.4088,1.4088,1.4088,1.4088,1.4088,1.4088,1.4088,1.4088,1.4088,1.4088,1.4088,1.4088,1.4088,1.3913,1.2169,1.0832,0.9797,0.9492,0.8547,0.7556,0.7556,0.7239,0.6858,0.6817,0.6725,0.6607,0.6497,0.5894,0.5192,0.4787,0.3597,0.2309,0.1724,0.102,0.0353,0.0079,0.0,0.0,0.0,0.0,0.0,0.0,-0.0628,-0.1176,-0.1176,-0.2932,-0.4373,-0.4647,-0.5628,-0.63,-0.63,-0.63,-0.63,-0.63,-0.63,-0.6606,-0.7326,-0.7403,-0.7706,-0.8428,-0.8466,-0.8727,-0.9296,-1.0002,-1.0308,-1.0126,-1.1828,-1.2278,-1.1516,-1.2583,-1.3193,3.1467,3.1438,3.1248,3.045,3.0269,3.0042,2.916,2.8298,2.7703,2.767,2.704,2.6499,2.6499,2.6499,2.6499,2.6452,2.5629,2.4969,2.4933,2.322,2.1989,2.1952,2.1155,2.0605,0.0,2.0557,2.0527,2.0489,1.952,1.8957,1.8957,1.7868,1.6764,1.5745,1.5662,1.5137,1.413,1.4088,1.4088,1.4088,1.4088,1.4088,1.4088,1.4088,1.4088,1.4088,1.4088,1.4088,1.4088,1.4088,1.4088,1.4088,1.4088,1.4088,1.4088,1.3997,1.3252,1.2029,1.0907,0.9705,0.8658,0.8658,0.7785,0.6678,0.6573,0.6521,0.6491,0.6347,0.6268,0.6028,0.4963,0.4647,0.4103,0.2075,0.1568,0.1254,0.0236,0.0,0.0,0.0,0.0,0.0,0.0,-0.0039,-0.0039,-0.0039,-0.18,-0.3513,-0.4569,-0.5628,-0.63,-0.63,-0.63,-0.63,-0.63,-0.63,-0.63,-0.6338,-0.6338,-0.6377,-0.6377,-0.6377,-0.7326,-0.9258,-0.9334,-1.0271,-1.2224,-1.2274,-1.2318,-1.2288,-1.2619,-1.2804,3.2891,3.2571,3.216,3.189,3.1465,3.0866,3.0042,2.9628,2.9254,2.8684,2.7887,2.7284,2.7284,2.685,2.6499,2.6499,2.6211,2.5769,2.5075,2.4409,2.3514,2.2178,2.1735,0.0,0.0,0.0,0.0,2.0605,2.0284,2.004,2.004,1.9036,1.827,1.79,1.7172,1.6601,1.6247,1.576,1.5007,1.4081,1.4119,1.4088,1.4088,1.4088,1.4088,1.4088,1.4088,1.4088,1.4088,1.4088,1.4088,1.4068,1.3868,1.3753,1.3768,1.3574,1.3251,1.277,1.1814,1.0533,0.9243,0.8586,0.8012,0.7415,0.6725,0.6446,0.6361,0.6313,0.63,0.6222,0.5867,0.5237,0.453,0.3828,0.3125,0.2501,0.215,0.1527,0.1058,0.1058,0.0471,0.0,0.0,0.0,0.0,0.0,-0.176,-0.3748,-0.555,-0.6064,-0.63,-0.63,-0.63,-0.63,-0.63,-0.63,-0.63,-0.63,-0.63,-0.63,-0.63,-0.63,-0.6606,-0.7288,-0.7974,-0.8309,-0.8304,-0.9669,-1.0314,-1.0314,-1.1109,-1.1935,3.3582,3.3287,3.296,3.296,3.2422,3.1752,3.1232,3.0704,3.0133,2.9566,2.878,2.8084,2.7769,2.7297,2.685,2.6555,2.6499,2.628,2.5629,2.5229,2.4528,2.322,2.244,2.1773,0.0,0.0,0.0,2.0605,2.0605,2.0605,2.0605,1.9962,1.9402,1.8997,1.831,1.7706,1.7302,1.6563,1.5899,1.5259,1.5251,1.5388,1.5635,1.5346,1.505,1.4684,1.4568,1.4314,1.3912,1.3837,1.3762,1.3754,1.352,1.3447,1.3427,1.328,1.314,1.3008,1.251,1.1445,1.0112,0.9471,0.8895,0.8338,0.7677,0.7449,0.7288,0.6945,0.6834,0.6756,0.6377,0.5786,0.5157,0.4805,0.4178,0.3552,0.3202,0.2579,0.203,0.1666,0.1045,0.0464,0.0077,0.0,-0.0115,-0.0497,-0.1716,-0.3179,-0.4952,-0.5473,-0.5867,-0.6261,-0.63,-0.63,-0.63,-0.63,-0.63,-0.63,-0.63,-0.63,-0.63,-0.63,-0.6451,-0.6834,-0.748,-0.7668,-0.7365,-0.8656,-0.9296,-0.9334,-0.997,-1.0732,3.371,3.3684,3.3659,3.3659,3.3145,3.2641,3.2629,3.1463,3.0419,3.0359,2.9659,2.8812,0.0,0.0,2.7451,2.6679,2.6521,2.6499,2.6499,2.5699,2.5052,0.0,0.0,0.0,0.0,0.0,0.0,2.0683,0.0,2.0605,2.0605,2.0605,2.0118,1.9116,1.9076,1.855,1.7496,1.6782,1.6766,1.7382,1.7341,1.766,1.823,1.7527,1.6679,1.5693,1.5434,1.4713,1.3713,1.3462,1.3294,1.3286,1.3272,1.3226,1.3186,1.3173,1.2979,1.2804,1.3066,1.2336,1.1254,1.1209,1.0352,0.9372,0.9334,0.9296,0.9107,0.8161,0.7859,0.7595,0.6641,0.6338,0.606,0.4993,0.4756,0.4482,0.3463,0.3189,0.286,0.193,0.1659,0.1272,0.0256,0.0036,-0.0328,-0.1382,-0.1527,-0.1885,-0.2979,-0.4007,-0.5021,-0.6041,-0.6167,-0.6209,-0.6209,-0.6257,-0.63,-0.63,-0.63,-0.63,-0.63,-0.63,-0.6756,-0.7706,-0.7706,-0.8199,-0.9145,-0.9145,-0.9183,-0.9221,-0.9221,-0.9258,3.5091,3.4728,3.4358,3.4358,3.3836,3.3209,3.2722,3.2312,3.1849,3.1321,3.0554,2.9889,0.0,0.0,0.0,2.7417,2.6871,0.0,2.6499,2.628,0.0,2.5075,0.0,2.3927,2.3184,2.2888,0.0,0.0,2.1011,2.0605,2.0605,2.0605,2.0479,2.0206,2.0196,2.004,1.9756,1.9561,1.9261,1.8785,1.7917,1.7215,1.6611,1.6434,1.6195,1.5921,1.5858,1.5675,1.5381,1.532,1.4865,1.4204,1.4012,1.3505,1.2878,1.2619,1.2485,1.2425,1.2505,1.2291,1.1883,1.1158,1.0692,1.0265,0.9518,0.9296,0.9258,0.8993,0.8389,0.7744,0.748,0.6872,0.6192,0.5771,0.5667,0.556,0.5194,0.4473,0.384,0.3597,0.2384,0.1282,0.1019,0.0437,-0.0109,-0.0364,-0.0401,-0.106,-0.2883,-0.3331,-0.3628,-0.3886,-0.4627,-0.5095,-0.5095,-0.5845,-0.63,-0.63,-0.63,-0.63,-0.63,-0.63,-0.6416,-0.6679,-0.6679,-0.6795,-0.7061,-0.7061,-0.7442,-0.8199,-0.8199,-0.858,3.56,3.5339,3.5052,3.5052,3.4544,3.3937,3.3556,3.3013,3.2492,3.2064,3.1364,3.0718,3.0359,2.9504,0.0,0.0,0.0,0.0,2.6555,2.6499,2.628,0.0,2.5264,0.0,2.4217,2.3745,2.3257,0.0,2.1783,2.1039,2.0644,2.0605,2.0605,2.0605,2.0605,2.0614,2.0592,2.0236,1.9793,1.9298,1.8518,1.7933,1.7459,1.746,1.7207,1.6731,0.0,1.6278,1.5805,1.5718,1.5359,1.4867,1.4709,1.4309,1.3844,1.3623,1.331,1.2915,1.2915,1.2622,1.2224,1.1657,1.1465,1.1354,1.0801,1.0614,1.0533,1.0083,0.9478,0.8734,0.7882,0.7151,0.6518,0.6022,0.5928,0.5908,0.582,0.5329,0.4773,0.4291,0.2968,0.1929,0.1929,0.1158,0.0562,0.0562,0.0246,-0.0423,-0.1582,-0.215,-0.2616,-0.3051,-0.364,-0.4004,-0.4004,-0.4918,-0.5554,-0.5574,-0.5965,-0.619,-0.6296,-0.63,-0.63,-0.63,-0.63,-0.63,-0.63,-0.63,-0.6606,-0.7138,-0.7138,-0.7442,3.56,3.56,3.56,3.56,3.5144,3.4712,3.4624,3.3633,3.2722,3.2614,3.2007,3.1278,3.0584,3.0359,2.9827,2.8298,0.0,2.7451,2.6748,2.6555,2.6499,2.6499,2.5734,2.5194,2.5194,2.4409,2.3843,2.3708,2.2888,2.1924,2.0828,2.0789,2.0682,2.0517,2.0566,2.0572,2.0489,1.9579,1.9132,1.9143,1.8955,1.8964,1.9132,1.9126,1.8608,1.7711,0.0,0.0,1.5913,1.5676,1.5517,1.5376,1.5376,1.5305,1.5199,1.5199,1.4665,1.389,1.389,1.3382,1.2622,1.2372,1.2305,1.2291,1.2258,1.2245,1.2048,1.1144,1.0634,0.9954,0.8253,0.7447,0.6932,0.6272,0.6019,0.5944,0.5919,0.5813,0.5454,0.4533,0.354,0.2878,0.2878,0.2108,0.1474,0.1474,0.084,0.0303,0.0202,-0.0735,-0.1727,-0.259,-0.2813,-0.289,-0.289,-0.3763,-0.4354,-0.4489,-0.5321,-0.587,-0.604,-0.6178,-0.6269,-0.6269,-0.6289,-0.63,-0.63,-0.63,-0.63,-0.63,-0.6279,-0.6269,3.56,3.56,3.56,3.56,3.5515,3.5276,3.4736,3.3987,0.0,0.0,3.2007,3.1467,3.1322,3.0748,3.0208,2.9889,2.8652,2.7637,2.7517,2.6905,2.6499,0.0,0.0,0.0,0.0,0.0,0.0,0.0,0.0,2.3672,2.1849,2.1773,2.124,2.0077,2.0383,2.0374,1.9843,1.8764,1.8225,1.8235,1.8521,1.8506,1.8242,1.8242,1.8105,1.793,0.0,0.0,1.7569,1.7545,1.7079,1.6349,1.6349,1.586,1.5199,1.5199,1.5092,1.495,1.495,1.4843,1.445,1.2806,1.2305,1.2258,1.2053,1.198,1.1891,1.1434,1.0649,0.991,0.9554,0.8297,0.7218,0.7676,0.7228,0.6672,0.6551,0.5963,0.543,0.5236,0.4431,0.3782,0.3782,0.3045,0.2444,0.2444,0.2344,0.1942,0.1174,0.0271,-0.0342,-0.0512,-0.1321,-0.1864,-0.1864,-0.2761,-0.3346,-0.3362,-0.4235,-0.4787,-0.4809,-0.5625,-0.6071,-0.6071,-0.6235,-0.63,-0.63,-0.63,-0.63,-0.6296,-0.6129,-0.6071,3.56,3.56,3.56,3.56,3.56,3.5515,3.5207,0.0,0.0,3.3261,3.2544,3.1966,3.1582,3.119,0.0,3.0359,2.9597,2.8748,2.7835,2.7384,0.0,2.6555,0.0,0.0,0.0,0.0,0.0,0.0,0.0,0.0,2.2888,2.2105,2.1554,2.1275,2.0406,1.9783,1.9487,1.8498,1.8008,1.8,1.8187,1.8203,1.8008,1.8008,1.8008,1.8008,1.8008,0.0,1.8008,1.8008,1.7716,1.732,1.732,1.7044,1.6655,1.6655,1.6199,1.5566,1.5566,1.5095,1.4362,1.3431,1.2997,1.2656,1.1864,1.1637,1.161,1.147,1.0963,1.0374,0.9928,0.9017,0.8226,0.8116,0.7792,0.7328,0.6806,0.6363,0.5943,0.5491,0.5024,0.4722,0.4722,0.3982,0.338,0.338,0.2978,0.2544,0.2075,0.1676,0.1041,0.0101,-0.0477,-0.0755,-0.0755,-0.1627,-0.2209,-0.2312,-0.3164,-0.3681,-0.377,-0.422,-0.4509,-0.4509,-0.5047,-0.5377,-0.5377,-0.583,-0.6023,-0.602,-0.5945,-0.5911,3.5644,3.56,3.56,3.56,3.56,3.56,3.56,3.5075,0.0,3.3912,3.3172,3.2437,3.1853,3.1611,3.1278,0.0,3.0419,2.9827,2.846,2.8117,2.767,0.0,0.0,0.0,0.0,0.0,0.0,0.0,0.0,0.0,2.3767,2.2288,2.17,2.2067,2.0269,1.9438,1.9744,1.8947,1.8569,1.8563,1.8563,1.8458,1.8281,1.8299,1.8293,1.8273,1.8066,0.0,0.0,1.8076,1.8008,1.8008,1.8008,1.7959,1.7871,1.7871,1.7102,1.6087,1.6087,1.5384,1.4476,1.4195,1.378,1.3198,1.1955,1.1688,1.1742,1.1357,1.1201,1.0986,1.0135,0.9583,0.9139,0.8452,0.8291,0.8091,0.7405,0.7111,0.6789,0.6079,0.5818,0.5686,0.5686,0.4918,0.4284,0.4284,0.3713,0.3211,0.3011,0.2978,0.2377,0.074,0.0404,0.0202,0.0,-0.0638,-0.1084,-0.1246,-0.2077,-0.2619,-0.2712,-0.2945,-0.3062,-0.3062,-0.3797,-0.4203,-0.4203,-0.5075,-0.5509,-0.5509,-0.5698,-0.5755,3.5739,3.56,3.56,3.56,3.56,3.56,3.56,0.0,3.4576,3.4528,3.3479,3.2574,3.252,3.1951,3.1467,0.0,3.0777,3.0238,3.0072,2.938,2.8556,2.7703,0.0,0.0,0.0,0.0,0.0,0.0,0.0,0.0,0.0,2.2672,2.1526,2.0818,1.9813,1.9908,2.1208,2.0638,2.0376,2.0365,2.0365,1.9954,1.9192,1.9181,1.9191,1.915,0.0,0.0,0.0,1.8337,1.8008,1.8008,1.8008,1.7773,1.7474,1.7474,1.7093,1.6628,1.6628,1.6567,1.6271,1.5168,1.4358,1.3636,1.2465,1.2658,1.2853,1.1149,1.1171,1.1543,1.0721,0.99,0.9268,0.9204,0.9172,0.9172,0.9075,0.8452,0.7859,0.7767,0.7111,0.6593,0.6593,0.5844,0.5259,0.5259,0.5193,0.4855,0.3982,0.3882,0.3513,0.2544,0.1675,0.0873,0.0067,-0.0067,-0.0135,-0.0135,-0.0977,-0.1448,-0.1452,-0.2385,-0.2907,-0.2907,-0.312,-0.3232,-0.3232,-0.4169,-0.4637,-0.4635,-0.5313,-0.561,3.6139,3.5849,3.56,3.56,3.56,3.56,3.56,0.0,3.5075,3.4671,3.3862,3.3093,3.2668,3.2007,3.1511,3.1511,3.1219,3.0837,3.0359,3.0011,2.9473,0.0,0.0,0.0,0.0,0.0,0.0,0.0,0.0,0.0,0.0,2.2923,2.2542,2.3105,2.0137,1.9779,2.24,2.2226,2.1591,2.059,2.059,2.0421,2.0074,2.0096,2.0085,2.0052,0.0,0.0,0.0,1.9726,1.9276,1.8757,1.8481,1.8245,1.7965,1.7241,1.6992,1.6931,1.6482,1.6162,1.5848,1.5365,1.5011,1.4554,1.3101,1.2905,1.3005,1.2251,1.2274,1.2328,1.1531,1.0699,1.0079,1.0079,1.0079,0.9945,0.9402,0.9043,0.8619,0.8091,0.773,0.747,0.747,0.6756,0.617,0.617,0.5752,0.5259,0.4891,0.4855,0.4486,0.358,0.2678,0.2009,0.1643,0.1108,0.0772,0.0772,-0.0034,-0.0504,-0.0504,-0.0917,-0.1162,-0.1162,-0.1723,-0.2008,-0.2008,-0.2973,-0.3421,-0.3421,-0.3728,-0.3845,3.6664,3.6249,3.5849,3.5849,3.5717,3.56,0.0,0.0,3.547,3.4988,3.4358,3.3761,3.3287,3.2449,3.1824,3.1824,3.164,3.1307,3.0748,3.0644,3.0329,0.0,0.0,0.0,0.0,0.0,0.0,0.0,0.0,0.0,0.0,2.3044,2.3172,2.4268,2.1171,2.0664,2.3067,2.309,2.2516,2.1353,2.1353,2.1195,2.0974,2.0974,2.0974,2.0974,0.0,0.0,0.0,2.0529,1.9984,1.9361,1.8892,1.8594,1.8321,1.7245,1.691,1.6896,1.6158,1.5664,1.541,1.541,1.541,1.5206,1.4055,1.3704,1.3606,1.313,1.3009,1.2879,1.2297,1.1569,1.1021,1.1233,1.1139,1.0856,1.0496,1.0395,1.0135,0.9296,0.8913,0.8661,0.8415,0.7665,0.7079,0.7079,0.6564,0.6178,0.6178,0.5947,0.5547,0.4875,0.4013,0.328,0.2744,0.2108,0.1708,0.1708,0.0873,0.037,0.037,0.0135,0.0,0.0,-0.0605,-0.0906,-0.0906,-0.1842,-0.2277,-0.231,-0.2577,-0.2711,3.7323,3.6803,3.6374,3.6374,3.5989,3.56,3.56,3.56,3.56,3.56,3.5052,3.4576,3.4576,3.3495,3.2602,3.2602,3.1979,3.1511,3.1511,3.1511,0.0,0.0,0.0,0.0,0.0,0.0,0.0,0.0,0.0,0.0,0.0,2.312,2.312,2.312,2.3065,2.3065,2.312,2.3108,2.3078,2.3078,2.3078,2.2659,2.1877,2.1877,2.1877,0.0,0.0,0.0,0.0,2.0375,1.9758,1.9629,1.911,1.8662,1.8222,1.7477,1.69,1.6407,1.5671,1.5391,1.541,1.541,1.541,1.541,1.5381,1.5381,1.505,1.3463,1.3009,1.3009,1.2978,1.2389,1.1989,1.2795,1.2358,1.1989,1.2795,1.2948,1.2726,1.1927,1.1058,1.0211,0.9422,0.8549,0.7994,0.7994,0.7994,0.7962,0.7962,0.7209,0.6687,0.6687,0.5877,0.4655,0.2845,0.2678,0.2678,0.2678,0.1809,0.1273,0.1273,0.0471,0.0,0.0,0.0,0.0,0.0,-0.0873,-0.1307,-0.134,-0.2277,-0.2711,3.7323,3.6803,3.6291,3.5941,3.5717,3.56,3.56,3.56,3.56,3.56,3.5075,3.46,3.46,3.3887,3.3287,3.3287,3.2707,3.2244,0.0,0.0,0.0,0.0,0.0,0.0,0.0,0.0,0.0,0.0,0.0,0.0,0.0,2.4336,2.3806,2.3125,2.3108,2.3108,2.3108,2.3108,2.3108,2.3108,2.3108,2.2975,2.272,2.272,0.0,0.0,0.0,0.0,0.0,2.1672,2.0926,2.0006,1.9552,1.9232,1.8922,1.7851,1.7712,1.7895,1.7163,1.6912,1.6912,1.6912,1.6557,1.6151,1.6151,1.5806,1.5294,1.4776,1.4243,1.3816,1.3816,1.3213,1.2665,1.2948,1.2826,1.2696,1.2948,1.3009,1.2917,1.2665,1.1943,1.1322,1.1048,0.9824,0.8877,0.8877,0.8388,0.7994,0.7994,0.7767,0.7372,0.6752,0.6461,0.5807,0.4652,0.3949,0.358,0.358,0.2744,0.2243,0.2243,0.1977,0.1543,0.0906,0.0873,0.0605,0.0,-0.0269,-0.0404,-0.0404,-0.0706,-0.1175,3.7596,3.7097,3.6563,3.6032,3.5761,0.0,3.56,3.56,3.56,3.56,3.5276,3.4965,3.4965,3.4431,3.3987,3.3987,3.3417,0.0,0.0,0.0,0.0,0.0,0.0,0.0,0.0,0.0,0.0,0.0,0.0,0.0,0.0,0.0,2.4606,2.3975,2.3972,2.3688,2.3108,2.3108,2.3108,2.3108,2.3108,2.3108,2.3108,2.3108,0.0,0.0,0.0,0.0,0.0,2.1857,2.1188,2.0346,1.9852,1.9606,1.9423,1.8402,1.8313,1.8581,1.7841,1.7605,1.7605,1.7605,1.7274,1.6922,1.6922,1.6197,1.541,1.541,1.505,1.4658,1.4658,1.4055,1.3524,1.3816,1.3666,1.3545,1.3846,1.3914,1.3816,1.3515,1.3053,1.2626,1.2297,1.1142,1.0243,1.0243,0.9506,0.8967,0.8967,0.871,0.8285,0.773,0.7372,0.6854,0.598,0.505,0.4519,0.4519,0.368,0.3178,0.3178,0.2878,0.241,0.1842,0.1842,0.1374,0.0504,0.0168,0.0,0.0,0.0,-0.0303,0.0,3.756,3.7058,3.6539,3.6006,3.56,3.56,3.56,0.0,3.56,3.56,3.56,3.56,3.5098,3.4688,3.4688,3.4112,0.0,0.0,0.0,0.0,0.0,0.0,0.0,0.0,0.0,0.0,0.0,0.0,0.0,0.0,0.0,2.555,2.555,2.5545,2.4784,2.3122,2.322,2.3233,2.322,2.3233,2.3245,2.3198,2.3245,0.0,0.0,0.0,0.0,0.0,2.1119,2.0666,2.0578,2.0012,1.9798,1.9721,1.9044,1.8768,1.8688,1.7977,1.777,1.7743,1.7715,1.7688,1.766,1.7633,1.6631,1.5546,1.5546,1.5546,1.5546,1.5497,1.4923,1.454,1.5225,1.4844,1.4481,1.5235,1.541,1.5167,1.4421,1.4243,1.3965,1.3213,1.242,1.1888,1.1888,1.1257,1.0776,1.0776,1.0009,0.946,0.9396,0.8613,0.773,0.6883,0.5976,0.5458,0.5395,0.4586,0.4115,0.4115,0.3311,0.2845,0.2778,0.2744,0.2277,0.1407,0.0504,0.0101,0.0101,0.0034,0.0,3.8048,0.0,3.7058,3.6539,3.6006,3.56,0.0,3.56,3.56,3.56,3.56,3.56,3.56,3.547,3.5362,3.5362,0.0,0.0,0.0,0.0,0.0,0.0,0.0,0.0,0.0,0.0,0.0,0.0,0.0,0.0,0.0,0.0,2.7088,2.7076,2.7097,2.5785,2.3124,2.4273,2.4645,2.4231,2.4658,2.4553,2.4031,2.461,0.0,0.0,0.0,0.0,2.1719,2.0994,2.0427,1.9987,1.9861,1.9798,1.9773,1.9618,1.9527,1.9527,1.9333,1.9281,1.9202,1.8635,1.8447,1.8328,1.777,1.7357,1.7079,1.7079,1.7079,1.694,1.6397,1.6112,1.5853,1.5497,1.5264,1.5177,1.5352,1.541,1.5352,1.5138,1.4628,1.4145,1.3936,1.3243,1.2734,1.2734,1.2551,1.2428,1.2428,1.171,1.0947,1.028,0.9474,0.8646,0.7762,0.6887,0.6108,0.5428,0.5193,0.5057,0.5057,0.4888,0.4417,0.3713,0.3045,0.2577,0.2376,0.1441,0.1006,0.0973,0.0303,0.0,3.835,3.7894,3.7341,3.6583,3.6182,3.5898,3.5667,3.56,3.56,3.56,3.56,3.56,3.56,3.56,0.0,0.0,0.0,0.0,0.0,0.0,0.0,0.0,0.0,0.0,0.0,0.0,0.0,0.0,0.0,0.0,0.0,0.0,2.7588,2.7606,2.7606,2.6828,2.5177,2.6008,2.6022,2.5287,2.5356,2.5175,2.4809,2.4902,0.0,0.0,0.0,0.0,2.201,2.1414,2.0984,2.0632,2.0371,2.0258,2.022,1.9901,1.9798,1.9798,1.9798,1.9798,1.9721,1.9333,1.9202,1.9123,1.8741,1.8608,1.8474,1.7797,1.7605,1.7495,1.7118,1.7006,1.6894,1.6489,1.6415,1.6415,1.6415,1.614,1.5892,1.5892,1.5274,1.4746,1.4746,1.4085,1.3545,1.3545,1.3252,1.3009,1.3009,1.2604,1.2251,1.1944,1.1156,1.0341,0.97,0.8786,0.7649,0.6164,0.6199,0.607,0.5597,0.5597,0.5352,0.4829,0.3878,0.3377,0.3377,0.2426,0.1941,0.1909,0.1007,0.0605,3.8707,3.8366,3.7808,3.6865,3.658,3.6395,3.5963,3.5766,3.5717,3.5717,3.5667,3.56,3.56,3.56,0.0,0.0,0.0,0.0,0.0,0.0,0.0,0.0,0.0,0.0,0.0,0.0,0.0,0.0,0.0,0.0,0.0,0.0,0.0,2.7799,2.7784,2.7722,2.7607,2.7583,2.7163,2.6324,2.5936,2.5617,2.5397,2.4935,2.456,0.0,0.0,0.0,2.2568,2.1955,2.1697,2.1663,2.1137,2.0944,2.0856,2.0308,2.0093,2.0093,1.9978,1.9952,1.9952,1.9952,1.9875,1.9824,1.9927,1.9875,1.9527,1.8286,1.7934,1.7895,1.7797,1.777,1.7743,1.7633,1.7605,1.7605,1.7605,1.7118,1.668,1.668,1.6065,1.5584,1.5584,1.4894,1.4392,1.4392,1.3786,1.339,1.3449,1.3366,1.3439,1.3832,1.3068,1.2331,1.1851,1.1052,0.9673,0.7578,0.7486,0.707,0.6083,0.5871,0.58,0.58,0.4897,0.4458,0.4458,0.3415,0.293,0.2896,0.1946,0.1507,3.8707,3.8643,3.8433,3.7807,3.7378,3.7076,3.6962,3.6603,3.6287,3.6287,3.592,3.56,3.56,3.56,3.56,0.0,0.0,0.0,0.0,0.0,0.0,0.0,0.0,0.0,0.0,0.0,0.0,0.0,0.0,0.0,0.0,0.0,0.0,2.8619,2.8619,2.8288,2.7616,2.76,2.7516,2.7376,2.7295,2.6649,2.5506,2.6019,2.5301,0.0,0.0,2.3211,2.264,2.1964,2.1697,2.1697,2.1615,2.1568,2.1544,2.1448,2.1411,2.1352,2.0832,2.066,2.066,2.066,2.0245,1.9901,2.0472,2.0245,1.9747,1.9527,1.9449,1.9307,1.8688,1.8528,1.8367,1.7743,1.7605,1.7605,1.7605,1.7523,1.744,1.744,1.6838,1.6322,1.6322,1.5719,1.5235,1.5235,1.5108,1.5183,1.5576,1.5026,1.4769,1.5154,1.448,1.3629,1.2759,1.278,1.1954,0.9999,0.9053,0.8122,0.7105,0.6262,0.58,0.58,0.5633,0.5552,0.5552,0.4493,0.3954,0.3949,0.2945,0.2477,3.8707,3.8707,3.8643,3.8399,3.7964,3.7506,3.7266,3.7018,3.6843,3.6843,3.6643,3.6395,0.0,0.0,3.5941,0.0,0.0,0.0,0.0,0.0,0.0,0.0,0.0,0.0,0.0,0.0,0.0,0.0,0.0,0.0,0.0,0.0,0.0,0.0,2.9125,2.906,2.8903,2.8467,2.8036,2.76,2.76,2.6996,2.5937,2.6015,2.5337,2.4089,0.0,2.3466,2.3165,2.2846,2.2719,2.2696,2.2354,2.2239,2.2193,2.1828,2.1697,2.1649,2.139,2.1293,2.1293,2.1293,2.1075,2.0866,2.1197,2.1075,2.083,2.083,2.032,1.9721,1.9385,1.9281,1.9202,1.8874,1.8794,1.8794,1.8794,1.8474,1.8194,1.8194,1.7605,1.709,1.709,1.7081,1.6917,1.6431,1.6635,1.6719,1.6458,1.6105,1.6037,1.6485,1.571,1.5084,1.4925,1.4547,1.3278,1.0754,0.9662,0.8873,0.8396,0.7922,0.7446,0.6898,0.6764,0.6718,0.6714,0.5623,0.53,0.5738,0.423,0.3463,3.8707,3.8707,3.8707,3.8707,3.8382,3.7998,3.7632,3.7451,3.736,3.736,3.7284,0.0,0.0,3.66,0.0,0.0,0.0,0.0,0.0,0.0,0.0,0.0,0.0,0.0,0.0,0.0,0.0,0.0,0.0,0.0,0.0,0.0,0.0,0.0,2.9827,2.9902,3.0069,2.9607,2.8909,2.8018,2.801,2.7427,2.6272,2.5719,2.506,2.4335,2.3819,2.3595,2.3595,2.3595,2.3595,2.3551,2.3076,2.2897,2.2852,2.2317,2.2156,2.2132,2.1993,2.1922,2.1922,2.1922,2.1828,2.172,2.1899,2.1828,2.1697,2.1697,2.0988,2.0232,2.0232,2.0144,2.0029,2.0029,1.9901,1.9798,1.9798,1.9371,1.8953,1.8953,1.8487,1.8061,1.8061,1.8397,1.8447,1.7785,1.8025,1.8089,1.7531,1.7457,1.7565,1.7832,1.7163,1.6665,1.6609,1.572,1.414,1.1631,1.034,0.9669,0.9669,0.941,0.8922,0.8161,0.801,0.793,0.793,0.7009,0.6928,0.7524,0.5734,0.4849,3.8707,3.8707,3.8707,3.8707,3.8658,3.8627,3.8611,3.8218,3.7842,3.7842,3.7506,0.0,0.0,3.7135,0.0,0.0,0.0,0.0,0.0,0.0,0.0,0.0,0.0,0.0,0.0,0.0,0.0,0.0,0.0,0.0,0.0,0.0,0.0,0.0,0.0,3.0834,3.0284,3.0794,3.044,2.9271,2.9273,2.8225,2.6262,2.5423,2.4528,2.367,2.3625,2.3595,2.3595,2.3595,2.3595,2.3595,2.3551,2.353,2.353,2.3486,2.345,2.3384,2.283,2.2626,2.2626,2.2626,2.2193,2.1828,2.2452,2.2193,2.1697,2.1697,2.1625,2.1554,2.1554,2.1161,2.0721,2.0721,2.0245,1.9798,1.9798,1.9747,1.9721,1.9721,1.9563,1.9448,1.9448,1.9333,1.9226,1.9167,1.919,1.9321,1.9647,1.9672,1.9547,1.9204,1.9081,1.8382,1.6731,1.572,1.47,1.3557,1.1749,1.0677,1.0677,0.9782,0.9258,0.9183,0.9168,0.9163,0.9158,0.897,0.8891,0.8907,0.7664,0.6989,3.8707,3.8707,3.8707,3.8707,3.8707,3.8707,3.8707,3.8546,3.8399,3.8399,3.8269,0.0,0.0,0.0,0.0,0.0,0.0,0.0,0.0,0.0,0.0,0.0,0.0,0.0,0.0,0.0,0.0,0.0,0.0,0.0,0.0,0.0,0.0,0.0,0.0,3.1075,3.0858,3.1086,3.0968,3.0497,2.9387,2.8189,2.6946,2.6055,2.5129,2.4289,2.4289,2.4204,2.4095,2.4095,2.39,2.3595,2.3595,2.3794,2.4095,2.4095,2.4095,2.4059,2.3849,2.3543,2.3268,2.3268,2.3084,2.2935,2.3187,2.3084,2.2891,2.2891,2.2891,2.2696,2.1908,2.152,2.1366,2.1366,2.1159,2.0988,2.0988,2.0959,2.0927,2.0927,2.0833,2.0767,2.0767,2.1011,2.0972,2.0445,2.0677,2.0792,2.0383,2.0342,2.0282,2.0117,1.9628,1.88,1.756,1.6611,1.5895,1.5544,1.3679,1.2345,1.1768,1.136,1.087,1.0265,1.0228,1.0228,1.0228,0.9547,0.9506,1.0016,0.8908,0.8319,3.8707,3.8707,3.8707,3.8707,3.8707,3.8707,3.8707,3.8707,3.8707,3.8707,3.8707,3.8578,3.8216,0.0,0.0,0.0,0.0,0.0,0.0,0.0,0.0,0.0,0.0,0.0,0.0,0.0,0.0,0.0,0.0,0.0,0.0,0.0,0.0,0.0,0.0,3.119,3.119,3.119,3.119,3.119,2.9468,2.8176,2.7308,2.6217,2.5354,2.4713,2.4914,2.4941,2.4806,2.4688,2.443,2.4116,2.4116,2.4328,2.4637,2.4637,2.4637,2.4637,2.4637,2.441,2.4116,2.4116,2.4116,2.4116,2.4116,2.4116,2.4116,2.4116,2.397,2.3636,2.2788,2.2303,2.203,2.203,2.2005,2.2024,2.2024,2.2151,2.2254,2.2254,2.2379,2.2459,2.2459,2.2727,2.2723,2.2115,2.2189,2.2063,2.1479,2.1385,2.129,2.1049,2.0236,1.9464,1.8888,1.8234,1.7639,1.7058,1.5756,1.449,1.3266,1.3237,1.2894,1.2208,1.189,1.1712,1.1712,1.0714,1.0558,1.1124,1.0092,0.956,3.8707,3.8707,3.8707,3.8707,3.8707,3.8707,3.8707,3.8707,3.8707,3.8707,3.8707,3.8707,3.8707,0.0,0.0,0.0,0.0,0.0,0.0,0.0,0.0,0.0,0.0,0.0,0.0,0.0,0.0,0.0,0.0,0.0,0.0,0.0,0.0,0.0,0.0,0.0,3.119,3.119,3.119,3.1173,2.9721,2.8375,2.7163,2.5823,2.5033,2.4764,2.5407,2.5712,2.5677,2.5336,2.5202,2.5202,2.5202,2.5202,2.5221,2.5221,2.5221,2.5221,2.5221,2.5186,2.5202,2.5202,2.5202,2.5202,2.5202,2.5202,2.5202,2.5202,2.4831,2.441,2.4425,2.3571,2.2731,2.2709,2.2724,2.2737,2.2737,2.3259,2.3715,2.3715,2.4149,2.4512,2.4512,2.4418,2.4321,2.4321,2.3619,2.3138,2.3108,2.3108,2.2793,2.2002,2.1132,2.0623,2.059,2.059,1.9836,1.802,1.7929,1.7123,1.5269,1.5199,1.5199,1.5199,1.4207,1.3709,1.3709,1.2769,1.2298,1.2298,1.1279,1.0728,3.8707,3.8707,3.8707,3.8707,3.8707,3.8707,3.8707,3.8707,3.8707,3.8707,3.8707,3.8707,3.8707,0.0,0.0,0.0,0.0,0.0,0.0,0.0,0.0,0.0,0.0,0.0,0.0,0.0,0.0,0.0,0.0,0.0,0.0,0.0,0.0,0.0,0.0,0.0,3.119,3.119,3.119,3.119,3.0226,2.9132,2.7881,2.6756,2.6208,2.6128,2.6314,2.6407,2.6336,2.554,2.5202,2.5202,2.5202,2.543,2.5744,2.5744,2.5744,2.5744,2.5744,2.5521,2.5202,2.5202,2.5202,2.5202,2.5202,2.5202,2.5202,2.5202,2.5086,2.508,2.5592,2.5496,2.5024,2.4231,2.4393,2.4731,2.4731,2.4846,2.4975,2.4975,2.5068,2.5149,2.5149,2.5108,2.5063,2.5063,2.4866,2.4525,2.4002,2.3943,2.3429,2.2063,2.1659,2.127,2.0655,2.059,2.0386,1.9836,1.9803,1.8409,1.534,1.5199,1.5199,1.5199,1.4914,1.4772,1.4736,1.3774,1.3273,1.3273,1.2285,1.184,3.8707,3.8707,3.8707,3.8707,3.8707,3.8707,3.8707,0.0,0.0,0.0,3.8707,3.8707,3.8707,0.0,0.0,0.0,0.0,0.0,0.0,0.0,0.0,0.0,0.0,0.0,0.0,0.0,0.0,0.0,0.0,0.0,0.0,0.0,0.0,0.0,0.0,0.0,3.1712,3.1712,3.162,3.1432,3.0697,2.9699,2.8477,2.7264,2.6708,2.6691,2.6691,2.6708,2.6651,2.6045,2.5801,2.5801,2.5801,2.5998,2.6279,2.6279,2.6279,2.6279,2.6279,2.6068,2.5801,2.5801,2.5801,2.5801,2.5801,2.5801,2.5866,2.6161,2.6094,2.6124,2.6857,2.7086,2.6887,2.5936,2.6224,2.665,2.6405,2.6525,2.6628,2.6367,2.6494,2.6558,2.6322,2.6226,2.6105,2.5864,2.5591,2.5231,2.4794,2.4738,2.4368,2.3378,2.3289,2.2947,2.2127,2.2065,2.1799,2.1164,2.1101,1.9987,1.744,1.7014,1.6662,1.6332,1.5939,1.5755,1.5755,1.4772,1.4314,1.4279,1.3738,1.3448,3.8707,3.8707,3.8707,3.8707,3.8707,0.0,3.8707,3.8719,3.8735,3.8707,0.0,3.8707,0.0,0.0,0.0,0.0,0.0,0.0,0.0,0.0,0.0,0.0,0.0,0.0,0.0,0.0,0.0,0.0,0.0,0.0,0.0,0.0,0.0,0.0,0.0,0.0,3.2501,3.2501,3.2299,0.0,3.1168,3.0265,2.9098,2.7463,2.6706,2.6691,2.6691,2.6691,2.6691,2.6691,2.6691,2.6691,2.6691,2.6691,2.6691,2.6691,2.6691,2.6691,2.6691,2.6691,2.6691,2.6691,2.6691,2.6708,2.6776,2.6793,2.6962,2.7689,2.7605,2.7441,2.8188,2.8457,2.8409,2.787,2.8141,2.8349,2.7786,2.814,2.8415,2.787,2.8198,2.8415,2.786,2.767,2.7375,2.6771,2.6094,2.5632,2.5508,2.5508,2.5481,2.5398,2.5398,2.5119,2.4452,2.435,2.3712,2.2329,2.2156,2.176,2.0951,1.9933,1.9044,1.8236,1.7404,1.6964,1.6964,1.6027,1.5535,1.5438,1.5367,1.5261,3.8707,3.8707,3.8707,3.8707,3.8707,3.8707,3.8707,3.8855,3.8961,3.8732,3.8707,0.0,0.0,0.0,0.0,0.0,0.0,0.0,0.0,0.0,0.0,0.0,0.0,0.0,0.0,0.0,0.0,0.0,0.0,0.0,0.0,0.0,0.0,0.0,0.0,3.2501,3.2501,3.2501,3.2451,0.0,3.2191,3.1479,3.0248,2.7807,2.6706,2.6691,2.6691,2.6691,2.6691,2.6691,2.6691,2.6691,2.6691,2.6691,2.6691,2.6691,2.6691,2.6691,2.6691,2.6691,2.6691,2.6691,2.6691,2.681,2.7384,2.7553,2.7722,2.8518,2.8683,2.8762,2.9501,2.971,2.985,3.0288,2.9763,2.9144,2.9025,2.9091,2.9157,2.9042,2.9111,2.9157,2.9042,2.9004,2.8779,2.8143,2.7923,2.7434,2.6416,2.6256,2.6041,2.5453,2.5398,2.5342,2.5175,2.4624,2.4394,2.4641,2.4108,2.3631,2.3352,2.1397,2.0236,2.0042,1.9825,1.9749,1.9749,1.881,1.799,1.7319,1.6502,1.5808,3.8707,3.8707,3.8735,3.8855,0.0,3.9127,3.9127,3.9236,3.9308,3.9149,0.0,0.0,0.0,0.0,0.0,0.0,0.0,0.0,0.0,0.0,0.0,0.0,0.0,0.0,0.0,0.0,0.0,0.0,0.0,0.0,0.0,0.0,0.0,0.0,3.3223,3.3118,3.3118,3.3118,3.3045,3.2842,3.2842,3.219,3.0935,2.8032,2.6691,2.6701,2.6707,2.6703,2.6699,2.6697,2.6701,2.6701,2.6701,2.6705,2.6691,2.6691,2.6808,2.6971,2.6775,2.6841,2.7055,2.7431,2.7568,2.7738,2.8709,2.8834,2.8819,2.9607,2.9684,2.9702,3.0446,3.0632,3.0717,3.1106,3.072,3.0187,2.9892,2.9827,2.9739,2.9451,2.9629,2.9739,2.9451,2.9406,2.9293,2.8989,2.8943,2.8693,2.7991,2.7893,2.763,2.696,2.6868,2.6622,2.5973,2.5563,2.537,2.5398,2.5035,2.4782,2.4715,2.355,2.2354,2.1158,2.0792,2.059,2.059,2.0117,1.963,1.9182,1.8655,1.8188,3.8747,3.8803,3.8917,3.9125,3.9389,0.0,3.9599,3.9645,3.9698,0.0,0.0,0.0,0.0,0.0,0.0,0.0,0.0,0.0,0.0,0.0,0.0,0.0,0.0,0.0,0.0,0.0,0.0,0.0,0.0,0.0,0.0,0.0,3.3807,3.3807,3.3807,3.3807,3.3807,3.3807,3.362,3.3302,3.3229,3.2616,3.1438,2.8731,2.7265,2.6842,2.69,2.6916,2.6922,2.7039,2.7039,2.6955,2.687,2.6873,2.6906,2.6906,2.7115,2.7365,2.7019,2.7217,2.7722,2.8397,2.8709,2.9017,3.015,3.0221,3.007,3.0802,3.0782,3.0641,3.1274,3.1428,3.1428,3.1428,3.1428,3.1257,3.067,3.0567,3.0406,2.9924,3.0171,3.0293,2.9783,2.9717,2.9673,2.9563,2.9563,2.9518,2.9406,2.9406,2.9203,2.8724,2.8654,2.8143,2.6967,2.6718,2.6441,2.5972,2.5809,2.5809,2.5918,2.5809,2.4716,2.2583,2.1789,2.1432,2.1432,2.1432,2.1287,2.1014,2.1014,2.0867,3.8985,3.9257,3.9481,0.0,3.9576,3.9599,0.0,0.0,4.0022,0.0,0.0,0.0,0.0,0.0,0.0,0.0,0.0,0.0,0.0,0.0,0.0,0.0,0.0,0.0,0.0,0.0,0.0,0.0,0.0,0.0,0.0,3.3807,3.3807,3.3807,3.3807,3.3807,3.3807,3.3807,3.3762,3.3721,3.3361,3.2784,3.1982,3.1142,2.9539,2.7397,2.764,2.7744,2.7795,2.8433,2.8422,2.7961,2.7539,2.7528,2.7754,2.7754,2.7765,2.7811,2.7768,2.8235,2.8874,2.898,2.949,3.0214,3.1007,3.1206,3.1317,3.2046,3.2208,3.2193,3.2298,3.2333,3.2333,3.2333,3.2333,3.2196,3.1699,3.1588,3.1588,3.1497,3.1261,3.1055,3.0975,3.0975,3.0781,3.0251,3.0187,2.9995,2.9473,2.9406,2.9361,2.9293,2.9271,2.8996,2.828,2.7655,2.7515,2.8046,2.749,2.7425,2.807,2.7465,2.6721,2.5876,2.512,2.4769,2.4769,2.4769,2.4042,2.2669,2.2669,2.1949,3.9295,3.9622,3.988,0.0,3.9984,4.0091,4.0091,0.0,0.0,0.0,0.0,0.0,0.0,0.0,0.0,0.0,0.0,0.0,0.0,0.0,0.0,0.0,0.0,0.0,0.0,0.0,0.0,0.0,0.0,0.0,3.4031,3.3876,3.3807,3.3807,3.3807,3.3807,3.3807,3.3807,3.3807,3.3807,3.3606,3.3368,3.3054,3.2837,3.0898,2.7727,2.7844,2.8122,2.8539,2.8869,2.8865,2.8627,2.8421,2.8164,2.795,2.8404,2.8688,2.8899,2.9147,2.9611,3.0173,3.0618,3.1027,3.1487,3.2452,3.2598,3.2489,3.2798,3.2697,3.2501,3.2501,3.2501,3.2501,3.2501,3.2697,3.284,3.2631,3.2383,3.2109,3.1861,3.166,3.1451,3.1249,3.119,3.1112,3.0838,3.0801,3.0699,3.0456,3.0414,3.0272,2.9935,2.9892,2.9651,2.9058,2.8709,2.867,2.8973,2.8693,2.867,2.8989,2.8693,2.8242,2.764,2.616,2.5398,2.5398,2.5398,2.5036,2.4343,2.4343,2.3735,3.9541,3.9893,4.0195,4.0195,4.0356,4.0496,0.0,0.0,0.0,0.0,0.0,0.0,0.0,0.0,0.0,0.0,0.0,0.0,0.0,0.0,0.0,0.0,0.0,0.0,0.0,0.0,0.0,0.0,0.0,0.0,3.4334,3.4056,3.3865,3.3797,3.3792,3.3807,3.3807,3.3807,3.3807,3.3807,3.3807,3.3807,3.3788,3.38,3.2187,2.9358,2.8524,2.8492,2.9059,2.9879,2.9986,2.9626,2.9761,2.9398,2.8863,2.9464,2.9845,3.011,3.046,3.0904,3.142,3.2032,3.2373,3.2688,3.3538,3.3578,3.3346,3.3346,3.3105,3.284,3.284,3.284,3.284,3.284,3.3105,3.3317,3.3229,3.2919,3.255,3.2057,3.1969,3.1879,3.1564,3.1524,3.1524,3.1524,3.1519,3.1517,3.1542,3.1519,3.1366,3.0914,3.0754,3.0431,2.9827,2.9701,2.9629,2.9629,2.9629,2.9629,2.9629,2.9629,2.9339,2.8732,2.7213,2.6265,2.5973,2.5973,2.5864,2.5673,2.5673,2.5287,3.9599,4.0034,0.0,4.0481,4.0489,4.0496,0.0,0.0,0.0,0.0,0.0,0.0,0.0,0.0,0.0,0.0,0.0,0.0,0.0,0.0,0.0,0.0,0.0,0.0,0.0,0.0,0.0,0.0,0.0,0.0,3.4684,3.4357,3.4071,3.3806,3.3799,3.3807,3.3807,3.3807,3.3807,3.3807,3.3807,3.3807,3.3807,3.3788,3.3683,3.3313,3.0267,2.8972,2.9234,3.2287,3.2656,3.1329,3.182,3.1703,3.1218,3.1255,3.1286,3.1317,3.1328,3.186,3.252,3.2557,3.3083,3.3707,3.3788,3.3793,3.3762,3.3762,3.3748,3.3734,3.3734,3.3734,3.3734,3.3734,3.3748,3.3666,3.3273,3.3184,3.3029,3.255,3.2467,3.2451,3.2434,3.2434,3.2434,3.2434,3.2441,3.2424,3.2436,3.2423,3.2424,3.2401,3.1986,3.1479,3.0878,3.0476,3.0251,3.0251,3.0251,3.0251,3.0251,3.0251,2.9973,2.9361,2.9255,2.8631,2.7484,2.7484,2.7111,2.6457,2.6457,2.6041,3.9851,0.0,0.0,4.0496,4.0496,4.0496,4.0496,0.0,0.0,0.0,0.0,0.0,0.0,0.0,0.0,0.0,0.0,0.0,0.0,0.0,0.0,0.0,0.0,0.0,0.0,0.0,0.0,0.0,0.0,0.0,3.4963,3.4675,3.4375,3.4076,3.3901,3.3795,3.3788,3.3807,3.3807,3.3807,3.3807,3.3807,3.3807,3.3807,3.3807,3.3752,3.2585,3.2091,3.2173,3.3333,3.3056,3.1937,3.2115,3.1869,3.147,3.1971,3.2173,3.2247,3.2761,3.3128,3.3366,3.3366,3.3568,3.3807,3.3807,3.3807,3.3807,3.3807,3.391,3.4056,3.4056,3.4056,3.4006,3.3842,3.3807,3.3762,3.3625,3.3578,3.3465,3.3029,3.2952,3.284,3.255,3.2501,3.2504,3.2492,3.2511,3.2494,3.2503,3.2505,3.2489,3.2484,3.2341,3.2039,3.1519,3.1346,3.115,3.0898,3.0878,3.0878,3.0878,3.0878,3.058,2.9995,2.9995,2.9368,2.8189,2.8189,2.783,2.7203,2.7203,2.703,3.988,0.0,0.0,0.0,0.0,4.0439,4.0169,0.0,0.0,0.0,0.0,0.0,0.0,0.0,0.0,0.0,0.0,0.0,0.0,0.0,0.0,0.0,0.0,0.0,0.0,0.0,0.0,0.0,0.0,0.0,3.5231,3.4981,3.4645,3.4211,3.4024,3.3881,3.3788,3.3807,3.3807,3.3788,3.3928,3.3928,3.382,3.4018,3.4092,3.4096,3.4105,3.3981,3.3808,3.3799,3.3381,3.2733,3.2733,3.2524,3.2265,3.2816,3.2999,3.3091,3.3605,3.3807,3.3807,3.3807,3.3807,3.3815,3.3915,3.3923,3.3967,3.4062,3.4237,3.4368,3.4368,3.4368,3.4288,3.4012,3.3923,3.3915,3.3815,3.3807,3.3721,3.3447,3.339,3.3302,3.2981,3.2934,3.2941,3.2941,3.2927,3.2938,3.2937,3.2934,3.2934,3.2934,3.2805,3.2603,3.2301,3.198,3.1697,3.1421,3.1261,3.119,3.119,3.119,3.1015,3.0617,3.0601,3.0102,2.9088,2.8896,2.8591,2.8183,2.8183,2.8152,0.0,0.0,0.0,0.0,0.0,0.0,0.0,0.0,0.0,0.0,0.0,0.0,0.0,0.0,0.0,0.0,0.0,0.0,0.0,0.0,0.0,0.0,0.0,0.0,0.0,0.0,0.0,0.0,0.0,3.55,3.55,3.5258,3.4832,3.4246,3.4208,3.4081,3.3834,3.3839,3.3839,3.3829,3.4232,3.4189,3.3855,3.442,3.4709,3.4699,3.4703,3.4371,3.3815,3.3815,3.3815,3.3815,3.3815,3.3802,3.3802,3.3788,3.382,3.3802,3.3802,3.3815,3.3815,3.3815,3.3815,3.3881,3.4135,3.4211,3.4269,3.4622,3.4723,3.4704,3.4704,3.4704,3.4632,3.43,3.4218,3.4135,3.3887,3.3825,3.3825,3.3807,3.3807,3.3807,3.3807,3.3807,3.3807,3.3807,3.3807,3.3807,3.3807,3.3807,3.3807,3.3807,3.3455,3.3208,3.3208,3.237,3.183,3.1808,3.1458,3.123,3.121,3.121,3.121,3.119,3.119,3.0898,3.033,2.9717,2.9406,2.94,2.9422,2.9422,3.9599,0.0,0.0,0.0,0.0,0.0,0.0,0.0,0.0,0.0,0.0,0.0,0.0,0.0,0.0,0.0,0.0,0.0,0.0,0.0,0.0,0.0,0.0,0.0,0.0,0.0,0.0,0.0,3.55,3.55,3.55,3.5258,3.5025,3.4851,3.4649,3.4536,3.4442,3.4454,3.4457,3.4461,3.4569,3.4557,3.4465,3.4627,3.4691,3.4703,3.4701,3.4612,3.4461,3.4566,3.4536,3.4439,3.4171,3.4086,3.4068,3.3863,3.391,3.4086,3.4086,3.4249,3.4461,3.4461,3.4461,3.4453,3.454,3.4561,3.4572,3.4674,3.4851,3.499,3.499,3.499,3.4917,3.4633,3.4551,3.4552,3.4463,3.4457,3.4333,3.3875,3.3949,3.4036,3.3825,3.3949,3.4017,3.3825,3.3807,3.3807,3.3807,3.3807,3.3807,3.3807,3.3702,3.3523,3.3226,3.2955,3.2658,3.2333,3.2196,3.1986,3.1641,3.1623,3.1488,3.121,3.119,3.1131,3.0938,3.0351,2.9836,2.9404,2.9858,2.983,3.9564,3.9688,0.0,0.0,0.0,0.0,3.7661,3.7469,0.0,0.0,0.0,0.0,0.0,0.0,0.0,0.0,0.0,0.0,0.0,0.0,0.0,0.0,0.0,0.0,0.0,0.0,0.0,0.0,3.55,3.55,3.55,3.5354,3.5215,3.5105,3.4954,3.4812,3.4691,3.4693,3.4712,3.4703,3.4807,3.4812,3.4707,3.4927,3.4972,3.486,3.4981,3.5025,3.5044,3.512,3.4964,3.4674,3.4478,3.4412,3.4379,3.4225,3.4272,3.4412,3.4412,3.454,3.4694,3.4694,3.4694,3.4714,3.4822,3.487,3.4898,3.4999,3.5157,3.5273,3.5273,3.5273,3.5193,3.4924,3.4868,3.4836,3.4715,3.4705,3.4599,3.4246,3.4301,3.4358,3.4191,3.4195,3.4141,3.3999,3.3875,3.3807,3.3807,3.3807,3.3807,3.3807,3.3807,3.3702,3.3473,3.3313,3.3065,3.2805,3.2616,3.2384,3.2092,3.2101,3.1886,3.1472,3.1436,3.1365,3.119,3.0858,3.048,3.0163,3.0499,3.0497,3.9331,3.9039,3.8717,0.0,0.0,0.0,3.675,3.6577,3.6365,0.0,0.0,0.0,0.0,0.0,0.0,0.0,0.0,0.0,0.0,0.0,0.0,0.0,0.0,0.0,0.0,3.55,3.55,3.55,3.55,3.55,3.55,3.55,3.5383,3.5147,3.5138,3.5028,3.4798,3.4798,3.4792,3.4787,3.5025,3.5025,3.4807,3.5282,3.5369,3.5166,3.541,3.55,3.55,3.55,3.5215,3.4793,3.4773,3.4734,3.4734,3.4704,3.4714,3.4734,3.4734,3.4754,3.4784,3.4784,3.4784,3.4822,3.5079,3.5138,3.5198,3.5432,3.55,3.55,3.55,3.55,3.5444,3.52,3.5139,3.507,3.4831,3.4784,3.4784,3.4784,3.4766,3.4722,3.4723,3.4483,3.4275,3.4204,3.3999,3.3825,3.3807,3.3807,3.3807,3.3807,3.3807,3.3807,3.3807,3.3473,3.3263,3.3263,3.288,3.2631,3.2579,3.2579,3.2359,3.1893,3.183,3.1594,3.119,3.119,3.119,3.119,3.119,3.119,0.0,0.0,0.0,0.0,0.0,0.0,3.5923,3.5731,3.5692,0.0,0.0,0.0,0.0,0.0,0.0,0.0,0.0,0.0,0.0,0.0,0.0,0.0,0.0,0.0,0.0,3.55,3.55,3.55,3.55,3.55,3.55,3.55,3.5486,3.5424,3.5424,3.5398,3.5345,3.5345,3.5336,3.5339,3.5404,3.5378,3.5339,3.5442,3.546,3.5432,3.5486,3.55,3.55,3.55,3.5439,3.5312,3.5105,3.5016,3.499,3.4774,3.4841,3.5016,3.5016,3.5155,3.5335,3.5335,3.5335,3.5361,3.5417,3.5424,3.5432,3.5493,3.55,3.55,3.55,3.55,3.5486,3.5417,3.5427,3.54,3.5364,3.5332,3.5332,3.5332,3.5171,3.4958,3.4741,3.4829,3.4756,3.4275,3.4159,3.4036,3.3825,3.3807,3.3807,3.3807,3.3807,3.3807,3.3807,3.372,3.3683,3.3683,3.3597,3.3409,3.3075,3.3056,3.2842,3.237,3.1982,3.1594,3.119,3.119,3.119,3.119,3.119,3.119,0.0,0.0,0.0,3.6384,0.0,0.0,0.0,3.55,3.55,0.0,0.0,0.0,0.0,0.0,0.0,0.0,0.0,0.0,0.0,0.0,0.0,0.0,0.0,0.0,0.0,3.5515,3.55,3.55,3.55,3.55,3.55,3.55,3.55,3.55,3.55,3.55,3.55,3.55,3.55,3.55,3.55,3.55,3.55,3.55,3.55,3.55,3.55,3.55,3.55,3.55,3.55,3.5493,3.5354,3.5297,3.5289,3.5138,3.519,3.5297,3.5297,3.5383,3.55,3.55,3.55,3.55,3.55,3.55,3.55,3.55,3.55,3.55,3.55,3.55,3.55,3.55,3.55,3.55,3.55,3.55,3.55,3.55,3.5378,3.5262,3.5121,3.5102,3.4998,3.4695,3.4391,3.4154,3.4026,3.3875,3.3807,3.3807,3.3807,3.3807,3.3807,3.3807,3.3807,3.3807,3.3807,3.3702,3.3523,3.3491,3.3277,3.285,3.2385,3.1927,3.1506,3.1506,3.1402,3.119,3.119,3.119,0.0,0.0,0.0,0.0,0.0,3.5424,0.0,0.0,0.0,3.55,0.0,0.0,0.0,0.0,0.0,0.0,0.0,0.0,0.0,0.0,0.0,0.0,0.0,0.0,0.0,3.5558,3.5521,3.55,3.5515,3.5515,3.55,3.55,3.55,3.55,3.55,3.55,3.55,3.55,3.55,3.55,3.55,3.55,3.55,3.55,3.55,3.55,3.55,3.55,3.55,3.55,3.55,3.55,3.55,3.55,3.55,3.55,3.55,3.55,3.55,3.55,3.55,3.55,3.55,3.55,3.55,3.55,3.55,3.55,3.55,3.55,3.55,3.55,3.55,3.55,3.55,3.55,3.55,3.55,3.55,3.55,3.55,3.55,3.55,3.532,3.516,3.5111,3.4679,3.4334,3.4221,3.4017,3.3857,3.3807,3.3807,3.3807,3.3807,3.3807,3.3807,3.3807,3.3807,3.3807,3.3807,3.3807,3.3597,3.3208,3.2836,3.2396,3.194,3.1927,3.1684,3.119,3.119,3.119,0.0,0.0,0.0,0.0,3.4783,0.0,0.0,0.0,3.55,3.55,0.0,0.0,0.0,0.0,0.0,0.0,0.0,0.0,0.0,0.0,0.0,0.0,0.0,0.0,0.0,0.0,3.5568,3.5494,3.5564,3.5562,3.5507,3.55,3.55,3.55,3.55,3.55,3.55,3.55,3.55,3.55,3.55,3.55,3.55,3.55,3.55,3.55,3.55,3.55,3.55,3.55,3.55,3.55,3.55,3.55,3.55,3.55,3.55,3.55,3.55,3.55,3.55,3.55,3.55,3.55,3.55,3.55,3.55,3.55,3.55,3.55,3.55,3.55,3.55,3.55,3.55,3.55,3.55,3.55,3.55,3.55,3.55,3.55,3.55,3.5462,3.5379,3.5138,3.5043,3.4801,3.4273,3.4159,3.4054,3.3825,3.3807,3.3807,3.3807,3.3807,3.3807,3.3807,3.3807,3.3807,3.3807,3.3807,3.3597,3.3208,3.3149,3.2892,3.2418,3.2414,3.2003,3.119,3.119,3.119,0.0,0.0,0.0,0.0,0.0,0.0,3.4879,0.0,3.5273,0.0,0.0,0.0,0.0,0.0,0.0,0.0,0.0,0.0,0.0,0.0,0.0,0.0,0.0,0.0,0.0,0.0,0.0,0.0,0.0,3.5566,3.5488,3.55,3.55,3.55,3.55,3.55,3.55,3.55,3.55,3.55,3.55,3.55,3.55,3.55,3.55,3.55,3.55,3.55,3.55,3.5538,3.5558,3.5558,3.5596,3.5577,3.55,3.55,3.55,3.55,3.55,3.5538,3.5558,3.5558,3.5538,3.55,3.55,3.55,3.55,3.55,3.55,3.55,3.55,3.55,3.55,3.55,3.55,3.55,3.55,3.55,3.55,3.55,3.55,3.55,3.55,3.55,3.5453,3.5354,3.5198,3.4945,3.4547,3.4333,3.4104,3.3825,3.3807,3.3807,3.3807,3.3807,3.3807,3.3807,3.3807,3.3807,3.3807,3.3807,3.372,3.356,3.356,3.3331,3.2912,3.2907,3.2583,3.1962,3.1675,3.1419,3.3886,0.0,0.0,0.0,0.0,0.0,0.0,0.0,0.0,0.0,0.0,0.0,0.0,0.0,0.0,0.0,0.0,0.0,0.0,0.0,0.0,0.0,0.0,0.0,0.0,0.0,0.0,0.0,3.5611,3.5605,3.5528,3.5508,3.55,3.55,3.55,3.55,3.55,3.55,3.55,3.55,3.55,3.55,3.55,3.55,3.5515,3.5519,3.5528,3.5541,3.5558,3.5605,3.5637,3.5628,3.5685,3.5647,3.5552,3.556,3.5558,3.5558,3.5558,3.5586,3.5629,3.563,3.5577,3.5538,3.5538,3.5519,3.55,3.55,3.55,3.55,3.55,3.55,3.55,3.55,3.55,3.55,3.55,3.55,3.55,3.55,3.55,3.55,3.55,3.55,3.55,3.55,3.5327,3.5113,3.4832,3.4525,3.4227,3.3939,3.3844,3.3807,3.3807,3.3807,3.3807,3.3807,3.3807,3.3807,3.3807,3.3807,3.3807,3.3807,3.3807,3.3665,3.335,3.335,3.3136,3.2679,3.2212,3.1757,0.0,0.0,0.0,3.3802,0.0,0.0,0.0,0.0,3.4803,0.0,0.0,0.0,0.0,0.0,3.5507,3.5507,0.0,0.0,0.0,0.0,0.0,0.0,0.0,0.0,0.0,0.0,0.0,3.5703,3.57,3.5675,3.5591,3.5534,3.55,3.55,3.55,3.55,3.55,3.55,3.55,3.55,3.55,3.55,3.55,3.55,3.5546,3.5608,3.5608,3.5629,3.5682,3.5699,3.5698,3.5696,3.5696,3.5696,3.5694,3.5687,3.5699,3.5699,3.5699,3.5695,3.5702,3.5694,3.5661,3.5596,3.5596,3.5558,3.55,3.55,3.55,3.55,3.55,3.55,3.55,3.55,3.55,3.55,3.55,3.55,3.55,3.55,3.55,3.55,3.55,3.55,3.55,3.55,3.5493,3.5383,3.5122,3.4851,3.4555,3.4221,3.3949,3.3807,3.3807,3.3807,3.3807,3.3807,3.3807,3.3807,3.3807,3.3807,3.3807,3.3807,3.3807,3.3788,3.3788,3.3788,3.3574,3.3178,3.2699,3.2233,0.0,0.0,3.3807,3.3807,0.0,0.0,0.0,0.0,0.0,0.0,0.0,0.0,0.0,0.0,3.5297,3.546,3.5515,0.0,0.0,0.0,0.0,0.0,0.0,0.0,0.0,0.0,0.0,3.5713,3.5772,3.5789,0.0,3.5638,3.5635,3.5635,3.5585,3.5585,3.5635,3.5585,3.5585,3.5635,3.5635,3.5635,3.563,3.563,3.5636,3.5663,3.5666,3.5681,3.5706,3.5793,3.5838,3.5844,3.5883,3.5902,3.5875,3.5756,3.5693,3.5708,3.5804,3.5779,3.5706,3.5807,3.5756,3.5663,3.568,3.5661,3.5641,3.5641,3.5596,3.5577,3.5577,3.5538,3.55,3.55,3.55,3.55,3.55,3.55,3.55,3.55,3.55,3.55,3.55,3.55,3.55,3.55,3.55,3.5391,3.513,3.5016,3.486,3.4555,3.4239,3.4067,3.4062,3.3894,3.3807,3.3807,3.3807,3.3807,3.3807,3.3807,3.3807,3.3807,3.3807,3.3807,3.3807,3.3807,3.3734,3.3592,3.3427,3.2964,3.3124,3.3494,0.0,3.3807,3.3807,0.0,3.3807,0.0,0.0,0.0,0.0,0.0,0.0,0.0,0.0,3.532,3.5439,3.5522,0.0,3.5762,0.0,0.0,0.0,0.0,0.0,0.0,3.5895,3.5806,3.5855,3.5869,0.0,0.0,3.5707,3.5707,3.5659,3.5659,3.5703,3.5659,3.5659,3.5707,3.5707,3.5707,3.5703,3.5698,3.5737,3.5778,3.577,3.5778,3.5801,3.5898,3.5937,3.5937,3.5976,3.5996,3.5976,3.5848,3.5804,3.5812,3.5916,3.5885,3.5815,3.5907,3.5859,3.5778,3.5771,3.5745,3.5648,3.5353,3.545,3.5567,3.5278,3.5377,3.5546,3.5546,3.5522,3.55,3.55,3.55,3.55,3.55,3.55,3.55,3.55,3.55,3.55,3.55,3.55,3.5439,3.5254,3.5166,3.5025,3.487,3.4553,3.433,3.4199,3.3949,3.3807,3.3807,3.3807,3.3807,3.3807,3.3807,3.3807,3.3807,3.3807,3.3807,3.3807,3.3807,3.3807,3.3807,3.3807,3.349]}]]